| time (UTC) | temp C | wind direction | speed KPH | gust KPH | rain 1hr cm | rain 24hr cm | rain mn cm | humidity % | barometer mb |
| 20260510174948 | 28 | 360 | 16.1 | 29.0 | 0.00 | 0.00 | 0.00 | 70 | 1014.8 |
| 20260510174828 | 28 | 360 | 14.5 | 29.0 | 0.00 | 0.00 | 0.00 | 70 | 1014.8 |
| 20260510174733 | 28 | 360 | 11.3 | 24.1 | 0.00 | 0.00 | 0.00 | 70 | 1014.8 |
| 20260510174652 | 28 | 360 | 12.9 | 24.1 | 0.00 | 0.00 | 0.00 | 69 | 1014.9 |
| 20260510174532 | 28 | 360 | 11.3 | 24.1 | 0.00 | 0.00 | 0.00 | 69 | 1014.8 |
| 20260510174433 | 28 | 360 | 12.9 | 24.1 | 0.00 | 0.00 | 0.00 | 69 | 1014.9 |
| 20260510174333 | 28 | 360 | 11.3 | 22.5 | 0.00 | 0.00 | 0.00 | 69 | 1015.0 |
| 20260510174234 | 28 | 360 | 12.9 | 22.5 | 0.00 | 0.00 | 0.00 | 69 | 1015.0 |
| 20260510174133 | 28 | 360 | 12.9 | 22.5 | 0.00 | 0.00 | 0.00 | 69 | 1015.0 |
| 20260510174017 | 28 | 360 | 11.3 | 22.5 | 0.00 | 0.00 | 0.00 | 69 | 1014.9 |
| 20260510173917 | 28 | 360 | 9.7 | 22.5 | 0.00 | 0.00 | 0.00 | 69 | 1015.0 |
| 20260510173838 | 28 | 360 | 9.7 | 22.5 | 0.00 | 0.00 | 0.00 | 69 | 1015.0 |
| 20260510173717 | 28 | 360 | 11.3 | 35.4 | 0.00 | 0.00 | 0.00 | 69 | 1015.0 |
| 20260510173637 | 28 | 360 | 11.3 | 35.4 | 0.00 | 0.00 | 0.00 | 70 | 1015.1 |
| 20260510173516 | 28 | 360 | 12.9 | 35.4 | 0.00 | 0.00 | 0.00 | 71 | 1015.1 |
| 20260510173417 | 28 | 360 | 14.5 | 35.4 | 0.00 | 0.00 | 0.00 | 71 | 1015.0 |
| 20260510173318 | 28 | 360 | 14.5 | 35.4 | 0.00 | 0.00 | 0.00 | 70 | 1015.1 |
| 20260510173221 | 27 | 360 | 16.1 | 35.4 | 0.00 | 0.00 | 0.00 | 71 | 1015.2 |
| 20260510173121 | 27 | 360 | 16.1 | 35.4 | 0.00 | 0.00 | 0.00 | 71 | 1015.1 |
| 20260510173022 | 27 | 360 | 16.1 | 35.4 | 0.00 | 0.00 | 0.00 | 71 | 1015.1 |
| 20260510172922 | 27 | 360 | 17.7 | 35.4 | 0.00 | 0.00 | 0.00 | 71 | 1015.1 |
| 20260510172824 | 27 | 360 | 17.7 | 35.4 | 0.00 | 0.00 | 0.00 | 71 | 1015.1 |
| 20260510172722 | 27 | 360 | 17.7 | 35.4 | 0.00 | 0.00 | 0.00 | 71 | 1015.1 |
| 20260510172623 | 27 | 360 | 16.1 | 27.4 | 0.00 | 0.00 | 0.00 | 71 | 1015.1 |
| 20260510172547 | 27 | 360 | 16.1 | 27.4 | 0.00 | 0.00 | 0.00 | 70 | 1015.2 |
| 20260510172446 | 27 | 360 | 14.5 | 27.4 | 0.00 | 0.00 | 0.00 | 70 | 1015.2 |
| 20260510172325 | 27 | 360 | 12.9 | 27.4 | 0.00 | 0.00 | 0.00 | 71 | 1015.1 |
| 20260510172226 | 27 | 360 | 12.9 | 27.4 | 0.00 | 0.00 | 0.00 | 71 | 1015.1 |
| 20260510172126 | 27 | 360 | 14.5 | 27.4 | 0.00 | 0.00 | 0.00 | 71 | 1015.2 |
| 20260510172047 | 27 | 360 | 14.5 | 27.4 | 0.00 | 0.00 | 0.00 | 73 | 1015.2 |
| 20260510171925 | 27 | 360 | 16.1 | 27.4 | 0.00 | 0.00 | 0.00 | 72 | 1015.3 |
| 20260510171846 | 27 | 360 | 17.7 | 27.4 | 0.00 | 0.00 | 0.00 | 71 | 1015.3 |
| 20260510171730 | 27 | 360 | 17.7 | 27.4 | 0.00 | 0.00 | 0.00 | 71 | 1015.3 |
| 20260510171629 | 27 | 360 | 16.1 | 27.4 | 0.00 | 0.00 | 0.00 | 72 | 1015.3 |
| 20260510171528 | 27 | 360 | 14.5 | 24.1 | 0.00 | 0.00 | 0.00 | 72 | 1015.3 |
| 20260510171449 | 27 | 360 | 14.5 | 24.1 | 0.00 | 0.00 | 0.00 | 72 | 1015.2 |
| 20260510171328 | 27 | 360 | 12.9 | 24.1 | 0.00 | 0.00 | 0.00 | 72 | 1015.3 |
| 20260510171229 | 27 | 360 | 12.9 | 25.7 | 0.00 | 0.00 | 0.00 | 71 | 1015.3 |
| 20260510171130 | 27 | 360 | 14.5 | 25.7 | 0.00 | 0.00 | 0.00 | 71 | 1015.3 |
| 20260510171051 | 27 | 360 | 14.5 | 25.7 | 0.00 | 0.00 | 0.00 | 72 | 1015.4 |
| 20260510170934 | 27 | 360 | 17.7 | 25.7 | 0.00 | 0.00 | 0.00 | 72 | 1015.4 |
| 20260510170835 | 27 | 360 | 17.7 | 25.7 | 0.00 | 0.00 | 0.00 | 72 | 1015.5 |
| 20260510170735 | 27 | 360 | 19.3 | 30.6 | 0.00 | 0.00 | 0.00 | 72 | 1015.4 |
| 20260510170616 | 27 | 360 | 17.7 | 30.6 | 0.00 | 0.00 | 0.00 | 72 | 1015.4 |
| 20260510170516 | 27 | 360 | 16.1 | 30.6 | 0.00 | 0.00 | 0.00 | 72 | 1015.5 |
| 20260510170437 | 27 | 360 | 14.5 | 30.6 | 0.00 | 0.00 | 0.00 | 72 | 1015.5 |
| 20260510170316 | 27 | 360 | 11.3 | 30.6 | 0.00 | 0.00 | 0.00 | 72 | 1015.5 |
| 20260510170221 | 27 | 360 | 11.3 | 30.6 | 0.00 | 0.00 | 0.00 | 74 | 1015.5 |
| 20260510170121 | 26 | 360 | 11.3 | 30.6 | 0.00 | 0.00 | 0.00 | 73 | 1015.5 |
| 20260510170021 | 26 | 360 | 12.9 | 30.6 | 0.00 | 0.00 | 0.00 | 75 | 1015.5 |
| 20260510165942 | 26 | 360 | 12.9 | 30.6 | 0.00 | 0.00 | 0.00 | 75 | 1015.5 |
| 20260510165823 | 26 | 360 | 16.1 | 30.6 | 0.00 | 0.00 | 0.00 | 74 | 1015.5 |
| 20260510165722 | 26 | 360 | 19.3 | 30.6 | 0.00 | 0.00 | 0.00 | 74 | 1015.6 |
| 20260510165623 | 26 | 360 | 20.9 | 30.6 | 0.00 | 0.00 | 0.00 | 74 | 1015.5 |
| 20260510165528 | 26 | 360 | 20.9 | 30.6 | 0.00 | 0.00 | 0.00 | 73 | 1015.5 |
| 20260510165429 | 26 | 360 | 20.9 | 29.0 | 0.00 | 0.00 | 0.00 | 72 | 1015.5 |
| 20260510165329 | 26 | 360 | 19.3 | 29.0 | 0.00 | 0.00 | 0.00 | 72 | 1015.6 |
| 20260510165250 | 27 | 360 | 17.7 | 29.0 | 0.00 | 0.00 | 0.00 | 73 | 1015.6 |
| 20260510165129 | 26 | 360 | 14.5 | 29.0 | 0.00 | 0.00 | 0.00 | 73 | 1015.5 |
| 20260510165029 | 27 | 360 | 14.5 | 29.0 | 0.00 | 0.00 | 0.00 | 73 | 1015.6 |
| 20260510164930 | 26 | 360 | 12.9 | 29.0 | 0.00 | 0.00 | 0.00 | 73 | 1015.5 |
| 20260510164835 | 26 | 360 | 14.5 | 29.0 | 0.00 | 0.00 | 0.00 | 74 | 1015.5 |
| 20260510164734 | 26 | 360 | 17.7 | 29.0 | 0.00 | 0.00 | 0.00 | 74 | 1015.5 |
| 20260510164655 | 26 | 360 | 19.3 | 29.0 | 0.00 | 0.00 | 0.00 | 74 | 1015.6 |
| 20260510164532 | 26 | 360 | 19.3 | 30.6 | 0.00 | 0.00 | 0.00 | 73 | 1015.5 |
| 20260510164430 | 26 | 360 | 19.3 | 30.6 | 0.00 | 0.00 | 0.00 | 73 | 1015.6 |
| 20260510164331 | 26 | 360 | 17.7 | 30.6 | 0.00 | 0.00 | 0.00 | 74 | 1015.6 |
| 20260510164251 | 26 | 360 | 19.3 | 30.6 | 0.00 | 0.00 | 0.00 | 74 | 1015.5 |
| 20260510164131 | 26 | 360 | 19.3 | 30.6 | 0.00 | 0.00 | 0.00 | 74 | 1015.6 |
| 20260510164016 | 26 | 360 | 17.7 | 30.6 | 0.00 | 0.00 | 0.00 | 73 | 1015.5 |
| 20260510163937 | 26 | 360 | 17.7 | 30.6 | 0.00 | 0.00 | 0.00 | 73 | 1015.5 |
| 20260510163857 | 26 | 360 | 16.1 | 30.6 | 0.00 | 0.00 | 0.00 | 73 | 1015.6 |
| 20260510163757 | 27 | 360 | 16.1 | 30.6 | 0.00 | 0.00 | 0.00 | 72 | 1015.5 |
| 20260510163636 | 27 | 360 | 12.9 | 27.4 | 0.00 | 0.00 | 0.00 | 74 | 1015.6 |
| 20260510163516 | 27 | 360 | 12.9 | 27.4 | 0.00 | 0.00 | 0.00 | 74 | 1015.5 |
| 20260510163416 | 26 | 360 | 12.9 | 27.4 | 0.00 | 0.00 | 0.00 | 75 | 1015.5 |
| 20260510163321 | 26 | 360 | 12.9 | 27.4 | 0.00 | 0.00 | 0.00 | 75 | 1015.5 |
| 20260510163241 | 26 | 360 | 12.9 | 27.4 | 0.00 | 0.00 | 0.00 | 74 | 1015.5 |
| 20260510163140 | 26 | 360 | 14.5 | 27.4 | 0.00 | 0.00 | 0.00 | 74 | 1015.5 |
| 20260510163020 | 26 | 360 | 14.5 | 27.4 | 0.00 | 0.00 | 0.00 | 74 | 1015.6 |
| 20260510162920 | 27 | 360 | 16.1 | 27.4 | 0.00 | 0.00 | 0.00 | 74 | 1015.6 |
| 20260510162822 | 27 | 360 | 14.5 | 25.7 | 0.00 | 0.00 | 0.00 | 74 | 1015.6 |
| 20260510162742 | 27 | 360 | 14.5 | 25.7 | 0.00 | 0.00 | 0.00 | 72 | 1015.6 |
| 20260510162620 | 27 | 360 | 12.9 | 25.7 | 0.00 | 0.00 | 0.00 | 72 | 1015.4 |
| 20260510162525 | 27 | 360 | 11.3 | 25.7 | 0.00 | 0.00 | 0.00 | 75 | 1015.5 |
| 20260510162445 | 27 | 360 | 11.3 | 25.7 | 0.00 | 0.00 | 0.00 | 75 | 1015.4 |
| 20260510162325 | 26 | 360 | 11.3 | 25.7 | 0.00 | 0.00 | 0.00 | 74 | 1015.5 |
| 20260510162225 | 26 | 360 | 12.9 | 27.4 | 0.00 | 0.00 | 0.00 | 74 | 1015.4 |
| 20260510162146 | 26 | 360 | 14.5 | 27.4 | 0.00 | 0.00 | 0.00 | 75 | 1015.3 |
| 20260510162026 | 26 | 360 | 16.1 | 27.4 | 0.00 | 0.00 | 0.00 | 75 | 1015.4 |
| 20260510161926 | 26 | 360 | 16.1 | 27.4 | 0.00 | 0.00 | 0.00 | 74 | 1015.4 |
| 20260510161827 | 26 | 360 | 16.1 | 27.4 | 0.00 | 0.00 | 0.00 | 74 | 1015.4 |
| 20260510161731 | 26 | 360 | 16.1 | 27.4 | 0.00 | 0.00 | 0.00 | 74 | 1015.5 |
| 20260510161632 | 26 | 360 | 16.1 | 27.4 | 0.00 | 0.00 | 0.00 | 75 | 1015.4 |
| 20260510161532 | 26 | 360 | 14.5 | 27.4 | 0.00 | 0.00 | 0.00 | 75 | 1015.5 |
| 20260510161452 | 26 | 360 | 14.5 | 27.4 | 0.00 | 0.00 | 0.00 | 74 | 1015.4 |
| 20260510161352 | 26 | 360 | 14.5 | 27.4 | 0.00 | 0.00 | 0.00 | 75 | 1015.4 |
| 20260510161231 | 26 | 360 | 14.5 | 27.4 | 0.00 | 0.00 | 0.00 | 75 | 1015.4 |
| 20260510161132 | 26 | 360 | 14.5 | 27.4 | 0.00 | 0.00 | 0.00 | 76 | 1015.3 |
| 20260510161016 | 26 | 360 | 14.5 | 27.4 | 0.00 | 0.00 | 0.00 | 74 | 1015.3 |
| 20260510160936 | 26 | 360 | 14.5 | 27.4 | 0.00 | 0.00 | 0.00 | 74 | 1015.3 |
| 20260510160835 | 26 | 360 | 16.1 | 27.4 | 0.00 | 0.00 | 0.00 | 75 | 1015.3 |
| 20260510160716 | 26 | 360 | 14.5 | 24.1 | 0.00 | 0.00 | 0.00 | 75 | 1015.3 |
| 20260510160617 | 26 | 360 | 16.1 | 24.1 | 0.00 | 0.00 | 0.00 | 75 | 1015.3 |
| 20260510160518 | 26 | 360 | 14.5 | 24.1 | 0.00 | 0.00 | 0.00 | 75 | 1015.3 |
| 20260510160419 | 26 | 360 | 16.1 | 24.1 | 0.00 | 0.00 | 0.00 | 75 | 1015.3 |
| 20260510160324 | 26 | 360 | 16.1 | 25.7 | 0.00 | 0.00 | 0.00 | 74 | 1015.3 |
| 20260510160223 | 26 | 360 | 14.5 | 25.7 | 0.00 | 0.00 | 0.00 | 75 | 1015.3 |
| 20260510160124 | 26 | 360 | 14.5 | 25.7 | 0.00 | 0.00 | 0.00 | 75 | 1015.3 |
| 20260510160025 | 26 | 360 | 14.5 | 25.7 | 0.00 | 0.00 | 0.00 | 75 | 1015.3 |
| 20260510155925 | 26 | 360 | 14.5 | 25.7 | 0.00 | 0.00 | 0.00 | 75 | 1015.3 |
| 20260510155826 | 26 | 360 | 16.1 | 25.7 | 0.00 | 0.00 | 0.00 | 75 | 1015.4 |
| 20260510155732 | 26 | 360 | 16.1 | 25.7 | 0.00 | 0.00 | 0.00 | 74 | 1015.4 |
| 20260510155632 | 26 | 360 | 17.7 | 25.7 | 0.00 | 0.00 | 0.00 | 75 | 1015.3 |
| 20260510155533 | 26 | 360 | 19.3 | 25.7 | 0.00 | 0.00 | 0.00 | 75 | 1015.3 |
| 20260510155434 | 26 | 360 | 17.7 | 25.7 | 0.00 | 0.00 | 0.00 | 75 | 1015.3 |
| 20260510155333 | 26 | 360 | 17.7 | 25.7 | 0.00 | 0.00 | 0.00 | 75 | 1015.3 |
| 20260510155254 | 26 | 360 | 17.7 | 25.7 | 0.00 | 0.00 | 0.00 | 75 | 1015.3 |
| 20260510155134 | 26 | 360 | 16.1 | 25.7 | 0.00 | 0.00 | 0.00 | 74 | 1015.3 |
| 20260510155018 | 26 | 360 | 14.5 | 25.7 | 0.00 | 0.00 | 0.00 | 74 | 1015.3 |
| 20260510154917 | 26 | 360 | 14.5 | 25.7 | 0.00 | 0.00 | 0.00 | 73 | 1015.3 |
| 20260510154817 | 26 | 360 | 12.9 | 25.7 | 0.00 | 0.00 | 0.00 | 74 | 1015.2 |
| 20260510154718 | 26 | 360 | 12.9 | 25.7 | 0.00 | 0.00 | 0.00 | 74 | 1015.3 |
| 20260510154618 | 26 | 360 | 12.9 | 25.7 | 0.00 | 0.00 | 0.00 | 74 | 1015.4 |
| 20260510154519 | 26 | 360 | 12.9 | 25.7 | 0.00 | 0.00 | 0.00 | 74 | 1015.3 |
| 20260510154419 | 26 | 360 | 12.9 | 25.7 | 0.00 | 0.00 | 0.00 | 75 | 1015.2 |
| 20260510154323 | 26 | 360 | 11.3 | 25.7 | 0.00 | 0.00 | 0.00 | 74 | 1015.3 |
| 20260510154243 | 26 | 360 | 11.3 | 25.7 | 0.00 | 0.00 | 0.00 | 74 | 1015.3 |
| 20260510154123 | 26 | 360 | 12.9 | 25.7 | 0.00 | 0.00 | 0.00 | 75 | 1015.3 |
| 20260510154044 | 26 | 360 | 12.9 | 25.7 | 0.00 | 0.00 | 0.00 | 74 | 1015.2 |
| 20260510153922 | 26 | 360 | 14.5 | 25.7 | 0.00 | 0.00 | 0.00 | 74 | 1015.3 |
| 20260510153824 | 26 | 360 | 14.5 | 25.7 | 0.00 | 0.00 | 0.00 | 74 | 1015.2 |
| 20260510153723 | 26 | 360 | 16.1 | 25.7 | 0.00 | 0.00 | 0.00 | 74 | 1015.2 |
| 20260510153628 | 26 | 360 | 14.5 | 25.7 | 0.00 | 0.00 | 0.00 | 75 | 1015.2 |
| 20260510153548 | 26 | 360 | 12.9 | 25.7 | 0.00 | 0.00 | 0.00 | 75 | 1015.2 |
| 20260510153448 | 26 | 360 | 12.9 | 24.1 | 0.00 | 0.00 | 0.00 | 75 | 1015.3 |
| 20260510153328 | 26 | 360 | 12.9 | 24.1 | 0.00 | 0.00 | 0.00 | 74 | 1015.3 |
| 20260510153228 | 26 | 360 | 12.9 | 24.1 | 0.00 | 0.00 | 0.00 | 75 | 1015.2 |
| 20260510153128 | 26 | 360 | 12.9 | 24.1 | 0.00 | 0.00 | 0.00 | 75 | 1015.2 |
| 20260510153028 | 26 | 360 | 14.5 | 24.1 | 0.00 | 0.00 | 0.00 | 75 | 1015.2 |
| 20260510152930 | 26 | 360 | 12.9 | 24.1 | 0.00 | 0.00 | 0.00 | 76 | 1015.2 |
| 20260510152854 | 26 | 360 | 14.5 | 24.1 | 0.00 | 0.00 | 0.00 | 76 | 1015.2 |
| 20260510152735 | 26 | 360 | 14.5 | 24.1 | 0.00 | 0.00 | 0.00 | 75 | 1015.2 |
| 20260510152633 | 26 | 360 | 14.5 | 22.5 | 0.00 | 0.00 | 0.00 | 75 | 1015.2 |
| 20260510152534 | 26 | 360 | 14.5 | 20.9 | 0.00 | 0.00 | 0.00 | 75 | 1015.2 |
| 20260510152435 | 26 | 360 | 14.5 | 20.9 | 0.00 | 0.00 | 0.00 | 74 | 1015.2 |
| 20260510152316 | 26 | 360 | 12.9 | 20.9 | 0.00 | 0.00 | 0.00 | 74 | 1015.3 |
| 20260510152220 | 26 | 360 | 12.9 | 19.3 | 0.00 | 0.00 | 0.00 | 74 | 1015.3 |
| 20260510152120 | 26 | 360 | 11.3 | 17.7 | 0.00 | 0.00 | 0.00 | 74 | 1015.3 |
| 20260510152021 | 26 | 360 | 9.7 | 17.7 | 0.00 | 0.00 | 0.00 | 74 | 1015.3 |
| 20260510151921 | 26 | 360 | 9.7 | 17.7 | 0.00 | 0.00 | 0.00 | 75 | 1015.3 |
| 20260510151821 | 26 | 360 | 9.7 | 17.7 | 0.00 | 0.00 | 0.00 | 75 | 1015.2 |
| 20260510151743 | 26 | 360 | 9.7 | 17.7 | 0.00 | 0.00 | 0.00 | 75 | 1015.3 |
| 20260510151642 | 26 | 360 | 9.7 | 22.5 | 0.00 | 0.00 | 0.00 | 76 | 1015.3 |
| 20260510151522 | 26 | 360 | 9.7 | 22.5 | 0.00 | 0.00 | 0.00 | 75 | 1015.2 |
| 20260510151447 | 26 | 360 | 11.3 | 22.5 | 0.00 | 0.00 | 0.00 | 75 | 1015.3 |
| 20260510151326 | 26 | 360 | 11.3 | 22.5 | 0.00 | 0.00 | 0.00 | 75 | 1015.3 |
| 20260510151226 | 26 | 360 | 11.3 | 22.5 | 0.00 | 0.00 | 0.00 | 75 | 1015.3 |
| 20260510151147 | 25 | 360 | 12.9 | 22.5 | 0.00 | 0.00 | 0.00 | 75 | 1015.2 |
| 20260510151026 | 25 | 360 | 12.9 | 22.5 | 0.00 | 0.00 | 0.00 | 76 | 1015.2 |
| 20260510150926 | 25 | 360 | 12.9 | 22.5 | 0.00 | 0.00 | 0.00 | 75 | 1015.6 |
| 20260510150827 | 25 | 360 | 12.9 | 22.5 | 0.00 | 0.00 | 0.00 | 75 | 1015.6 |
| 20260510150732 | 26 | 360 | 12.9 | 22.5 | 0.00 | 0.00 | 0.00 | 76 | 1015.3 |
| 20260510150631 | 26 | 360 | 11.3 | 22.5 | 0.00 | 0.00 | 0.00 | 76 | 1015.3 |
| 20260510150532 | 26 | 360 | 9.7 | 19.3 | 0.00 | 0.00 | 0.00 | 76 | 1015.3 |
| 20260510150452 | 25 | 360 | 9.7 | 20.9 | 0.00 | 0.00 | 0.00 | 76 | 1015.2 |
| 20260510150332 | 25 | 360 | 9.7 | 20.9 | 0.00 | 0.00 | 0.00 | 76 | 1015.3 |
| 20260510150231 | 25 | 360 | 9.7 | 20.9 | 0.00 | 0.00 | 0.00 | 76 | 1015.3 |
| 20260510150131 | 25 | 360 | 9.7 | 20.9 | 0.00 | 0.00 | 0.00 | 76 | 1015.2 |
| 20260510150016 | 25 | 360 | 11.3 | 20.9 | 0.00 | 0.00 | 0.00 | 76 | 1015.2 |
| 20260510145918 | 25 | 360 | 11.3 | 20.9 | 0.00 | 0.00 | 0.00 | 76 | 1015.2 |
| 20260510145819 | 25 | 360 | 11.3 | 20.9 | 0.00 | 0.00 | 0.00 | 76 | 1015.1 |
| 20260510145739 | 25 | 360 | 9.7 | 20.9 | 0.00 | 0.00 | 0.00 | 76 | 1015.2 |
| 20260510145619 | 25 | 360 | 9.7 | 19.3 | 0.00 | 0.00 | 0.00 | 76 | 1015.1 |
| 20260510145519 | 25 | 360 | 9.7 | 17.7 | 0.00 | 0.00 | 0.00 | 76 | 1015.2 |
| 20260510145419 | 25 | 360 | 9.7 | 17.7 | 0.00 | 0.00 | 0.00 | 76 | 1015.1 |
| 20260510145320 | 25 | 360 | 9.7 | 17.7 | 0.00 | 0.00 | 0.00 | 77 | 1015.1 |
| 20260510145225 | 25 | 360 | 9.7 | 25.7 | 0.00 | 0.00 | 0.00 | 77 | 1015.0 |
| 20260510145126 | 25 | 360 | 9.7 | 25.7 | 0.00 | 0.00 | 0.00 | 77 | 1015.1 |
| 20260510145025 | 25 | 360 | 8.0 | 25.7 | 0.00 | 0.00 | 0.00 | 77 | 1015.1 |
| 20260510144947 | 25 | 360 | 8.0 | 25.7 | 0.00 | 0.00 | 0.00 | 77 | 1015.1 |
| 20260510144825 | 25 | 360 | 9.7 | 25.7 | 0.00 | 0.00 | 0.00 | 77 | 1015.1 |
| 20260510144726 | 25 | 360 | 9.7 | 25.7 | 0.00 | 0.00 | 0.00 | 77 | 1015.1 |
| 20260510144627 | 25 | 360 | 11.3 | 25.7 | 0.00 | 0.00 | 0.00 | 78 | 1015.1 |
| 20260510144550 | 25 | 360 | 12.9 | 25.7 | 0.00 | 0.00 | 0.00 | 78 | 1015.0 |
| 20260510144430 | 25 | 360 | 12.9 | 25.7 | 0.00 | 0.00 | 0.00 | 78 | 1015.0 |
| 20260510144331 | 25 | 360 | 11.3 | 22.5 | 0.00 | 0.00 | 0.00 | 78 | 1015.0 |
| 20260510144252 | 25 | 360 | 11.3 | 20.9 | 0.00 | 0.00 | 0.00 | 78 | 1015.0 |
| 20260510144131 | 25 | 360 | 9.7 | 17.7 | 0.00 | 0.00 | 0.00 | 78 | 1015.0 |
| 20260510144032 | 25 | 360 | 9.7 | 17.7 | 0.00 | 0.00 | 0.00 | 78 | 1015.0 |
| 20260510143932 | 25 | 360 | 8.0 | 16.1 | 0.00 | 0.00 | 0.00 | 79 | 1014.9 |
| 20260510143817 | 24 | 360 | 11.3 | 16.1 | 0.00 | 0.00 | 0.00 | 79 | 1014.9 |
| 20260510143716 | 24 | 360 | 11.3 | 16.1 | 0.00 | 0.00 | 0.00 | 78 | 1015.0 |
| 20260510143617 | 24 | 360 | 11.3 | 19.3 | 0.00 | 0.00 | 0.00 | 78 | 1015.0 |
| 20260510143538 | 24 | 360 | 11.3 | 19.3 | 0.00 | 0.00 | 0.00 | 78 | 1014.9 |
| 20260510143417 | 24 | 360 | 8.0 | 19.3 | 0.00 | 0.00 | 0.00 | 79 | 1015.0 |
| 20260510143318 | 24 | 360 | 8.0 | 19.3 | 0.00 | 0.00 | 0.00 | 78 | 1014.9 |
| 20260510143238 | 24 | 360 | 8.0 | 19.3 | 0.00 | 0.00 | 0.00 | 78 | 1014.8 |
| 20260510143121 | 24 | 360 | 8.0 | 19.3 | 0.00 | 0.00 | 0.00 | 78 | 1014.8 |
| 20260510143023 | 24 | 360 | 8.0 | 19.3 | 0.00 | 0.00 | 0.00 | 78 | 1014.9 |
| 20260510142923 | 24 | 360 | 9.7 | 19.3 | 0.00 | 0.00 | 0.00 | 79 | 1014.9 |
| 20260510142824 | 24 | 360 | 8.0 | 19.3 | 0.00 | 0.00 | 0.00 | 79 | 1014.8 |
| 20260510142725 | 24 | 360 | 8.0 | 17.7 | 0.00 | 0.00 | 0.00 | 80 | 1014.7 |
| 20260510142644 | 24 | 360 | 6.4 | 17.7 | 0.00 | 0.00 | 0.00 | 80 | 1014.8 |
| 20260510142524 | 24 | 360 | 6.4 | 17.7 | 0.00 | 0.00 | 0.00 | 80 | 1014.8 |
| 20260510142429 | 24 | 360 | 8.0 | 17.7 | 0.00 | 0.00 | 0.00 | 80 | 1014.8 |
| 20260510142330 | 23 | 360 | 9.7 | 17.7 | 0.00 | 0.00 | 0.00 | 80 | 1014.8 |
| 20260510142230 | 23 | 360 | 9.7 | 17.7 | 0.00 | 0.00 | 0.00 | 79 | 1014.8 |
| 20260510142130 | 24 | 360 | 9.7 | 17.7 | 0.00 | 0.00 | 0.00 | 79 | 1014.7 |
| 20260510142051 | 24 | 360 | 8.0 | 17.7 | 0.00 | 0.00 | 0.00 | 79 | 1014.8 |
| 20260510141931 | 24 | 360 | 6.4 | 14.5 | 0.00 | 0.00 | 0.00 | 79 | 1014.7 |
| 20260510141832 | 24 | 360 | 4.8 | 14.5 | 0.00 | 0.00 | 0.00 | 79 | 1014.8 |
| 20260510141735 | 24 | 360 | 4.8 | 14.5 | 0.00 | 0.00 | 0.00 | 80 | 1014.8 |
| 20260510141616 | 24 | 360 | 4.8 | 16.1 | 0.00 | 0.00 | 0.00 | 80 | 1014.7 |
| 20260510141517 | 23 | 360 | 6.4 | 19.3 | 0.00 | 0.00 | 0.00 | 80 | 1014.8 |
| 20260510141416 | 23 | 360 | 6.4 | 19.3 | 0.00 | 0.00 | 0.00 | 80 | 1014.7 |
| 20260510141318 | 23 | 360 | 8.0 | 19.3 | 0.00 | 0.00 | 0.00 | 81 | 1014.7 |
| 20260510141218 | 23 | 360 | 9.7 | 19.3 | 0.00 | 0.00 | 0.00 | 81 | 1014.6 |
| 20260510141123 | 23 | 360 | 9.7 | 19.3 | 0.00 | 0.00 | 0.00 | 81 | 1014.5 |
| 20260510141024 | 23 | 360 | 9.7 | 19.3 | 0.00 | 0.00 | 0.00 | 81 | 1014.6 |
| 20260510140925 | 23 | 360 | 9.7 | 19.3 | 0.00 | 0.00 | 0.00 | 81 | 1014.6 |
| 20260510140825 | 23 | 360 | 9.7 | 19.3 | 0.00 | 0.00 | 0.00 | 80 | 1014.6 |
| 20260510140747 | 23 | 360 | 9.7 | 19.3 | 0.00 | 0.00 | 0.00 | 80 | 1014.6 |
| 20260510140645 | 23 | 360 | 8.0 | 19.3 | 0.00 | 0.00 | 0.00 | 80 | 1014.6 |
| 20260510140525 | 23 | 360 | 8.0 | 19.3 | 0.00 | 0.00 | 0.00 | 80 | 1014.5 |
| 20260510140426 | 23 | 360 | 8.0 | 19.3 | 0.00 | 0.00 | 0.00 | 80 | 1014.6 |
| 20260510140330 | 23 | 360 | 8.0 | 19.3 | 0.00 | 0.00 | 0.00 | 80 | 1014.6 |
| 20260510140230 | 23 | 360 | 8.0 | 14.5 | 0.00 | 0.00 | 0.00 | 81 | 1014.6 |
| 20260510140131 | 23 | 360 | 8.0 | 14.5 | 0.00 | 0.00 | 0.00 | 81 | 1014.6 |
| 20260510140032 | 23 | 360 | 8.0 | 14.5 | 0.00 | 0.00 | 0.00 | 81 | 1014.7 |
| 20260510135933 | 23 | 360 | 8.0 | 19.3 | 0.00 | 0.00 | 0.00 | 81 | 1014.7 |
| 20260510135834 | 23 | 360 | 8.0 | 19.3 | 0.00 | 0.00 | 0.00 | 81 | 1014.7 |
| 20260510135717 | 23 | 360 | 8.0 | 19.3 | 0.00 | 0.00 | 0.00 | 81 | 1014.5 |
| 20260510135618 | 23 | 360 | 8.0 | 19.3 | 0.00 | 0.00 | 0.00 | 82 | 1014.7 |
| 20260510135518 | 23 | 360 | 8.0 | 19.3 | 0.00 | 0.00 | 0.00 | 82 | 1014.6 |
| 20260510135418 | 23 | 360 | 8.0 | 19.3 | 0.00 | 0.00 | 0.00 | 82 | 1014.5 |
| 20260510135318 | 23 | 360 | 9.7 | 19.3 | 0.00 | 0.00 | 0.00 | 82 | 1014.6 |
| 20260510135219 | 23 | 360 | 9.7 | 19.3 | 0.00 | 0.00 | 0.00 | 82 | 1014.5 |
| 20260510135119 | 23 | 360 | 8.0 | 17.7 | 0.00 | 0.00 | 0.00 | 82 | 1014.4 |
| 20260510135023 | 23 | 360 | 9.7 | 17.7 | 0.00 | 0.00 | 0.00 | 82 | 1014.4 |
| 20260510134923 | 23 | 360 | 9.7 | 17.7 | 0.00 | 0.00 | 0.00 | 82 | 1014.4 |
| 20260510134824 | 23 | 360 | 8.0 | 17.7 | 0.00 | 0.00 | 0.00 | 82 | 1014.4 |
| 20260510134724 | 23 | 360 | 8.0 | 16.1 | 0.00 | 0.00 | 0.00 | 82 | 1014.4 |
| 20260510134645 | 23 | 360 | 8.0 | 16.1 | 0.00 | 0.00 | 0.00 | 82 | 1014.4 |
| 20260510134524 | 23 | 360 | 8.0 | 14.5 | 0.00 | 0.00 | 0.00 | 82 | 1014.4 |
| 20260510134425 | 23 | 360 | 8.0 | 14.5 | 0.00 | 0.00 | 0.00 | 82 | 1014.4 |
| 20260510134330 | 23 | 360 | 8.0 | 14.5 | 0.00 | 0.00 | 0.00 | 82 | 1014.4 |
| 20260510134250 | 23 | 360 | 6.4 | 12.9 | 0.00 | 0.00 | 0.00 | 82 | 1014.5 |
| 20260510134150 | 23 | 360 | 6.4 | 12.9 | 0.00 | 0.00 | 0.00 | 82 | 1014.4 |
| 20260510134028 | 22 | 360 | 6.4 | 12.9 | 0.00 | 0.00 | 0.00 | 83 | 1014.4 |
| 20260510133929 | 22 | 360 | 6.4 | 12.9 | 0.00 | 0.00 | 0.00 | 83 | 1014.4 |
| 20260510133830 | 22 | 360 | 6.4 | 12.9 | 0.00 | 0.00 | 0.00 | 83 | 1014.4 |
| 20260510133730 | 22 | 360 | 6.4 | 9.7 | 0.00 | 0.00 | 0.00 | 83 | 1014.3 |
| 20260510133634 | 22 | 360 | 6.4 | 17.7 | 0.00 | 0.00 | 0.00 | 83 | 1014.4 |
| 20260510133535 | 22 | 360 | 4.8 | 17.7 | 0.00 | 0.00 | 0.00 | 83 | 1014.4 |
| 20260510133435 | 22 | 360 | 4.8 | 17.7 | 0.00 | 0.00 | 0.00 | 83 | 1014.4 |
| 20260510133335 | 22 | 360 | 6.4 | 17.7 | 0.00 | 0.00 | 0.00 | 83 | 1014.3 |
| 20260510133255 | 22 | 360 | 6.4 | 17.7 | 0.00 | 0.00 | 0.00 | 84 | 1014.3 |
| 20260510133135 | 22 | 360 | 6.4 | 17.7 | 0.00 | 0.00 | 0.00 | 84 | 1014.2 |
| 20260510133035 | 22 | 360 | 6.4 | 17.7 | 0.00 | 0.00 | 0.00 | 85 | 1014.2 |
| 20260510132918 | 22 | 360 | 8.0 | 17.7 | 0.00 | 0.00 | 0.00 | 84 | 1014.1 |
| 20260510132819 | 22 | 360 | 8.0 | 17.7 | 0.00 | 0.00 | 0.00 | 84 | 1014.0 |
| 20260510132719 | 22 | 360 | 8.0 | 17.7 | 0.00 | 0.00 | 0.00 | 84 | 1014.0 |
| 20260510132618 | 22 | 360 | 9.7 | 17.7 | 0.00 | 0.00 | 0.00 | 85 | 1014.0 |
| 20260510132518 | 22 | 360 | 11.3 | 17.7 | 0.00 | 0.00 | 0.00 | 84 | 1014.0 |
| 20260510132418 | 22 | 360 | 9.7 | 17.7 | 0.00 | 0.00 | 0.00 | 84 | 1013.9 |
| 20260510132318 | 22 | 360 | 9.7 | 16.1 | 0.00 | 0.00 | 0.00 | 85 | 1013.9 |
| 20260510132219 | 22 | 360 | 9.7 | 16.1 | 0.00 | 0.00 | 0.00 | 84 | 1013.9 |
| 20260510132123 | 22 | 360 | 9.7 | 16.1 | 0.00 | 0.00 | 0.00 | 84 | 1014.0 |
| 20260510132024 | 22 | 360 | 8.0 | 16.1 | 0.00 | 0.00 | 0.00 | 84 | 1013.9 |
| 20260510131924 | 22 | 360 | 8.0 | 16.1 | 0.00 | 0.00 | 0.00 | 84 | 1013.9 |
| 20260510131826 | 22 | 360 | 8.0 | 14.5 | 0.00 | 0.00 | 0.00 | 84 | 1013.9 |
| 20260510131726 | 22 | 360 | 6.4 | 14.5 | 0.00 | 0.00 | 0.00 | 84 | 1013.9 |
| 20260510131628 | 22 | 360 | 6.4 | 14.5 | 0.00 | 0.00 | 0.00 | 85 | 1014.1 |
| 20260510131527 | 22 | 360 | 6.4 | 14.5 | 0.00 | 0.00 | 0.00 | 85 | 1014.0 |
| 20260510131432 | 21 | 360 | 8.0 | 14.5 | 0.00 | 0.00 | 0.00 | 85 | 1014.0 |
| 20260510131328 | 21 | 360 | 8.0 | 14.5 | 0.00 | 0.00 | 0.00 | 85 | 1013.9 |
| 20260510131228 | 21 | 360 | 8.0 | 14.5 | 0.00 | 0.00 | 0.00 | 85 | 1013.9 |
| 20260510131128 | 21 | 360 | 9.7 | 14.5 | 0.00 | 0.00 | 0.00 | 85 | 1013.9 |
| 20260510131029 | 21 | 360 | 9.7 | 14.5 | 0.00 | 0.00 | 0.00 | 85 | 1013.8 |
| 20260510130930 | 21 | 360 | 8.0 | 12.9 | 0.00 | 0.00 | 0.00 | 85 | 1013.7 |
| 20260510130834 | 21 | 360 | 8.0 | 12.9 | 0.00 | 0.00 | 0.00 | 85 | 1013.7 |
| 20260510130734 | 21 | 360 | 8.0 | 12.9 | 0.00 | 0.00 | 0.00 | 85 | 1013.7 |
| 20260510130634 | 21 | 360 | 6.4 | 12.9 | 0.00 | 0.00 | 0.00 | 85 | 1013.7 |
| 20260510130515 | 21 | 360 | 6.4 | 12.9 | 0.00 | 0.00 | 0.00 | 85 | 1013.5 |
| 20260510130435 | 21 | 360 | 6.4 | 12.9 | 0.00 | 0.00 | 0.00 | 85 | 1013.5 |
| 20260510130316 | 21 | 360 | 4.8 | 12.9 | 0.00 | 0.00 | 0.00 | 86 | 1013.4 |
| 20260510130220 | 21 | 360 | 4.8 | 12.9 | 0.00 | 0.00 | 0.00 | 86 | 1013.4 |
| 20260510130120 | 21 | 360 | 4.8 | 12.9 | 0.00 | 0.00 | 0.00 | 86 | 1013.4 |
| 20260510130043 | 21 | 360 | 4.8 | 12.9 | 0.00 | 0.00 | 0.00 | 86 | 1013.4 |
| 20260510125916 | 21 | 360 | 4.8 | 12.9 | 0.00 | 0.00 | 0.00 | 86 | 1013.3 |
| 20260510125838 | 21 | 360 | 4.8 | 12.9 | 0.00 | 0.00 | 0.00 | 86 | 1013.2 |
| 20260510125719 | 21 | 360 | 4.8 | 12.9 | 0.00 | 0.00 | 0.00 | 86 | 1013.2 |
| 20260510125638 | 21 | 360 | 4.8 | 12.9 | 0.00 | 0.00 | 0.00 | 86 | 1013.2 |
| 20260510125517 | 21 | 360 | 4.8 | 12.9 | 0.00 | 0.00 | 0.00 | 86 | 1013.3 |
| 20260510125422 | 21 | 360 | 4.8 | 12.9 | 0.00 | 0.00 | 0.00 | 86 | 1013.2 |
| 20260510125323 | 21 | 360 | 4.8 | 6.4 | 0.00 | 0.00 | 0.00 | 86 | 1013.2 |
| 20260510125223 | 21 | 360 | 4.8 | 6.4 | 0.00 | 0.00 | 0.00 | 86 | 1013.3 |
| 20260510125124 | 21 | 360 | 4.8 | 6.4 | 0.00 | 0.00 | 0.00 | 86 | 1013.2 |
| 20260510125026 | 21 | 360 | 4.8 | 6.4 | 0.00 | 0.00 | 0.00 | 86 | 1013.2 |
| 20260510124926 | 21 | 360 | 4.8 | 6.4 | 0.00 | 0.00 | 0.00 | 86 | 1013.2 |
| 20260510124830 | 21 | 360 | 4.8 | 6.4 | 0.00 | 0.00 | 0.00 | 86 | 1013.2 |
| 20260510124731 | 21 | 360 | 4.8 | 6.4 | 0.00 | 0.00 | 0.00 | 86 | 1013.2 |
| 20260510124631 | 21 | 360 | 4.8 | 6.4 | 0.00 | 0.00 | 0.00 | 86 | 1013.3 |
| 20260510124532 | 21 | 360 | 3.2 | 6.4 | 0.00 | 0.00 | 0.00 | 86 | 1013.3 |
| 20260510124433 | 21 | 360 | 3.2 | 6.4 | 0.00 | 0.00 | 0.00 | 87 | 1013.2 |
| 20260510124334 | 21 | 360 | 3.2 | 6.4 | 0.00 | 0.00 | 0.00 | 87 | 1013.2 |
| 20260510124218 | 21 | 360 | 3.2 | 6.4 | 0.00 | 0.00 | 0.00 | 87 | 1013.2 |
| 20260510124120 | 21 | 360 | 3.2 | 6.4 | 0.00 | 0.00 | 0.00 | 87 | 1013.2 |
| 20260510124020 | 21 | 360 | 3.2 | 4.8 | 0.00 | 0.00 | 0.00 | 87 | 1013.3 |
| 20260510123921 | 21 | 360 | 1.6 | 4.8 | 0.00 | 0.00 | 0.00 | 87 | 1013.3 |
| 20260510123821 | 21 | 360 | 1.6 | 6.4 | 0.00 | 0.00 | 0.00 | 87 | 1013.3 |
| 20260510123722 | 21 | 360 | 1.6 | 6.4 | 0.00 | 0.00 | 0.00 | 87 | 1013.3 |
| 20260510123622 | 21 | 360 | 3.2 | 6.4 | 0.00 | 0.00 | 0.00 | 87 | 1013.4 |
| 20260510123528 | 21 | 360 | 3.2 | 6.4 | 0.00 | 0.00 | 0.00 | 87 | 1013.4 |
| 20260510123448 | 21 | 360 | 3.2 | 6.4 | 0.00 | 0.00 | 0.00 | 87 | 1013.3 |
| 20260510123328 | 21 | 360 | 3.2 | 6.4 | 0.00 | 0.00 | 0.00 | 88 | 1013.3 |
| 20260510123228 | 21 | 360 | 3.2 | 6.4 | 0.00 | 0.00 | 0.00 | 88 | 1013.4 |
| 20260510123127 | 21 | 360 | 3.2 | 6.4 | 0.00 | 0.00 | 0.00 | 88 | 1013.3 |
| 20260510123026 | 21 | 360 | 1.6 | 4.8 | 0.00 | 0.00 | 0.00 | 88 | 1013.3 |
| 20260510122927 | 21 | 360 | 1.6 | 4.8 | 0.00 | 0.00 | 0.00 | 88 | 1013.3 |
| 20260510122828 | 21 | 360 | 1.6 | 4.8 | 0.00 | 0.00 | 0.00 | 88 | 1013.2 |
| 20260510122733 | 20 | 360 | 1.6 | 4.8 | 0.00 | 0.00 | 0.00 | 88 | 1013.2 |
| 20260510122631 | 20 | 360 | 1.6 | 4.8 | 0.00 | 0.00 | 0.00 | 88 | 1013.1 |
| 20260510122531 | 20 | 360 | 3.2 | 4.8 | 0.00 | 0.00 | 0.00 | 88 | 1013.1 |
| 20260510122431 | 20 | 360 | 3.2 | 4.8 | 0.00 | 0.00 | 0.00 | 88 | 1013.0 |
| 20260510122332 | 20 | 360 | 1.6 | 4.8 | 0.00 | 0.00 | 0.00 | 88 | 1013.1 |
| 20260510122252 | 20 | 360 | 1.6 | 4.8 | 0.00 | 0.00 | 0.00 | 88 | 1013.0 |
| 20260510122132 | 20 | 360 | 1.6 | 6.4 | 0.00 | 0.00 | 0.00 | 88 | 1013.0 |
| 20260510122017 | 20 | 360 | 1.6 | 6.4 | 0.00 | 0.00 | 0.00 | 88 | 1013.0 |
| 20260510121938 | 20 | 360 | 1.6 | 6.4 | 0.00 | 0.00 | 0.00 | 88 | 1013.0 |
| 20260510121817 | 20 | 360 | 1.6 | 6.4 | 0.00 | 0.00 | 0.00 | 89 | 1013.1 |
| 20260510121718 | 20 | 360 | 1.6 | 6.4 | 0.00 | 0.00 | 0.00 | 88 | 1012.9 |
| 20260510121638 | 20 | 360 | 1.6 | 6.4 | 0.00 | 0.00 | 0.00 | 88 | 1012.9 |
| 20260510121518 | 20 | 360 | 1.6 | 6.4 | 0.00 | 0.00 | 0.00 | 88 | 1012.9 |
| 20260510121417 | 20 | 360 | 1.6 | 6.4 | 0.00 | 0.00 | 0.00 | 88 | 1012.9 |
| 20260510121321 | 20 | 360 | 1.6 | 6.4 | 0.00 | 0.00 | 0.00 | 88 | 1012.9 |
| 20260510121221 | 20 | 360 | 1.6 | 6.4 | 0.00 | 0.00 | 0.00 | 88 | 1012.8 |
| 20260510121121 | 20 | 360 | 1.6 | 6.4 | 0.00 | 0.00 | 0.00 | 88 | 1012.8 |
| 20260510121022 | 20 | 360 | 1.6 | 6.4 | 0.00 | 0.00 | 0.00 | 88 | 1012.7 |
| 20260510120944 | 20 | 360 | 1.6 | 4.8 | 0.00 | 0.00 | 0.00 | 88 | 1012.8 |
| 20260510120844 | 20 | 360 | 1.6 | 4.8 | 0.00 | 0.00 | 0.00 | 88 | 1012.7 |
| 20260510120723 | 20 | 360 | 1.6 | 4.8 | 0.00 | 0.00 | 0.00 | 88 | 1012.7 |
| 20260510120623 | 20 | 360 | 1.6 | 4.8 | 0.00 | 0.00 | 0.00 | 88 | 1012.7 |
| 20260510120528 | 20 | 360 | 1.6 | 4.8 | 0.00 | 0.00 | 0.00 | 88 | 1012.7 |
| 20260510120428 | 20 | 360 | 1.6 | 4.8 | 0.00 | 0.00 | 0.00 | 88 | 1012.7 |
| 20260510120329 | 20 | 360 | 1.6 | 4.8 | 0.00 | 0.00 | 0.00 | 88 | 1012.6 |
| 20260510120228 | 20 | 360 | 0.0 | 6.4 | 0.00 | 0.00 | 0.00 | 88 | 1012.6 |
| 20260510120129 | 20 | 360 | 0.0 | 6.4 | 0.00 | 0.00 | 0.00 | 88 | 1012.6 |
| 20260510120029 | 20 | 360 | 0.0 | 6.4 | 0.00 | 0.00 | 0.00 | 88 | 1012.6 |
| 20260510115950 | 20 | 360 | 0.0 | 6.4 | 0.00 | 0.00 | 0.00 | 88 | 1012.5 |
| 20260510115834 | 20 | 360 | 1.6 | 6.4 | 0.00 | 0.00 | 0.00 | 88 | 1012.6 |
| 20260510115735 | 20 | 360 | 1.6 | 6.4 | 0.00 | 0.00 | 0.00 | 88 | 1012.5 |
| 20260510115634 | 20 | 360 | 1.6 | 6.4 | 0.00 | 0.00 | 0.00 | 89 | 1012.5 |
| 20260510115534 | 20 | 360 | 3.2 | 6.4 | 0.00 | 0.00 | 0.00 | 89 | 1012.5 |
| 20260510115435 | 20 | 360 | 3.2 | 6.4 | 0.00 | 0.00 | 0.00 | 89 | 1012.5 |
| 20260510115335 | 20 | 360 | 3.2 | 6.4 | 0.00 | 0.00 | 0.00 | 89 | 1012.5 |
| 20260510115220 | 20 | 360 | 1.6 | 6.4 | 0.00 | 0.00 | 0.00 | 88 | 1012.6 |
| 20260510115121 | 20 | 360 | 1.6 | 6.4 | 0.00 | 0.00 | 0.00 | 88 | 1012.5 |
| 20260510115021 | 20 | 360 | 1.6 | 6.4 | 0.00 | 0.00 | 0.00 | 88 | 1012.5 |
| 20260510114922 | 20 | 360 | 1.6 | 6.4 | 0.00 | 0.00 | 0.00 | 88 | 1012.5 |
| 20260510114822 | 20 | 360 | 1.6 | 6.4 | 0.00 | 0.00 | 0.00 | 88 | 1012.5 |
| 20260510114722 | 20 | 360 | 1.6 | 6.4 | 0.00 | 0.00 | 0.00 | 88 | 1012.5 |
| 20260510114628 | 20 | 360 | 1.6 | 6.4 | 0.00 | 0.00 | 0.00 | 88 | 1012.5 |
| 20260510114547 | 20 | 360 | 1.6 | 6.4 | 0.00 | 0.00 | 0.00 | 88 | 1012.6 |
| 20260510114427 | 20 | 360 | 1.6 | 6.4 | 0.00 | 0.00 | 0.00 | 88 | 1012.6 |
| 20260510114328 | 20 | 360 | 1.6 | 4.8 | 0.00 | 0.00 | 0.00 | 88 | 1012.5 |
| 20260510114248 | 20 | 360 | 1.6 | 4.8 | 0.00 | 0.00 | 0.00 | 88 | 1012.5 |
| 20260510114127 | 20 | 360 | 1.6 | 4.8 | 0.00 | 0.00 | 0.00 | 88 | 1012.5 |
| 20260510114026 | 20 | 360 | 1.6 | 4.8 | 0.00 | 0.00 | 0.00 | 88 | 1012.6 |
| 20260510113926 | 20 | 360 | 1.6 | 4.8 | 0.00 | 0.00 | 0.00 | 88 | 1012.5 |
| 20260510113830 | 20 | 360 | 0.0 | 3.2 | 0.00 | 0.00 | 0.00 | 88 | 1012.5 |
| 20260510113731 | 20 | 360 | 0.0 | 8.0 | 0.00 | 0.00 | 0.00 | 88 | 1012.6 |
| 20260510113651 | 20 | 360 | 0.0 | 8.0 | 0.00 | 0.00 | 0.00 | 88 | 1012.6 |
| 20260510113531 | 20 | 360 | 0.0 | 8.0 | 0.00 | 0.00 | 0.00 | 88 | 1012.6 |
| 20260510113431 | 20 | 360 | 0.0 | 8.0 | 0.00 | 0.00 | 0.00 | 88 | 1012.6 |
| 20260510113332 | 20 | 360 | 0.0 | 8.0 | 0.00 | 0.00 | 0.00 | 88 | 1012.6 |
| 20260510113232 | 20 | 360 | 0.0 | 8.0 | 0.00 | 0.00 | 0.00 | 88 | 1012.6 |
| 20260510113117 | 20 | 360 | 1.6 | 8.0 | 0.00 | 0.00 | 0.00 | 88 | 1012.6 |
| 20260510113038 | 20 | 360 | 1.6 | 8.0 | 0.00 | 0.00 | 0.00 | 88 | 1012.6 |
| 20260510112938 | 20 | 360 | 1.6 | 8.0 | 0.00 | 0.00 | 0.00 | 88 | 1012.6 |
| 20260510112819 | 20 | 360 | 3.2 | 8.0 | 0.00 | 0.00 | 0.00 | 88 | 1012.6 |
| 20260510112718 | 20 | 360 | 3.2 | 8.0 | 0.00 | 0.00 | 0.00 | 88 | 1012.6 |
| 20260510112639 | 20 | 360 | 3.2 | 8.0 | 0.00 | 0.00 | 0.00 | 88 | 1012.6 |
| 20260510112518 | 20 | 360 | 3.2 | 8.0 | 0.00 | 0.00 | 0.00 | 88 | 1012.6 |
| 20260510112418 | 20 | 360 | 3.2 | 8.0 | 0.00 | 0.00 | 0.00 | 88 | 1012.6 |
| 20260510112322 | 20 | 360 | 3.2 | 8.0 | 0.00 | 0.00 | 0.00 | 88 | 1012.5 |
| 20260510112223 | 20 | 360 | 3.2 | 8.0 | 0.00 | 0.00 | 0.00 | 88 | 1012.5 |
| 20260510112142 | 20 | 360 | 3.2 | 12.9 | 0.00 | 0.00 | 0.00 | 88 | 1012.5 |
| 20260510112021 | 20 | 360 | 3.2 | 12.9 | 0.00 | 0.00 | 0.00 | 88 | 1012.5 |
| 20260510111921 | 20 | 360 | 3.2 | 14.5 | 0.00 | 0.00 | 0.00 | 88 | 1012.4 |
| 20260510111822 | 20 | 360 | 3.2 | 14.5 | 0.00 | 0.00 | 0.00 | 88 | 1012.4 |
| 20260510111743 | 20 | 360 | 3.2 | 14.5 | 0.00 | 0.00 | 0.00 | 88 | 1012.4 |
| 20260510111622 | 20 | 360 | 3.2 | 14.5 | 0.00 | 0.00 | 0.00 | 88 | 1012.4 |
| 20260510111527 | 20 | 360 | 4.8 | 14.5 | 0.00 | 0.00 | 0.00 | 88 | 1012.4 |
| 20260510111427 | 20 | 360 | 4.8 | 14.5 | 0.00 | 0.00 | 0.00 | 88 | 1012.4 |
| 20260510111328 | 20 | 360 | 6.4 | 14.5 | 0.00 | 0.00 | 0.00 | 88 | 1012.4 |
| 20260510111228 | 20 | 360 | 6.4 | 14.5 | 0.00 | 0.00 | 0.00 | 88 | 1012.4 |
| 20260510111129 | 20 | 360 | 6.4 | 14.5 | 0.00 | 0.00 | 0.00 | 88 | 1012.3 |
| 20260510111029 | 20 | 360 | 6.4 | 14.5 | 0.00 | 0.00 | 0.00 | 88 | 1012.3 |
| 20260510110930 | 20 | 360 | 6.4 | 14.5 | 0.00 | 0.00 | 0.00 | 88 | 1012.4 |
| 20260510110834 | 20 | 360 | 6.4 | 14.5 | 0.00 | 0.00 | 0.00 | 88 | 1012.3 |
| 20260510110735 | 20 | 360 | 4.8 | 14.5 | 0.00 | 0.00 | 0.00 | 88 | 1012.3 |
| 20260510110636 | 20 | 360 | 4.8 | 14.5 | 0.00 | 0.00 | 0.00 | 88 | 1012.4 |
| 20260510110535 | 20 | 360 | 4.8 | 14.5 | 0.00 | 0.00 | 0.00 | 88 | 1012.3 |
| 20260510110416 | 20 | 360 | 4.8 | 14.5 | 0.00 | 0.00 | 0.00 | 88 | 1012.4 |
| 20260510110334 | 20 | 360 | 3.2 | 14.5 | 0.00 | 0.00 | 0.00 | 88 | 1012.4 |
| 20260510110218 | 20 | 360 | 4.8 | 14.5 | 0.00 | 0.00 | 0.00 | 88 | 1012.4 |
| 20260510110139 | 20 | 360 | 3.2 | 14.5 | 0.00 | 0.00 | 0.00 | 88 | 1012.4 |
| 20260510110034 | 20 | 360 | 3.2 | 14.5 | 0.00 | 0.00 | 0.00 | 88 | 1012.3 |
| 20260510105935 | 20 | 360 | 4.8 | 14.5 | 0.00 | 0.00 | 0.00 | 88 | 1012.4 |
| 20260510105836 | 20 | 360 | 4.8 | 14.5 | 0.00 | 0.00 | 0.00 | 88 | 1012.3 |
| 20260510105758 | 20 | 360 | 4.8 | 14.5 | 0.00 | 0.00 | 0.00 | 88 | 1012.3 |
| 20260510105637 | 20 | 360 | 4.8 | 14.5 | 0.00 | 0.00 | 0.00 | 88 | 1012.3 |
| 20260510105516 | 20 | 360 | 4.8 | 14.5 | 0.00 | 0.00 | 0.00 | 88 | 1012.3 |
| 20260510105421 | 20 | 360 | 3.2 | 19.3 | 0.00 | 0.00 | 0.00 | 88 | 1012.3 |
| 20260510105322 | 20 | 360 | 3.2 | 19.3 | 0.00 | 0.00 | 0.00 | 88 | 1012.2 |
| 20260510105223 | 20 | 360 | 3.2 | 19.3 | 0.00 | 0.00 | 0.00 | 88 | 1012.2 |
| 20260510105123 | 20 | 360 | 3.2 | 19.3 | 0.00 | 0.00 | 0.00 | 88 | 1012.1 |
| 20260510105023 | 20 | 360 | 3.2 | 19.3 | 0.00 | 0.00 | 0.00 | 87 | 1012.2 |
| 20260510104923 | 20 | 360 | 4.8 | 19.3 | 0.00 | 0.00 | 0.00 | 87 | 1012.0 |
| 20260510104828 | 20 | 360 | 6.4 | 27.4 | 0.00 | 0.00 | 0.00 | 87 | 1012.0 |
| 20260510104729 | 20 | 360 | 6.4 | 27.4 | 0.00 | 0.00 | 0.00 | 87 | 1012.1 |
| 20260510104629 | 20 | 360 | 6.4 | 27.4 | 0.00 | 0.00 | 0.00 | 87 | 1012.1 |
| 20260510104529 | 20 | 360 | 4.8 | 27.4 | 0.00 | 0.00 | 0.00 | 87 | 1012.0 |
| 20260510104429 | 20 | 360 | 6.4 | 27.4 | 0.00 | 0.00 | 0.00 | 87 | 1012.0 |
| 20260510104330 | 20 | 360 | 6.4 | 27.4 | 0.00 | 0.00 | 0.00 | 87 | 1012.0 |
| 20260510104231 | 20 | 360 | 6.4 | 24.1 | 0.00 | 0.00 | 0.00 | 87 | 1011.9 |
| 20260510104135 | 20 | 360 | 8.0 | 24.1 | 0.00 | 0.00 | 0.00 | 87 | 1012.0 |
| 20260510104056 | 20 | 360 | 8.0 | 24.1 | 0.00 | 0.00 | 0.00 | 87 | 1011.9 |
| 20260510103935 | 20 | 360 | 8.0 | 20.9 | 0.00 | 0.00 | 0.00 | 87 | 1011.9 |
| 20260510103836 | 20 | 360 | 8.0 | 20.9 | 0.00 | 0.00 | 0.00 | 87 | 1011.9 |
| 20260510103757 | 20 | 360 | 6.4 | 20.9 | 0.00 | 0.00 | 0.00 | 87 | 1011.9 |
| 20260510103636 | 20 | 360 | 6.4 | 20.9 | 0.00 | 0.00 | 0.00 | 87 | 1011.9 |
| 20260510103516 | 20 | 360 | 8.0 | 20.9 | 0.00 | 0.00 | 0.00 | 87 | 1011.9 |
| 20260510103421 | 20 | 360 | 8.0 | 20.9 | 0.00 | 0.00 | 0.00 | 87 | 1011.9 |
| 20260510103322 | 20 | 360 | 9.7 | 20.9 | 0.00 | 0.00 | 0.00 | 87 | 1011.9 |
| 20260510103222 | 20 | 360 | 6.4 | 20.9 | 0.00 | 0.00 | 0.00 | 87 | 1011.9 |
| 20260510103141 | 20 | 360 | 6.4 | 20.9 | 0.00 | 0.00 | 0.00 | 87 | 1011.9 |
| 20260510103041 | 21 | 360 | 6.4 | 20.9 | 0.00 | 0.00 | 0.00 | 87 | 1011.9 |
| 20260510102921 | 21 | 360 | 4.8 | 22.5 | 0.00 | 0.00 | 0.00 | 87 | 1011.9 |
| 20260510102822 | 21 | 360 | 8.0 | 22.5 | 0.00 | 0.00 | 0.00 | 87 | 1012.0 |
| 20260510102725 | 21 | 360 | 9.7 | 22.5 | 0.00 | 0.00 | 0.00 | 87 | 1011.9 |
| 20260510102647 | 21 | 360 | 9.7 | 22.5 | 0.00 | 0.00 | 0.00 | 87 | 1011.9 |
| 20260510102527 | 21 | 360 | 9.7 | 22.5 | 0.00 | 0.00 | 0.00 | 87 | 1011.9 |
| 20260510102427 | 21 | 360 | 9.7 | 22.5 | 0.00 | 0.00 | 0.00 | 87 | 1012.0 |
| 20260510102328 | 21 | 360 | 9.7 | 22.5 | 0.00 | 0.00 | 0.00 | 87 | 1011.9 |
| 20260510102228 | 21 | 360 | 8.0 | 22.5 | 0.00 | 0.00 | 0.00 | 87 | 1012.0 |
| 20260510102125 | 21 | 360 | 6.4 | 17.7 | 0.00 | 0.00 | 0.00 | 87 | 1011.9 |
| 20260510102031 | 21 | 360 | 6.4 | 17.7 | 0.00 | 0.00 | 0.00 | 87 | 1011.9 |
| 20260510101931 | 21 | 360 | 4.8 | 16.1 | 0.00 | 0.00 | 0.00 | 87 | 1011.9 |
| 20260510101852 | 21 | 360 | 6.4 | 19.3 | 0.00 | 0.00 | 0.00 | 87 | 1011.9 |
| 20260510101731 | 21 | 360 | 6.4 | 19.3 | 0.00 | 0.00 | 0.00 | 87 | 1011.9 |
| 20260510101631 | 21 | 360 | 6.4 | 19.3 | 0.00 | 0.00 | 0.00 | 87 | 1011.9 |
| 20260510101532 | 21 | 360 | 6.4 | 19.3 | 0.00 | 0.00 | 0.00 | 87 | 1012.0 |
| 20260510101432 | 21 | 360 | 4.8 | 19.3 | 0.00 | 0.00 | 0.00 | 87 | 1012.0 |
| 20260510101317 | 21 | 360 | 6.4 | 24.1 | 0.00 | 0.00 | 0.00 | 87 | 1012.0 |
| 20260510101217 | 21 | 360 | 8.0 | 24.1 | 0.00 | 0.00 | 0.00 | 87 | 1011.9 |
| 20260510101118 | 21 | 360 | 8.0 | 24.1 | 0.00 | 0.00 | 0.00 | 87 | 1011.9 |
| 20260510101019 | 21 | 360 | 9.7 | 24.1 | 0.00 | 0.00 | 0.00 | 87 | 1011.9 |
| 20260510100939 | 21 | 360 | 8.0 | 24.1 | 0.00 | 0.00 | 0.00 | 87 | 1012.0 |
| 20260510100818 | 21 | 360 | 9.7 | 24.1 | 0.00 | 0.00 | 0.00 | 87 | 1011.9 |
| 20260510100720 | 21 | 360 | 9.7 | 25.7 | 0.00 | 0.00 | 0.00 | 87 | 1011.9 |
| 20260510100644 | 21 | 360 | 8.0 | 25.7 | 0.00 | 0.00 | 0.00 | 87 | 1011.9 |
| 20260510100544 | 21 | 360 | 9.7 | 25.7 | 0.00 | 0.00 | 0.00 | 87 | 1011.9 |
| 20260510100424 | 21 | 360 | 6.4 | 25.7 | 0.00 | 0.00 | 0.00 | 87 | 1011.9 |
| 20260510100325 | 21 | 360 | 8.0 | 25.7 | 0.00 | 0.00 | 0.00 | 87 | 1011.9 |
| 20260510100225 | 21 | 360 | 8.0 | 25.7 | 0.00 | 0.00 | 0.00 | 87 | 1011.9 |
| 20260510100126 | 21 | 360 | 8.0 | 25.7 | 0.00 | 0.00 | 0.00 | 87 | 1011.9 |
| 20260510100026 | 21 | 360 | 11.3 | 27.4 | 0.00 | 0.00 | 0.00 | 87 | 1011.8 |
| 20260510095931 | 21 | 360 | 11.3 | 27.4 | 0.00 | 0.00 | 0.00 | 87 | 1011.8 |
| 20260510095832 | 21 | 360 | 12.9 | 27.4 | 0.00 | 0.00 | 0.00 | 87 | 1011.9 |
| 20260510095754 | 21 | 360 | 12.9 | 27.4 | 0.00 | 0.00 | 0.00 | 87 | 1011.9 |
| 20260510095634 | 21 | 360 | 12.9 | 27.4 | 0.00 | 0.00 | 0.00 | 87 | 1011.8 |
| 20260510095536 | 21 | 360 | 11.3 | 27.4 | 0.00 | 0.00 | 0.00 | 87 | 1011.9 |
| 20260510095455 | 21 | 360 | 11.3 | 27.4 | 0.00 | 0.00 | 0.00 | 87 | 1011.9 |
| 20260510095335 | 21 | 360 | 9.7 | 24.1 | 0.00 | 0.00 | 0.00 | 87 | 1011.9 |
| 20260510095219 | 21 | 360 | 8.0 | 24.1 | 0.00 | 0.00 | 0.00 | 87 | 1011.8 |
| 20260510095120 | 21 | 360 | 9.7 | 19.3 | 0.00 | 0.00 | 0.00 | 87 | 1011.8 |
| 20260510095041 | 21 | 360 | 8.0 | 24.1 | 0.00 | 0.00 | 0.00 | 87 | 1011.9 |
| 20260510094921 | 21 | 360 | 8.0 | 24.1 | 0.00 | 0.00 | 0.00 | 87 | 1011.8 |
| 20260510094822 | 21 | 360 | 8.0 | 24.1 | 0.00 | 0.00 | 0.00 | 86 | 1011.8 |
| 20260510094722 | 21 | 360 | 8.0 | 24.1 | 0.00 | 0.00 | 0.00 | 87 | 1011.9 |
| 20260510094642 | 21 | 360 | 9.7 | 25.7 | 0.00 | 0.00 | 0.00 | 87 | 1011.8 |
| 20260510094521 | 21 | 360 | 9.7 | 25.7 | 0.00 | 0.00 | 0.00 | 87 | 1011.9 |
| 20260510094426 | 21 | 360 | 11.3 | 25.7 | 0.00 | 0.00 | 0.00 | 86 | 1011.8 |
| 20260510094326 | 21 | 360 | 9.7 | 25.7 | 0.00 | 0.00 | 0.00 | 86 | 1011.9 |
| 20260510094227 | 21 | 360 | 8.0 | 25.7 | 0.00 | 0.00 | 0.00 | 86 | 1011.9 |
| 20260510094147 | 21 | 360 | 8.0 | 25.7 | 0.00 | 0.00 | 0.00 | 86 | 1011.9 |
| 20260510094047 | 21 | 360 | 9.7 | 25.7 | 0.00 | 0.00 | 0.00 | 86 | 1011.9 |
| 20260510093927 | 21 | 360 | 9.7 | 25.7 | 0.00 | 0.00 | 0.00 | 86 | 1012.0 |
| 20260510093827 | 21 | 360 | 9.7 | 24.1 | 0.00 | 0.00 | 0.00 | 86 | 1012.0 |
| 20260510093731 | 21 | 360 | 11.3 | 24.1 | 0.00 | 0.00 | 0.00 | 86 | 1011.9 |
| 20260510093632 | 21 | 360 | 9.7 | 24.1 | 0.00 | 0.00 | 0.00 | 86 | 1012.0 |
| 20260510093533 | 21 | 360 | 11.3 | 24.1 | 0.00 | 0.00 | 0.00 | 86 | 1012.0 |
| 20260510093432 | 21 | 360 | 12.9 | 24.1 | 0.00 | 0.00 | 0.00 | 86 | 1011.9 |
| 20260510093333 | 21 | 360 | 12.9 | 24.1 | 0.00 | 0.00 | 0.00 | 86 | 1011.9 |
| 20260510093234 | 21 | 360 | 12.9 | 24.1 | 0.00 | 0.00 | 0.00 | 86 | 1011.8 |
| 20260510093119 | 21 | 360 | 11.3 | 24.1 | 0.00 | 0.00 | 0.00 | 86 | 1011.8 |
| 20260510093018 | 21 | 360 | 8.0 | 24.1 | 0.00 | 0.00 | 0.00 | 86 | 1011.9 |
| 20260510092919 | 21 | 360 | 8.0 | 24.1 | 0.00 | 0.00 | 0.00 | 86 | 1011.8 |
| 20260510092842 | 21 | 360 | 8.0 | 24.1 | 0.00 | 0.00 | 0.00 | 86 | 1011.8 |
| 20260510092721 | 21 | 360 | 9.7 | 24.1 | 0.00 | 0.00 | 0.00 | 86 | 1011.8 |
| 20260510092622 | 21 | 360 | 9.7 | 24.1 | 0.00 | 0.00 | 0.00 | 86 | 1011.7 |
| 20260510092522 | 21 | 360 | 11.3 | 24.1 | 0.00 | 0.00 | 0.00 | 86 | 1011.8 |
| 20260510092428 | 21 | 360 | 9.7 | 24.1 | 0.00 | 0.00 | 0.00 | 86 | 1011.8 |
| 20260510092327 | 21 | 360 | 9.7 | 24.1 | 0.00 | 0.00 | 0.00 | 86 | 1011.9 |
| 20260510092228 | 21 | 360 | 8.0 | 24.1 | 0.00 | 0.00 | 0.00 | 86 | 1011.9 |
| 20260510092129 | 21 | 360 | 8.0 | 24.1 | 0.00 | 0.00 | 0.00 | 86 | 1011.9 |
| 20260510092029 | 21 | 360 | 9.7 | 24.1 | 0.00 | 0.00 | 0.00 | 86 | 1011.9 |
| 20260510091930 | 21 | 360 | 9.7 | 24.1 | 0.00 | 0.00 | 0.00 | 85 | 1011.9 |
| 20260510091830 | 21 | 360 | 9.7 | 24.1 | 0.00 | 0.00 | 0.00 | 85 | 1011.9 |
| 20260510091751 | 21 | 360 | 9.7 | 24.1 | 0.00 | 0.00 | 0.00 | 86 | 1012.0 |
| 20260510091633 | 21 | 360 | 9.7 | 24.1 | 0.00 | 0.00 | 0.00 | 86 | 1011.9 |
| 20260510091534 | 21 | 360 | 9.7 | 24.1 | 0.00 | 0.00 | 0.00 | 86 | 1011.9 |
| 20260510091434 | 21 | 360 | 11.3 | 24.1 | 0.00 | 0.00 | 0.00 | 86 | 1011.9 |
| 20260510091335 | 21 | 360 | 11.3 | 24.1 | 0.00 | 0.00 | 0.00 | 85 | 1011.9 |
| 20260510091235 | 21 | 360 | 12.9 | 24.1 | 0.00 | 0.00 | 0.00 | 85 | 1011.9 |
| 20260510091155 | 21 | 360 | 12.9 | 24.1 | 0.00 | 0.00 | 0.00 | 85 | 1012.0 |
| 20260510091019 | 21 | 360 | 11.3 | 19.3 | 0.00 | 0.00 | 0.00 | 85 | 1011.9 |
| 20260510090920 | 21 | 360 | 9.7 | 16.1 | 0.00 | 0.00 | 0.00 | 85 | 1011.9 |
| 20260510090820 | 21 | 360 | 8.0 | 17.7 | 0.00 | 0.00 | 0.00 | 85 | 1011.9 |
| 20260510090722 | 21 | 360 | 8.0 | 17.7 | 0.00 | 0.00 | 0.00 | 85 | 1011.8 |
| 20260510090624 | 21 | 360 | 6.4 | 17.7 | 0.00 | 0.00 | 0.00 | 85 | 1012.0 |
| 20260510090524 | 21 | 360 | 4.8 | 17.7 | 0.00 | 0.00 | 0.00 | 85 | 1011.9 |
| 20260510090445 | 21 | 360 | 6.4 | 17.7 | 0.00 | 0.00 | 0.00 | 85 | 1011.9 |
| 20260510090328 | 21 | 360 | 6.4 | 17.7 | 0.00 | 0.00 | 0.00 | 85 | 1011.9 |
| 20260510090228 | 21 | 360 | 6.4 | 17.7 | 0.00 | 0.00 | 0.00 | 85 | 1011.9 |
| 20260510090129 | 21 | 360 | 8.0 | 17.7 | 0.00 | 0.00 | 0.00 | 85 | 1011.9 |
| 20260510090031 | 21 | 360 | 8.0 | 17.7 | 0.00 | 0.00 | 0.00 | 85 | 1011.8 |
| 20260510085932 | 21 | 360 | 8.0 | 17.7 | 0.00 | 0.00 | 0.00 | 85 | 1011.8 |
| 20260510085833 | 21 | 360 | 8.0 | 17.7 | 0.00 | 0.00 | 0.00 | 85 | 1011.8 |
| 20260510085717 | 21 | 360 | 4.8 | 12.9 | 0.00 | 0.03 | 0.00 | 85 | 1011.8 |
| 20260510085617 | 21 | 360 | 4.8 | 12.9 | 0.00 | 0.03 | 0.00 | 85 | 1011.9 |
| 20260510085518 | 21 | 360 | 4.8 | 12.9 | 0.00 | 0.03 | 0.00 | 85 | 1011.9 |
| 20260510085418 | 21 | 360 | 4.8 | 12.9 | 0.00 | 0.03 | 0.00 | 85 | 1012.0 |
| 20260510085339 | 21 | 360 | 4.8 | 12.9 | 0.00 | 0.03 | 0.00 | 85 | 1011.9 |
| 20260510085238 | 21 | 360 | 6.4 | 16.1 | 0.00 | 0.03 | 0.00 | 85 | 1011.9 |
| 20260510085138 | 21 | 360 | 4.8 | 16.1 | 0.00 | 0.03 | 0.00 | 85 | 1011.9 |
| 20260510085017 | 21 | 360 | 4.8 | 16.1 | 0.00 | 0.03 | 0.00 | 84 | 1011.9 |
| 20260510084922 | 21 | 360 | 4.8 | 16.1 | 0.00 | 0.03 | 0.00 | 84 | 1011.9 |
| 20260510084842 | 21 | 360 | 3.2 | 16.1 | 0.00 | 0.03 | 0.00 | 84 | 1011.9 |
| 20260510084743 | 21 | 360 | 3.2 | 16.1 | 0.00 | 0.03 | 0.00 | 84 | 1011.9 |
| 20260510084616 | 21 | 360 | 3.2 | 16.1 | 0.00 | 0.03 | 0.00 | 84 | 1011.9 |
| 20260510084517 | 21 | 360 | 4.8 | 16.1 | 0.00 | 0.03 | 0.00 | 84 | 1011.9 |
| 20260510084437 | 21 | 360 | 4.8 | 16.1 | 0.00 | 0.03 | 0.00 | 84 | 1011.9 |
| 20260510084337 | 21 | 360 | 6.4 | 16.1 | 0.00 | 0.03 | 0.00 | 84 | 1011.9 |
| 20260510084237 | 21 | 360 | 6.4 | 16.1 | 0.00 | 0.03 | 0.00 | 84 | 1011.9 |
| 20260510084116 | 21 | 360 | 6.4 | 16.1 | 0.00 | 0.03 | 0.00 | 84 | 1011.9 |
| 20260510084021 | 21 | 360 | 6.4 | 14.5 | 0.00 | 0.03 | 0.00 | 84 | 1012.0 |
| 20260510083920 | 21 | 360 | 6.4 | 14.5 | 0.00 | 0.03 | 0.00 | 84 | 1011.9 |
| 20260510083820 | 21 | 360 | 6.4 | 14.5 | 0.00 | 0.03 | 0.00 | 84 | 1012.0 |
| 20260510083722 | 21 | 360 | 6.4 | 14.5 | 0.00 | 0.03 | 0.00 | 84 | 1012.0 |
| 20260510083622 | 22 | 360 | 4.8 | 14.5 | 0.00 | 0.03 | 0.00 | 84 | 1011.9 |
| 20260510083543 | 22 | 360 | 6.4 | 14.5 | 0.00 | 0.03 | 0.00 | 84 | 1011.9 |
| 20260510083416 | 22 | 360 | 6.4 | 14.5 | 0.00 | 0.03 | 0.00 | 84 | 1012.0 |
| 20260510083321 | 22 | 360 | 6.4 | 14.5 | 0.00 | 0.03 | 0.00 | 84 | 1012.0 |
| 20260510083220 | 22 | 360 | 4.8 | 14.5 | 0.00 | 0.03 | 0.00 | 84 | 1012.0 |
| 20260510083120 | 22 | 360 | 4.8 | 14.5 | 0.00 | 0.03 | 0.00 | 84 | 1012.0 |
| 20260510083021 | 22 | 360 | 6.4 | 14.5 | 0.00 | 0.03 | 0.00 | 84 | 1012.1 |
| 20260510082922 | 22 | 360 | 6.4 | 14.5 | 0.00 | 0.03 | 0.00 | 84 | 1012.0 |
| 20260510082840 | 22 | 360 | 9.7 | 14.5 | 0.00 | 0.03 | 0.00 | 84 | 1012.1 |
| 20260510082718 | 22 | 360 | 8.0 | 12.9 | 0.00 | 0.03 | 0.00 | 83 | 1012.0 |
| 20260510082643 | 22 | 360 | 8.0 | 12.9 | 0.00 | 0.03 | 0.00 | 83 | 1012.1 |
| 20260510082522 | 22 | 360 | 8.0 | 17.7 | 0.00 | 0.03 | 0.00 | 83 | 1012.0 |
| 20260510082423 | 22 | 360 | 6.4 | 17.7 | 0.00 | 0.03 | 0.00 | 83 | 1012.1 |
| 20260510082323 | 22 | 360 | 6.4 | 17.7 | 0.00 | 0.03 | 0.00 | 83 | 1012.0 |
| 20260510082225 | 22 | 360 | 4.8 | 17.7 | 0.00 | 0.03 | 0.00 | 83 | 1012.0 |
| 20260510082125 | 22 | 360 | 4.8 | 17.7 | 0.00 | 0.03 | 0.00 | 83 | 1012.1 |
| 20260510082025 | 22 | 360 | 4.8 | 17.7 | 0.00 | 0.03 | 0.00 | 83 | 1012.1 |
| 20260510081930 | 22 | 360 | 4.8 | 17.7 | 0.00 | 0.03 | 0.00 | 83 | 1012.1 |
| 20260510081830 | 22 | 360 | 6.4 | 17.7 | 0.00 | 0.03 | 0.00 | 83 | 1012.1 |
| 20260510081731 | 22 | 360 | 8.0 | 17.7 | 0.00 | 0.03 | 0.00 | 83 | 1012.1 |
| 20260510081630 | 22 | 360 | 8.0 | 17.7 | 0.00 | 0.03 | 0.00 | 83 | 1012.2 |
| 20260510081531 | 22 | 360 | 9.7 | 17.7 | 0.00 | 0.03 | 0.00 | 83 | 1012.2 |
| 20260510081431 | 22 | 360 | 9.7 | 17.7 | 0.00 | 0.03 | 0.00 | 83 | 1012.2 |
| 20260510081331 | 22 | 360 | 8.0 | 17.7 | 0.00 | 0.03 | 0.00 | 83 | 1012.1 |
| 20260510081216 | 22 | 360 | 6.4 | 17.7 | 0.00 | 0.03 | 0.00 | 83 | 1012.1 |
| 20260510081116 | 22 | 360 | 6.4 | 17.7 | 0.00 | 0.03 | 0.00 | 83 | 1012.1 |
| 20260510081017 | 22 | 360 | 8.0 | 17.7 | 0.00 | 0.03 | 0.00 | 83 | 1012.1 |
| 20260510080917 | 22 | 360 | 8.0 | 17.7 | 0.00 | 0.03 | 0.00 | 83 | 1012.3 |
| 20260510080818 | 22 | 360 | 8.0 | 17.7 | 0.00 | 0.03 | 0.00 | 83 | 1012.1 |
| 20260510080718 | 22 | 360 | 6.4 | 17.7 | 0.00 | 0.03 | 0.00 | 83 | 1012.2 |
| 20260510080623 | 22 | 360 | 4.8 | 17.7 | 0.00 | 0.03 | 0.00 | 83 | 1012.1 |
| 20260510080523 | 22 | 360 | 4.8 | 17.7 | 0.00 | 0.03 | 0.00 | 83 | 1012.1 |
| 20260510080424 | 22 | 360 | 4.8 | 17.7 | 0.00 | 0.03 | 0.00 | 83 | 1012.1 |
| 20260510080325 | 22 | 360 | 6.4 | 17.7 | 0.00 | 0.03 | 0.00 | 83 | 1012.1 |
| 20260510080224 | 22 | 360 | 6.4 | 16.1 | 0.00 | 0.03 | 0.00 | 83 | 1012.1 |
| 20260510080125 | 22 | 360 | 6.4 | 16.1 | 0.00 | 0.03 | 0.00 | 83 | 1012.1 |
| 20260510080030 | 22 | 360 | 4.8 | 17.7 | 0.00 | 0.03 | 0.00 | 83 | 1012.1 |
| 20260510075931 | 22 | 360 | 4.8 | 17.7 | 0.00 | 0.03 | 0.00 | 83 | 1012.2 |
| 20260510075851 | 22 | 360 | 6.4 | 17.7 | 0.00 | 0.03 | 0.00 | 83 | 1012.1 |
| 20260510075732 | 22 | 360 | 6.4 | 17.7 | 0.00 | 0.03 | 0.00 | 83 | 1012.0 |
| 20260510075632 | 22 | 360 | 6.4 | 19.3 | 0.00 | 0.03 | 0.00 | 83 | 1012.1 |
| 20260510075553 | 22 | 360 | 6.4 | 19.3 | 0.00 | 0.03 | 0.00 | 83 | 1012.1 |
| 20260510075432 | 22 | 360 | 6.4 | 19.3 | 0.00 | 0.03 | 0.00 | 83 | 1012.1 |
| 20260510075316 | 22 | 360 | 6.4 | 19.3 | 0.00 | 0.03 | 0.00 | 83 | 1012.2 |
| 20260510075217 | 22 | 360 | 8.0 | 19.3 | 0.00 | 0.03 | 0.00 | 83 | 1012.2 |
| 20260510075118 | 22 | 360 | 6.4 | 19.3 | 0.00 | 0.03 | 0.00 | 83 | 1012.1 |
| 20260510075018 | 22 | 360 | 8.0 | 19.3 | 0.00 | 0.03 | 0.00 | 82 | 1012.1 |
| 20260510074919 | 22 | 360 | 8.0 | 19.3 | 0.00 | 0.03 | 0.00 | 83 | 1012.2 |
| 20260510074820 | 22 | 360 | 8.0 | 19.3 | 0.00 | 0.03 | 0.00 | 83 | 1012.3 |
| 20260510074721 | 22 | 360 | 9.7 | 19.3 | 0.00 | 0.03 | 0.00 | 83 | 1012.2 |
| 20260510074625 | 22 | 360 | 9.7 | 19.3 | 0.00 | 0.03 | 0.00 | 83 | 1012.1 |
| 20260510074525 | 22 | 360 | 8.0 | 19.3 | 0.00 | 0.03 | 0.00 | 82 | 1012.1 |
| 20260510074446 | 22 | 360 | 9.7 | 19.3 | 0.00 | 0.03 | 0.00 | 82 | 1012.1 |
| 20260510074324 | 22 | 360 | 9.7 | 19.3 | 0.00 | 0.03 | 0.00 | 82 | 1012.1 |
| 20260510074225 | 22 | 360 | 8.0 | 19.3 | 0.00 | 0.03 | 0.00 | 82 | 1012.1 |
| 20260510074127 | 22 | 360 | 8.0 | 19.3 | 0.00 | 0.03 | 0.00 | 82 | 1012.1 |
| 20260510074047 | 22 | 360 | 9.7 | 19.3 | 0.00 | 0.03 | 0.00 | 82 | 1012.1 |
| 20260510073931 | 22 | 360 | 9.7 | 19.3 | 0.00 | 0.03 | 0.00 | 82 | 1012.1 |
| 20260510073831 | 22 | 360 | 9.7 | 19.3 | 0.00 | 0.03 | 0.00 | 82 | 1012.1 |
| 20260510073732 | 22 | 360 | 9.7 | 19.3 | 0.00 | 0.03 | 0.00 | 82 | 1012.1 |
| 20260510073632 | 22 | 360 | 9.7 | 17.7 | 0.00 | 0.03 | 0.00 | 82 | 1012.1 |
| 20260510073532 | 22 | 360 | 9.7 | 20.9 | 0.00 | 0.03 | 0.00 | 82 | 1012.1 |
| 20260510073453 | 22 | 360 | 9.7 | 20.9 | 0.00 | 0.03 | 0.00 | 82 | 1012.1 |
| 20260510073332 | 22 | 360 | 9.7 | 24.1 | 0.00 | 0.03 | 0.00 | 82 | 1012.1 |
| 20260510073232 | 22 | 360 | 11.3 | 24.1 | 0.00 | 0.03 | 0.00 | 82 | 1012.2 |
| 20260510073117 | 22 | 360 | 11.3 | 24.1 | 0.00 | 0.03 | 0.00 | 82 | 1012.2 |
| 20260510073037 | 22 | 360 | 12.9 | 24.1 | 0.00 | 0.03 | 0.00 | 82 | 1012.3 |
| 20260510072937 | 22 | 360 | 14.5 | 24.1 | 0.00 | 0.03 | 0.00 | 82 | 1012.2 |
| 20260510072818 | 22 | 360 | 12.9 | 24.1 | 0.00 | 0.03 | 0.00 | 82 | 1012.2 |
| 20260510072737 | 22 | 360 | 14.5 | 24.1 | 0.00 | 0.03 | 0.00 | 82 | 1012.2 |
| 20260510072617 | 22 | 360 | 14.5 | 24.1 | 0.00 | 0.03 | 0.00 | 82 | 1012.3 |
| 20260510072538 | 22 | 360 | 12.9 | 20.9 | 0.00 | 0.03 | 0.00 | 82 | 1012.3 |
| 20260510072418 | 22 | 360 | 12.9 | 19.3 | 0.00 | 0.03 | 0.00 | 82 | 1012.2 |
| 20260510072323 | 22 | 360 | 12.9 | 19.3 | 0.00 | 0.03 | 0.00 | 82 | 1012.3 |
| 20260510072225 | 22 | 360 | 12.9 | 19.3 | 0.00 | 0.03 | 0.00 | 81 | 1012.3 |
| 20260510072125 | 22 | 360 | 11.3 | 19.3 | 0.00 | 0.03 | 0.00 | 81 | 1012.3 |
| 20260510072047 | 22 | 360 | 11.3 | 19.3 | 0.00 | 0.03 | 0.00 | 81 | 1012.4 |
| 20260510071946 | 22 | 360 | 9.7 | 19.3 | 0.00 | 0.03 | 0.00 | 81 | 1012.4 |
| 20260510071826 | 22 | 360 | 9.7 | 19.3 | 0.00 | 0.03 | 0.00 | 81 | 1012.4 |
| 20260510071726 | 22 | 360 | 9.7 | 19.3 | 0.00 | 0.03 | 0.00 | 81 | 1012.4 |
| 20260510071627 | 22 | 360 | 9.7 | 19.3 | 0.00 | 0.03 | 0.00 | 81 | 1012.3 |
| 20260510071552 | 22 | 360 | 11.3 | 19.3 | 0.00 | 0.03 | 0.00 | 81 | 1012.4 |
| 20260510071451 | 22 | 360 | 11.3 | 19.3 | 0.00 | 0.03 | 0.00 | 81 | 1012.4 |
| 20260510071330 | 22 | 360 | 11.3 | 19.3 | 0.00 | 0.03 | 0.00 | 81 | 1012.3 |
| 20260510071231 | 22 | 360 | 12.9 | 19.3 | 0.00 | 0.03 | 0.00 | 81 | 1012.4 |
| 20260510071134 | 22 | 360 | 12.9 | 19.3 | 0.00 | 0.03 | 0.00 | 81 | 1012.3 |
| 20260510071034 | 22 | 360 | 12.9 | 19.3 | 0.00 | 0.03 | 0.00 | 81 | 1012.4 |
| 20260510070934 | 22 | 360 | 12.9 | 19.3 | 0.00 | 0.03 | 0.00 | 81 | 1012.3 |
| 20260510070819 | 22 | 360 | 11.3 | 17.7 | 0.00 | 0.03 | 0.00 | 81 | 1012.3 |
| 20260510070720 | 22 | 360 | 9.7 | 17.7 | 0.00 | 0.03 | 0.00 | 81 | 1012.3 |
| 20260510070621 | 22 | 360 | 9.7 | 16.1 | 0.00 | 0.03 | 0.00 | 80 | 1012.3 |
| 20260510070521 | 22 | 360 | 9.7 | 14.5 | 0.00 | 0.03 | 0.00 | 80 | 1012.3 |
| 20260510070442 | 22 | 360 | 8.0 | 14.5 | 0.00 | 0.03 | 0.00 | 80 | 1012.3 |
| 20260510070316 | 22 | 360 | 9.7 | 14.5 | 0.00 | 0.03 | 0.00 | 80 | 1012.2 |
| 20260510070238 | 22 | 360 | 9.7 | 14.5 | 0.00 | 0.03 | 0.00 | 80 | 1012.3 |
| 20260510070121 | 22 | 360 | 9.7 | 14.5 | 0.00 | 0.03 | 0.00 | 80 | 1012.3 |
| 20260510070023 | 22 | 360 | 9.7 | 14.5 | 0.00 | 0.03 | 0.00 | 80 | 1012.3 |
| 20260510065942 | 22 | 360 | 8.0 | 19.3 | 0.00 | 0.03 | 0.00 | 80 | 1012.2 |
| 20260510065824 | 22 | 360 | 8.0 | 19.3 | 0.00 | 0.03 | 0.00 | 80 | 1012.2 |
| 20260510065723 | 22 | 360 | 8.0 | 19.3 | 0.00 | 0.03 | 0.00 | 80 | 1012.2 |
| 20260510065623 | 22 | 360 | 8.0 | 19.3 | 0.00 | 0.03 | 0.00 | 80 | 1012.1 |
| 20260510065545 | 22 | 360 | 8.0 | 19.3 | 0.00 | 0.03 | 0.00 | 80 | 1012.1 |
| 20260510065429 | 22 | 360 | 8.0 | 19.3 | 0.00 | 0.03 | 0.00 | 80 | 1012.1 |
| 20260510065331 | 22 | 360 | 8.0 | 19.3 | 0.00 | 0.03 | 0.00 | 80 | 1012.2 |
| 20260510065230 | 22 | 360 | 8.0 | 22.5 | 0.00 | 0.03 | 0.00 | 80 | 1012.1 |
| 20260510065131 | 22 | 360 | 9.7 | 22.5 | 0.00 | 0.03 | 0.00 | 80 | 1012.2 |
| 20260510065032 | 22 | 360 | 9.7 | 22.5 | 0.00 | 0.03 | 0.00 | 80 | 1012.1 |
| 20260510064933 | 22 | 360 | 9.7 | 22.5 | 0.00 | 0.03 | 0.00 | 80 | 1012.1 |
| 20260510064854 | 22 | 360 | 11.3 | 22.5 | 0.00 | 0.03 | 0.00 | 80 | 1012.1 |
| 20260510064718 | 22 | 360 | 11.3 | 22.5 | 0.00 | 0.03 | 0.00 | 80 | 1012.0 |
| 20260510064617 | 22 | 360 | 11.3 | 22.5 | 0.00 | 0.03 | 0.00 | 80 | 1012.1 |
| 20260510064538 | 22 | 360 | 11.3 | 22.5 | 0.00 | 0.03 | 0.00 | 80 | 1012.1 |
| 20260510064416 | 22 | 360 | 11.3 | 17.7 | 0.00 | 0.03 | 0.00 | 80 | 1012.0 |
| 20260510064318 | 22 | 360 | 11.3 | 16.1 | 0.00 | 0.03 | 0.00 | 80 | 1012.1 |
| 20260510064218 | 22 | 360 | 11.3 | 16.1 | 0.00 | 0.03 | 0.00 | 80 | 1012.1 |
| 20260510064118 | 22 | 360 | 11.3 | 16.1 | 0.00 | 0.03 | 0.00 | 80 | 1012.1 |
| 20260510064023 | 22 | 360 | 11.3 | 16.1 | 0.00 | 0.03 | 0.00 | 79 | 1012.1 |
| 20260510063923 | 22 | 360 | 11.3 | 16.1 | 0.00 | 0.03 | 0.00 | 79 | 1012.1 |
| 20260510063845 | 22 | 360 | 9.7 | 16.1 | 0.00 | 0.03 | 0.00 | 79 | 1012.1 |
| 20260510063724 | 22 | 360 | 9.7 | 16.1 | 0.00 | 0.03 | 0.00 | 79 | 1012.1 |
| 20260510063625 | 22 | 360 | 9.7 | 16.1 | 0.00 | 0.03 | 0.00 | 79 | 1012.1 |
| 20260510063526 | 22 | 360 | 9.7 | 16.1 | 0.00 | 0.03 | 0.00 | 79 | 1012.1 |
| 20260510063427 | 22 | 360 | 9.7 | 16.1 | 0.00 | 0.03 | 0.00 | 79 | 1012.0 |
| 20260510063331 | 22 | 360 | 9.7 | 16.1 | 0.00 | 0.03 | 0.00 | 79 | 1012.1 |
| 20260510063232 | 22 | 360 | 9.7 | 16.1 | 0.00 | 0.03 | 0.00 | 79 | 1012.1 |
| 20260510063133 | 22 | 360 | 9.7 | 16.1 | 0.00 | 0.03 | 0.00 | 79 | 1012.1 |
| 20260510063034 | 22 | 360 | 9.7 | 16.1 | 0.00 | 0.03 | 0.00 | 79 | 1012.1 |
| 20260510062934 | 22 | 360 | 9.7 | 16.1 | 0.00 | 0.03 | 0.00 | 79 | 1012.1 |
| 20260510062856 | 22 | 360 | 9.7 | 16.1 | 0.00 | 0.03 | 0.00 | 79 | 1012.1 |
| 20260510062716 | 22 | 360 | 9.7 | 16.1 | 0.00 | 0.03 | 0.00 | 79 | 1012.1 |
| 20260510062620 | 22 | 360 | 9.7 | 16.1 | 0.00 | 0.03 | 0.00 | 79 | 1012.2 |
| 20260510062541 | 22 | 360 | 9.7 | 16.1 | 0.00 | 0.03 | 0.00 | 79 | 1012.2 |
| 20260510062419 | 22 | 360 | 9.7 | 16.1 | 0.00 | 0.03 | 0.00 | 79 | 1012.2 |
| 20260510062340 | 22 | 360 | 9.7 | 16.1 | 0.00 | 0.03 | 0.00 | 79 | 1012.1 |
| 20260510062219 | 22 | 360 | 9.7 | 16.1 | 0.00 | 0.03 | 0.00 | 79 | 1012.1 |
| 20260510062120 | 22 | 360 | 9.7 | 16.1 | 0.00 | 0.03 | 0.00 | 79 | 1012.1 |
| 20260510062021 | 22 | 360 | 8.0 | 16.1 | 0.00 | 0.03 | 0.00 | 79 | 1012.1 |
| 20260510061925 | 22 | 360 | 8.0 | 16.1 | 0.00 | 0.03 | 0.00 | 79 | 1012.1 |
| 20260510061826 | 22 | 360 | 8.0 | 16.1 | 0.00 | 0.03 | 0.00 | 79 | 1012.1 |
| 20260510061727 | 22 | 360 | 8.0 | 16.1 | 0.00 | 0.03 | 0.00 | 79 | 1012.1 |
| 20260510061628 | 22 | 360 | 8.0 | 16.1 | 0.00 | 0.03 | 0.00 | 79 | 1012.1 |
| 20260510061528 | 22 | 360 | 8.0 | 16.1 | 0.00 | 0.03 | 0.00 | 79 | 1012.1 |
| 20260510061428 | 22 | 360 | 8.0 | 14.5 | 0.00 | 0.03 | 0.00 | 79 | 1012.1 |
| 20260510061329 | 22 | 360 | 8.0 | 14.5 | 0.00 | 0.03 | 0.00 | 79 | 1012.0 |
| 20260510061253 | 22 | 360 | 8.0 | 14.5 | 0.00 | 0.03 | 0.00 | 79 | 1012.0 |
| 20260510061152 | 22 | 360 | 8.0 | 14.5 | 0.00 | 0.03 | 0.00 | 79 | 1012.1 |
| 20260510061032 | 22 | 360 | 9.7 | 14.5 | 0.00 | 0.03 | 0.00 | 79 | 1012.0 |
| 20260510060932 | 22 | 360 | 9.7 | 14.5 | 0.00 | 0.03 | 0.00 | 79 | 1012.0 |
| 20260510060833 | 22 | 360 | 8.0 | 14.5 | 0.00 | 0.03 | 0.00 | 79 | 1012.1 |
| 20260510060733 | 22 | 360 | 8.0 | 14.5 | 0.00 | 0.03 | 0.00 | 79 | 1012.1 |
| 20260510060634 | 22 | 360 | 6.4 | 14.5 | 0.00 | 0.03 | 0.00 | 79 | 1012.0 |
| 20260510060519 | 23 | 360 | 6.4 | 12.9 | 0.00 | 0.03 | 0.00 | 79 | 1012.0 |
| 20260510060420 | 23 | 360 | 6.4 | 12.9 | 0.00 | 0.03 | 0.00 | 79 | 1012.0 |
| 20260510060320 | 23 | 360 | 8.0 | 12.9 | 0.00 | 0.03 | 0.00 | 79 | 1012.0 |
| 20260510060220 | 23 | 360 | 8.0 | 12.9 | 0.00 | 0.03 | 0.00 | 79 | 1012.0 |
| 20260510060120 | 23 | 360 | 8.0 | 16.1 | 0.00 | 0.03 | 0.00 | 79 | 1012.1 |
| 20260510060020 | 23 | 360 | 8.0 | 16.1 | 0.00 | 0.03 | 0.00 | 79 | 1012.0 |
| 20260510055939 | 23 | 360 | 8.0 | 16.1 | 0.00 | 0.03 | 0.00 | 79 | 1012.0 |
| 20260510055824 | 23 | 360 | 8.0 | 16.1 | 0.00 | 0.03 | 0.00 | 79 | 1012.0 |
| 20260510055723 | 23 | 360 | 8.0 | 16.1 | 0.00 | 0.03 | 0.03 | 78 | 1012.1 |
| 20260510055644 | 23 | 360 | 8.0 | 16.1 | 0.00 | 0.03 | 0.03 | 78 | 1012.1 |
| 20260510055524 | 23 | 360 | 8.0 | 16.1 | 0.00 | 0.03 | 0.03 | 78 | 1012.0 |
| 20260510055425 | 23 | 360 | 9.7 | 16.1 | 0.00 | 0.03 | 0.03 | 78 | 1012.0 |
| 20260510055346 | 23 | 360 | 9.7 | 16.1 | 0.00 | 0.03 | 0.03 | 78 | 1012.0 |
| 20260510055225 | 23 | 360 | 9.7 | 16.1 | 0.00 | 0.03 | 0.03 | 78 | 1012.0 |
| 20260510055125 | 23 | 360 | 8.0 | 14.5 | 0.00 | 0.03 | 0.03 | 78 | 1011.9 |
| 20260510055030 | 23 | 360 | 8.0 | 14.5 | 0.00 | 0.03 | 0.03 | 78 | 1011.9 |
| 20260510054951 | 23 | 360 | 8.0 | 12.9 | 0.00 | 0.03 | 0.03 | 78 | 1012.0 |
| 20260510054831 | 23 | 360 | 8.0 | 12.9 | 0.00 | 0.03 | 0.03 | 78 | 1011.9 |
| 20260510054732 | 23 | 360 | 6.4 | 12.9 | 0.00 | 0.03 | 0.03 | 79 | 1011.9 |
| 20260510054631 | 23 | 360 | 6.4 | 12.9 | 0.00 | 0.03 | 0.03 | 79 | 1011.9 |
| 20260510054533 | 23 | 360 | 6.4 | 9.7 | 0.00 | 0.03 | 0.03 | 79 | 1011.9 |
| 20260510054454 | 23 | 360 | 6.4 | 9.7 | 0.00 | 0.03 | 0.03 | 79 | 1011.9 |
| 20260510054318 | 23 | 360 | 6.4 | 9.7 | 0.00 | 0.03 | 0.03 | 79 | 1012.0 |
| 20260510054218 | 23 | 360 | 6.4 | 9.7 | 0.00 | 0.03 | 0.03 | 79 | 1012.0 |
| 20260510054119 | 23 | 360 | 6.4 | 9.7 | 0.00 | 0.03 | 0.03 | 79 | 1012.0 |
| 20260510054020 | 23 | 360 | 6.4 | 9.7 | 0.00 | 0.03 | 0.03 | 79 | 1012.0 |
| 20260510053919 | 23 | 360 | 6.4 | 9.7 | 0.00 | 0.03 | 0.03 | 79 | 1012.0 |
| 20260510053840 | 23 | 360 | 6.4 | 9.7 | 0.00 | 0.03 | 0.03 | 79 | 1012.1 |
| 20260510053720 | 23 | 360 | 6.4 | 12.9 | 0.00 | 0.03 | 0.03 | 79 | 1012.1 |
| 20260510053623 | 23 | 360 | 6.4 | 12.9 | 0.00 | 0.03 | 0.03 | 79 | 1012.1 |
| 20260510053523 | 23 | 360 | 6.4 | 12.9 | 0.00 | 0.03 | 0.03 | 79 | 1012.0 |
| 20260510053423 | 23 | 360 | 6.4 | 12.9 | 0.00 | 0.03 | 0.03 | 79 | 1012.1 |
| 20260510053343 | 23 | 360 | 6.4 | 12.9 | 0.00 | 0.03 | 0.03 | 79 | 1012.1 |
| 20260510053223 | 23 | 360 | 6.4 | 12.9 | 0.00 | 0.03 | 0.03 | 79 | 1012.1 |
| 20260510053124 | 23 | 360 | 6.4 | 12.9 | 0.00 | 0.03 | 0.03 | 80 | 1012.1 |
| 20260510053025 | 23 | 360 | 6.4 | 12.9 | 0.00 | 0.03 | 0.03 | 80 | 1012.1 |
| 20260510052925 | 23 | 360 | 6.4 | 12.9 | 0.00 | 0.03 | 0.03 | 80 | 1012.1 |
| 20260510052830 | 23 | 360 | 6.4 | 9.7 | 0.00 | 0.03 | 0.03 | 80 | 1012.1 |
| 20260510052732 | 23 | 360 | 6.4 | 9.7 | 0.00 | 0.03 | 0.03 | 80 | 1012.1 |
| 20260510052632 | 23 | 360 | 4.8 | 9.7 | 0.00 | 0.03 | 0.03 | 80 | 1012.1 |
| 20260510052532 | 23 | 360 | 4.8 | 9.7 | 0.00 | 0.03 | 0.03 | 80 | 1012.1 |
| 20260510052432 | 23 | 360 | 4.8 | 9.7 | 0.00 | 0.03 | 0.03 | 80 | 1012.1 |
| 20260510052333 | 23 | 360 | 4.8 | 9.7 | 0.00 | 0.03 | 0.03 | 80 | 1012.1 |
| 20260510052216 | 23 | 360 | 4.8 | 9.7 | 0.00 | 0.03 | 0.03 | 80 | 1012.2 |
| 20260510052136 | 23 | 360 | 4.8 | 9.7 | 0.00 | 0.03 | 0.03 | 80 | 1012.2 |
| 20260510052037 | 23 | 360 | 4.8 | 9.7 | 0.00 | 0.03 | 0.03 | 80 | 1012.2 |
| 20260510051935 | 23 | 360 | 4.8 | 8.0 | 0.00 | 0.03 | 0.03 | 80 | 1012.2 |
| 20260510051816 | 23 | 360 | 4.8 | 8.0 | 0.00 | 0.03 | 0.03 | 80 | 1012.3 |
| 20260510051717 | 23 | 360 | 4.8 | 6.4 | 0.00 | 0.03 | 0.03 | 80 | 1012.2 |
| 20260510051617 | 23 | 360 | 4.8 | 6.4 | 0.00 | 0.03 | 0.03 | 80 | 1012.2 |
| 20260510051522 | 23 | 360 | 3.2 | 8.0 | 0.00 | 0.03 | 0.03 | 80 | 1012.1 |
| 20260510051424 | 23 | 360 | 3.2 | 8.0 | 0.00 | 0.03 | 0.03 | 80 | 1012.1 |
| 20260510051324 | 23 | 360 | 3.2 | 8.0 | 0.00 | 0.03 | 0.03 | 80 | 1012.0 |
| 20260510051225 | 23 | 360 | 4.8 | 8.0 | 0.00 | 0.03 | 0.03 | 80 | 1012.0 |
| 20260510051145 | 23 | 360 | 4.8 | 8.0 | 0.00 | 0.03 | 0.03 | 80 | 1012.0 |
| 20260510051023 | 23 | 360 | 4.8 | 8.0 | 0.00 | 0.03 | 0.03 | 80 | 1012.0 |
| 20260510050924 | 23 | 360 | 4.8 | 8.0 | 0.00 | 0.03 | 0.03 | 80 | 1012.0 |
| 20260510050845 | 23 | 360 | 4.8 | 8.0 | 0.00 | 0.03 | 0.03 | 80 | 1012.0 |
| 20260510050728 | 23 | 360 | 4.8 | 8.0 | 0.00 | 0.03 | 0.03 | 80 | 1012.0 |
| 20260510050629 | 23 | 360 | 4.8 | 8.0 | 0.00 | 0.03 | 0.03 | 80 | 1012.1 |
| 20260510050529 | 23 | 360 | 4.8 | 8.0 | 0.00 | 0.03 | 0.03 | 80 | 1012.1 |
| 20260510050429 | 23 | 360 | 4.8 | 8.0 | 0.00 | 0.03 | 0.03 | 80 | 1012.0 |
| 20260510050330 | 23 | 360 | 4.8 | 8.0 | 0.00 | 0.03 | 0.03 | 80 | 1012.1 |
| 20260510050231 | 23 | 360 | 6.4 | 8.0 | 0.00 | 0.03 | 0.03 | 80 | 1012.1 |
| 20260510050131 | 23 | 360 | 4.8 | 8.0 | 0.00 | 0.03 | 0.03 | 80 | 1012.1 |
| 20260510050016 | 23 | 360 | 6.4 | 8.0 | 0.00 | 0.03 | 0.03 | 80 | 1012.1 |
| 20260510045917 | 23 | 360 | 6.4 | 8.0 | 0.00 | 0.03 | 0.03 | 80 | 1012.1 |
| 20260510045839 | 23 | 360 | 6.4 | 8.0 | 0.00 | 0.03 | 0.03 | 81 | 1012.1 |
| 20260510045718 | 23 | 360 | 4.8 | 8.0 | 0.00 | 0.03 | 0.03 | 80 | 1012.0 |
| 20260510045617 | 23 | 360 | 4.8 | 8.0 | 0.00 | 0.03 | 0.03 | 80 | 1012.1 |
| 20260510045538 | 23 | 360 | 4.8 | 8.0 | 0.00 | 0.03 | 0.03 | 79 | 1012.1 |
| 20260510045418 | 23 | 360 | 4.8 | 8.0 | 0.00 | 0.03 | 0.03 | 79 | 1012.0 |
| 20260510045322 | 23 | 360 | 3.2 | 8.0 | 0.00 | 0.03 | 0.03 | 79 | 1012.0 |
| 20260510045223 | 23 | 360 | 4.8 | 8.0 | 0.00 | 0.03 | 0.03 | 79 | 1012.1 |
| 20260510045144 | 23 | 360 | 4.8 | 8.0 | 0.00 | 0.03 | 0.03 | 79 | 1012.0 |
| 20260510045023 | 23 | 360 | 4.8 | 8.0 | 0.00 | 0.03 | 0.03 | 79 | 1012.0 |
| 20260510044943 | 23 | 360 | 4.8 | 8.0 | 0.00 | 0.03 | 0.03 | 79 | 1012.0 |
| 20260510044823 | 23 | 360 | 4.8 | 8.0 | 0.00 | 0.03 | 0.03 | 79 | 1011.9 |
| 20260510044724 | 23 | 360 | 4.8 | 8.0 | 0.00 | 0.03 | 0.03 | 79 | 1012.0 |
| 20260510044628 | 23 | 360 | 4.8 | 8.0 | 0.00 | 0.03 | 0.03 | 79 | 1012.0 |
| 20260510044529 | 23 | 360 | 4.8 | 8.0 | 0.00 | 0.03 | 0.03 | 79 | 1012.0 |
| 20260510044429 | 24 | 360 | 4.8 | 9.7 | 0.00 | 0.03 | 0.03 | 79 | 1012.0 |
| 20260510044351 | 24 | 360 | 4.8 | 9.7 | 0.00 | 0.03 | 0.03 | 79 | 1012.0 |
| 20260510044231 | 24 | 360 | 4.8 | 9.7 | 0.00 | 0.03 | 0.03 | 79 | 1012.0 |
| 20260510044132 | 24 | 360 | 4.8 | 9.7 | 0.00 | 0.03 | 0.03 | 79 | 1012.0 |
| 20260510044032 | 24 | 360 | 4.8 | 9.7 | 0.00 | 0.03 | 0.03 | 78 | 1012.0 |
| 20260510043917 | 24 | 360 | 4.8 | 9.7 | 0.00 | 0.03 | 0.03 | 78 | 1012.0 |
| 20260510043818 | 24 | 360 | 4.8 | 9.7 | 0.00 | 0.03 | 0.03 | 78 | 1012.0 |
| 20260510043738 | 24 | 360 | 4.8 | 9.7 | 0.00 | 0.03 | 0.03 | 78 | 1011.9 |
| 20260510043618 | 24 | 360 | 6.4 | 9.7 | 0.00 | 0.03 | 0.03 | 78 | 1012.0 |
| 20260510043519 | 24 | 360 | 6.4 | 9.7 | 0.00 | 0.03 | 0.03 | 78 | 1012.0 |
| 20260510043440 | 24 | 360 | 4.8 | 9.7 | 0.00 | 0.03 | 0.03 | 78 | 1012.0 |
| 20260510043319 | 24 | 360 | 4.8 | 6.4 | 0.00 | 0.03 | 0.03 | 78 | 1011.9 |
| 20260510043224 | 24 | 360 | 3.2 | 6.4 | 0.00 | 0.03 | 0.03 | 78 | 1012.0 |
| 20260510043124 | 24 | 360 | 3.2 | 6.4 | 0.00 | 0.03 | 0.03 | 78 | 1011.9 |
| 20260510043025 | 24 | 360 | 3.2 | 6.4 | 0.00 | 0.03 | 0.03 | 78 | 1011.9 |
| 20260510042945 | 24 | 360 | 3.2 | 6.4 | 0.00 | 0.03 | 0.03 | 78 | 1011.9 |
| 20260510042827 | 24 | 360 | 3.2 | 6.4 | 0.00 | 0.03 | 0.03 | 78 | 1011.9 |
| 20260510042725 | 24 | 360 | 3.2 | 6.4 | 0.00 | 0.03 | 0.03 | 77 | 1011.9 |
| 20260510042626 | 24 | 360 | 3.2 | 6.4 | 0.00 | 0.03 | 0.03 | 77 | 1011.8 |
| 20260510042548 | 24 | 360 | 4.8 | 12.9 | 0.00 | 0.03 | 0.03 | 77 | 1011.9 |
| 20260510042452 | 24 | 360 | 4.8 | 12.9 | 0.00 | 0.03 | 0.03 | 77 | 1011.9 |
| 20260510042331 | 24 | 360 | 4.8 | 12.9 | 0.00 | 0.03 | 0.03 | 77 | 1011.8 |
| 20260510042231 | 24 | 360 | 4.8 | 12.9 | 0.00 | 0.03 | 0.03 | 77 | 1011.9 |
| 20260510042132 | 24 | 360 | 4.8 | 12.9 | 0.00 | 0.03 | 0.03 | 77 | 1011.9 |
| 20260510042033 | 24 | 360 | 4.8 | 12.9 | 0.00 | 0.03 | 0.03 | 77 | 1011.9 |
| 20260510041933 | 24 | 360 | 4.8 | 14.5 | 0.00 | 0.03 | 0.03 | 77 | 1011.8 |
| 20260510041817 | 25 | 360 | 4.8 | 14.5 | 0.00 | 0.03 | 0.03 | 77 | 1011.8 |
| 20260510041718 | 25 | 360 | 6.4 | 14.5 | 0.00 | 0.03 | 0.03 | 77 | 1011.9 |
| 20260510041618 | 25 | 360 | 6.4 | 14.5 | 0.00 | 0.03 | 0.03 | 77 | 1011.9 |
| 20260510041519 | 25 | 360 | 6.4 | 14.5 | 0.00 | 0.03 | 0.03 | 77 | 1011.9 |
| 20260510041420 | 25 | 360 | 8.0 | 14.5 | 0.00 | 0.03 | 0.03 | 77 | 1011.9 |
| 20260510041321 | 25 | 360 | 8.0 | 14.5 | 0.00 | 0.03 | 0.03 | 77 | 1011.9 |
| 20260510041221 | 25 | 360 | 6.4 | 14.5 | 0.00 | 0.03 | 0.03 | 77 | 1011.9 |
| 20260510041142 | 25 | 360 | 6.4 | 12.9 | 0.00 | 0.03 | 0.03 | 78 | 1011.9 |
| 20260510041025 | 25 | 360 | 4.8 | 9.7 | 0.00 | 0.03 | 0.03 | 78 | 1011.9 |
| 20260510040926 | 25 | 360 | 4.8 | 9.7 | 0.00 | 0.03 | 0.03 | 78 | 1011.9 |
| 20260510040846 | 25 | 360 | 3.2 | 8.0 | 0.00 | 0.03 | 0.03 | 78 | 1011.8 |
| 20260510040745 | 25 | 360 | 3.2 | 8.0 | 0.00 | 0.03 | 0.03 | 78 | 1011.9 |
| 20260510040625 | 25 | 360 | 3.2 | 8.0 | 0.00 | 0.03 | 0.03 | 78 | 1011.9 |
| 20260510040525 | 25 | 360 | 3.2 | 6.4 | 0.00 | 0.03 | 0.03 | 78 | 1011.9 |
| 20260510040446 | 25 | 360 | 3.2 | 6.4 | 0.00 | 0.03 | 0.03 | 78 | 1011.9 |
| 20260510040324 | 25 | 360 | 3.2 | 6.4 | 0.00 | 0.03 | 0.03 | 78 | 1011.9 |
| 20260510040223 | 25 | 360 | 3.2 | 8.0 | 0.00 | 0.03 | 0.03 | 78 | 1011.8 |
| 20260510040126 | 25 | 360 | 3.2 | 8.0 | 0.00 | 0.03 | 0.03 | 78 | 1011.7 |
| 20260510040025 | 25 | 360 | 3.2 | 8.0 | 0.00 | 0.03 | 0.03 | 78 | 1011.8 |
| 20260510035947 | 25 | 360 | 4.8 | 8.0 | 0.00 | 0.03 | 0.03 | 78 | 1011.8 |
| 20260510035825 | 25 | 360 | 4.8 | 8.0 | 0.00 | 0.03 | 0.03 | 77 | 1011.7 |
| 20260510035745 | 25 | 360 | 4.8 | 8.0 | 0.00 | 0.03 | 0.03 | 77 | 1011.8 |
| 20260510035644 | 25 | 360 | 4.8 | 8.0 | 0.00 | 0.03 | 0.03 | 77 | 1011.8 |
| 20260510035523 | 25 | 360 | 4.8 | 8.0 | 0.00 | 0.03 | 0.03 | 77 | 1011.7 |
| 20260510035424 | 25 | 360 | 4.8 | 8.0 | 0.00 | 0.03 | 0.03 | 78 | 1011.7 |
| 20260510035324 | 25 | 360 | 4.8 | 8.0 | 0.00 | 0.03 | 0.03 | 78 | 1011.7 |
| 20260510035229 | 25 | 360 | 4.8 | 8.0 | 0.00 | 0.03 | 0.03 | 78 | 1011.7 |
| 20260510035129 | 25 | 360 | 4.8 | 8.0 | 0.00 | 0.03 | 0.03 | 77 | 1011.7 |
| 20260510035049 | 25 | 360 | 4.8 | 8.0 | 0.00 | 0.03 | 0.03 | 77 | 1011.7 |
| 20260510034948 | 25 | 360 | 4.8 | 8.0 | 0.00 | 0.03 | 0.03 | 77 | 1011.7 |
| 20260510034827 | 25 | 360 | 4.8 | 8.0 | 0.00 | 0.03 | 0.03 | 77 | 1011.7 |
| 20260510034727 | 25 | 360 | 4.8 | 8.0 | 0.00 | 0.03 | 0.03 | 77 | 1011.7 |
| 20260510034645 | 25 | 360 | 4.8 | 8.0 | 0.00 | 0.03 | 0.03 | 77 | 1011.7 |
| 20260510034525 | 25 | 360 | 4.8 | 8.0 | 0.00 | 0.03 | 0.03 | 77 | 1011.7 |
| 20260510034430 | 25 | 360 | 4.8 | 8.0 | 0.00 | 0.03 | 0.03 | 77 | 1011.7 |
| 20260510034330 | 25 | 360 | 4.8 | 8.0 | 0.00 | 0.03 | 0.03 | 77 | 1011.7 |
| 20260510034230 | 25 | 360 | 4.8 | 8.0 | 0.00 | 0.03 | 0.03 | 77 | 1011.7 |
| 20260510034131 | 25 | 360 | 4.8 | 9.7 | 0.00 | 0.03 | 0.03 | 77 | 1011.7 |
| 20260510034051 | 25 | 360 | 4.8 | 9.7 | 0.00 | 0.03 | 0.03 | 77 | 1011.7 |
| 20260510033931 | 25 | 360 | 4.8 | 9.7 | 0.00 | 0.03 | 0.03 | 77 | 1011.7 |
| 20260510033816 | 25 | 360 | 4.8 | 9.7 | 0.00 | 0.03 | 0.03 | 77 | 1011.8 |
| 20260510033716 | 25 | 360 | 4.8 | 9.7 | 0.00 | 0.03 | 0.03 | 77 | 1011.7 |
| 20260510033617 | 25 | 360 | 4.8 | 9.7 | 0.00 | 0.03 | 0.03 | 77 | 1011.7 |
| 20260510033538 | 25 | 360 | 4.8 | 9.7 | 0.00 | 0.03 | 0.03 | 77 | 1011.7 |
| 20260510033437 | 25 | 360 | 3.2 | 9.7 | 0.00 | 0.03 | 0.03 | 77 | 1011.7 |
| 20260510033357 | 25 | 360 | 4.8 | 9.7 | 0.00 | 0.03 | 0.03 | 77 | 1011.7 |
| 20260510033216 | 25 | 360 | 4.8 | 9.7 | 0.00 | 0.03 | 0.03 | 77 | 1011.7 |
| 20260510033135 | 25 | 360 | 4.8 | 12.9 | 0.00 | 0.03 | 0.03 | 77 | 1011.7 |
| 20260510033020 | 25 | 360 | 4.8 | 12.9 | 0.00 | 0.03 | 0.03 | 77 | 1011.7 |
| 20260510032920 | 25 | 360 | 4.8 | 12.9 | 0.00 | 0.03 | 0.03 | 77 | 1011.7 |
| 20260510032821 | 25 | 360 | 6.4 | 12.9 | 0.00 | 0.03 | 0.03 | 77 | 1011.7 |
| 20260510032741 | 25 | 360 | 6.4 | 12.9 | 0.00 | 0.03 | 0.03 | 77 | 1011.6 |
| 20260510032620 | 25 | 360 | 6.4 | 12.9 | 0.00 | 0.03 | 0.03 | 77 | 1011.6 |
| 20260510032520 | 25 | 360 | 6.4 | 12.9 | 0.00 | 0.03 | 0.03 | 77 | 1011.5 |
| 20260510032421 | 25 | 360 | 6.4 | 12.9 | 0.00 | 0.03 | 0.03 | 77 | 1011.6 |
| 20260510032325 | 25 | 360 | 6.4 | 12.9 | 0.00 | 0.03 | 0.03 | 77 | 1011.6 |
| 20260510032227 | 25 | 360 | 6.4 | 9.7 | 0.00 | 0.03 | 0.03 | 77 | 1011.5 |
| 20260510032127 | 25 | 360 | 6.4 | 9.7 | 0.00 | 0.03 | 0.03 | 77 | 1011.6 |
| 20260510032028 | 25 | 360 | 6.4 | 9.7 | 0.00 | 0.03 | 0.03 | 77 | 1011.6 |
| 20260510031947 | 25 | 360 | 4.8 | 9.7 | 0.00 | 0.03 | 0.03 | 77 | 1011.5 |
| 20260510031827 | 25 | 360 | 4.8 | 8.0 | 0.00 | 0.03 | 0.03 | 77 | 1011.4 |
| 20260510031727 | 25 | 360 | 4.8 | 8.0 | 0.00 | 0.03 | 0.03 | 77 | 1011.5 |
| 20260510031629 | 25 | 360 | 4.8 | 8.0 | 0.00 | 0.03 | 0.03 | 77 | 1011.5 |
| 20260510031530 | 25 | 360 | 4.8 | 8.0 | 0.00 | 0.03 | 0.03 | 77 | 1011.5 |
| 20260510031429 | 25 | 360 | 4.8 | 8.0 | 0.00 | 0.03 | 0.03 | 77 | 1011.4 |
| 20260510031330 | 25 | 360 | 4.8 | 6.4 | 0.00 | 0.03 | 0.03 | 77 | 1011.4 |
| 20260510031250 | 25 | 360 | 4.8 | 6.4 | 0.00 | 0.03 | 0.03 | 77 | 1011.4 |
| 20260510031130 | 25 | 360 | 4.8 | 6.4 | 0.00 | 0.03 | 0.03 | 77 | 1011.4 |
| 20260510031029 | 25 | 360 | 4.8 | 6.4 | 0.00 | 0.03 | 0.03 | 77 | 1011.3 |
| 20260510030935 | 25 | 360 | 4.8 | 6.4 | 0.00 | 0.03 | 0.03 | 77 | 1011.4 |
| 20260510030817 | 26 | 360 | 4.8 | 6.4 | 0.00 | 0.03 | 0.03 | 77 | 1011.4 |
| 20260510030738 | 26 | 360 | 4.8 | 6.4 | 0.00 | 0.03 | 0.03 | 77 | 1011.4 |
| 20260510030637 | 26 | 360 | 4.8 | 6.4 | 0.00 | 0.03 | 0.03 | 77 | 1011.4 |
| 20260510030517 | 26 | 360 | 3.2 | 6.4 | 0.00 | 0.03 | 0.03 | 77 | 1011.3 |
| 20260510030418 | 26 | 360 | 3.2 | 9.7 | 0.00 | 0.03 | 0.03 | 77 | 1011.3 |
| 20260510030338 | 26 | 360 | 3.2 | 9.7 | 0.00 | 0.03 | 0.03 | 77 | 1011.3 |
| 20260510030217 | 26 | 360 | 3.2 | 9.7 | 0.00 | 0.03 | 0.03 | 77 | 1011.4 |
| 20260510030121 | 26 | 360 | 3.2 | 9.7 | 0.00 | 0.03 | 0.03 | 77 | 1011.3 |
| 20260510030021 | 26 | 360 | 4.8 | 9.7 | 0.00 | 0.03 | 0.03 | 77 | 1011.3 |
| 20260510025920 | 26 | 360 | 4.8 | 9.7 | 0.00 | 0.03 | 0.03 | 77 | 1011.4 |
| 20260510025822 | 26 | 360 | 4.8 | 9.7 | 0.00 | 0.03 | 0.03 | 77 | 1011.4 |
| 20260510025720 | 26 | 360 | 4.8 | 9.7 | 0.00 | 0.03 | 0.03 | 77 | 1011.3 |
| 20260510025620 | 26 | 360 | 4.8 | 9.7 | 0.00 | 0.03 | 0.03 | 77 | 1011.3 |
| 20260510025520 | 26 | 360 | 6.4 | 9.7 | 0.00 | 0.03 | 0.03 | 77 | 1011.3 |
| 20260510025422 | 26 | 360 | 6.4 | 9.7 | 0.00 | 0.03 | 0.03 | 77 | 1011.3 |
| 20260510025326 | 26 | 360 | 6.4 | 9.7 | 0.00 | 0.03 | 0.03 | 77 | 1011.2 |
| 20260510025227 | 26 | 360 | 6.4 | 9.7 | 0.00 | 0.03 | 0.03 | 77 | 1011.2 |
| 20260510025129 | 26 | 360 | 6.4 | 9.7 | 0.00 | 0.03 | 0.03 | 77 | 1011.2 |
| 20260510025030 | 26 | 360 | 6.4 | 9.7 | 0.00 | 0.03 | 0.03 | 77 | 1011.2 |
| 20260510024930 | 26 | 360 | 6.4 | 9.7 | 0.00 | 0.03 | 0.03 | 77 | 1011.2 |
| 20260510024830 | 26 | 360 | 6.4 | 9.7 | 0.00 | 0.03 | 0.03 | 77 | 1011.1 |
| 20260510024735 | 26 | 360 | 6.4 | 9.7 | 0.00 | 0.03 | 0.03 | 77 | 1011.1 |
| 20260510024656 | 26 | 360 | 6.4 | 12.9 | 0.00 | 0.03 | 0.03 | 77 | 1011.1 |
| 20260510024437 | 26 | 360 | 4.8 | 16.1 | 0.00 | 0.03 | 0.03 | 77 | 1011.0 |
| 20260510024316 | 26 | 360 | 4.8 | 16.1 | 0.00 | 0.03 | 0.03 | 77 | 1011.1 |
| 20260510024217 | 26 | 360 | 6.4 | 16.1 | 0.00 | 0.03 | 0.03 | 77 | 1011.0 |
| 20260510024137 | 26 | 360 | 6.4 | 16.1 | 0.00 | 0.03 | 0.03 | 77 | 1011.0 |
| 20260510024036 | 26 | 360 | 8.0 | 16.1 | 0.00 | 0.03 | 0.03 | 77 | 1011.0 |
| 20260510023920 | 26 | 360 | 9.7 | 16.1 | 0.00 | 0.03 | 0.03 | 77 | 1010.9 |
| 20260510023821 | 26 | 360 | 8.0 | 16.1 | 0.00 | 0.03 | 0.03 | 77 | 1011.0 |
| 20260510023722 | 26 | 360 | 9.7 | 16.1 | 0.00 | 0.03 | 0.03 | 77 | 1011.0 |
| 20260510023622 | 26 | 360 | 9.7 | 17.7 | 0.00 | 0.03 | 0.03 | 77 | 1011.0 |
| 20260510023523 | 26 | 360 | 8.0 | 17.7 | 0.00 | 0.03 | 0.03 | 76 | 1010.9 |
| 20260510023423 | 26 | 360 | 9.7 | 17.7 | 0.00 | 0.03 | 0.03 | 76 | 1010.9 |
| 20260510023323 | 26 | 360 | 9.7 | 17.7 | 0.00 | 0.03 | 0.03 | 76 | 1011.0 |
| 20260510023228 | 26 | 360 | 9.7 | 17.7 | 0.00 | 0.03 | 0.03 | 76 | 1011.0 |
| 20260510023127 | 26 | 360 | 11.3 | 17.7 | 0.00 | 0.03 | 0.03 | 76 | 1010.9 |
| 20260510023027 | 26 | 360 | 11.3 | 17.7 | 0.00 | 0.03 | 0.03 | 76 | 1010.8 |
| 20260510022925 | 26 | 360 | 11.3 | 17.7 | 0.00 | 0.03 | 0.03 | 76 | 1010.8 |
| 20260510022825 | 26 | 360 | 11.3 | 17.7 | 0.00 | 0.03 | 0.03 | 76 | 1010.8 |
| 20260510022723 | 26 | 360 | 9.7 | 17.7 | 0.00 | 0.03 | 0.03 | 76 | 1010.8 |
| 20260510022624 | 26 | 360 | 9.7 | 14.5 | 0.00 | 0.03 | 0.03 | 76 | 1010.8 |
| 20260510022521 | 26 | 360 | 9.7 | 14.5 | 0.00 | 0.03 | 0.03 | 76 | 1010.8 |
| 20260510022423 | 26 | 360 | 9.7 | 14.5 | 0.00 | 0.03 | 0.03 | 76 | 1010.7 |
| 20260510022327 | 26 | 360 | 9.7 | 14.5 | 0.00 | 0.03 | 0.03 | 76 | 1010.7 |
| 20260510022227 | 26 | 360 | 9.7 | 14.5 | 0.00 | 0.03 | 0.03 | 76 | 1010.8 |
| 20260510022128 | 26 | 360 | 8.0 | 16.1 | 0.00 | 0.03 | 0.03 | 76 | 1010.8 |
| 20260510022049 | 26 | 360 | 8.0 | 19.3 | 0.00 | 0.03 | 0.03 | 76 | 1010.8 |
| 20260510021949 | 26 | 360 | 8.0 | 19.3 | 0.00 | 0.03 | 0.03 | 75 | 1010.7 |
| 20260510021828 | 26 | 360 | 8.0 | 19.3 | 0.00 | 0.03 | 0.03 | 75 | 1010.8 |
| 20260510021727 | 26 | 360 | 9.7 | 19.3 | 0.00 | 0.03 | 0.03 | 75 | 1010.7 |
| 20260510021649 | 26 | 360 | 9.7 | 19.3 | 0.00 | 0.03 | 0.03 | 75 | 1010.7 |
| 20260510021551 | 26 | 360 | 11.3 | 19.3 | 0.00 | 0.03 | 0.03 | 75 | 1010.7 |
| 20260510021431 | 26 | 360 | 11.3 | 20.9 | 0.00 | 0.03 | 0.03 | 75 | 1010.7 |
| 20260510021352 | 26 | 360 | 11.3 | 20.9 | 0.00 | 0.03 | 0.03 | 75 | 1010.7 |
| 20260510021252 | 26 | 360 | 11.3 | 20.9 | 0.00 | 0.03 | 0.03 | 75 | 1010.8 |
| 20260510021152 | 26 | 360 | 12.9 | 20.9 | 0.00 | 0.03 | 0.03 | 75 | 1010.7 |
| 20260510021031 | 26 | 360 | 11.3 | 20.9 | 0.00 | 0.03 | 0.03 | 75 | 1010.7 |
| 20260510020932 | 26 | 360 | 12.9 | 20.9 | 0.00 | 0.03 | 0.03 | 75 | 1010.7 |
| 20260510020831 | 26 | 360 | 14.5 | 20.9 | 0.00 | 0.03 | 0.03 | 75 | 1010.6 |
| 20260510020731 | 26 | 360 | 12.9 | 20.9 | 0.00 | 0.03 | 0.03 | 75 | 1010.7 |
| 20260510020634 | 26 | 360 | 12.9 | 20.9 | 0.00 | 0.03 | 0.03 | 75 | 1010.7 |
| 20260510020517 | 26 | 360 | 12.9 | 20.9 | 0.00 | 0.03 | 0.03 | 75 | 1010.7 |
| 20260510020437 | 26 | 360 | 11.3 | 17.7 | 0.00 | 0.03 | 0.03 | 74 | 1010.6 |
| 20260510020316 | 26 | 360 | 11.3 | 17.7 | 0.00 | 0.03 | 0.03 | 74 | 1010.6 |
| 20260510020217 | 27 | 360 | 11.3 | 17.7 | 0.00 | 0.03 | 0.03 | 74 | 1010.6 |
| 20260510020118 | 26 | 360 | 11.3 | 17.7 | 0.00 | 0.03 | 0.03 | 74 | 1010.6 |
| 20260510020018 | 26 | 360 | 11.3 | 17.7 | 0.00 | 0.03 | 0.03 | 74 | 1010.5 |
| 20260510015943 | 26 | 360 | 11.3 | 17.7 | 0.00 | 0.03 | 0.03 | 74 | 1010.6 |
| 20260510015823 | 26 | 360 | 11.3 | 17.7 | 0.00 | 0.03 | 0.03 | 74 | 1010.6 |
| 20260510015722 | 26 | 360 | 11.3 | 17.7 | 0.00 | 0.03 | 0.03 | 74 | 1010.5 |
| 20260510015622 | 26 | 360 | 9.7 | 17.7 | 0.00 | 0.03 | 0.03 | 74 | 1010.5 |
| 20260510015522 | 27 | 360 | 9.7 | 16.1 | 0.00 | 0.03 | 0.03 | 74 | 1010.5 |
| 20260510015423 | 26 | 360 | 9.7 | 16.1 | 0.00 | 0.03 | 0.03 | 74 | 1010.5 |
| 20260510015323 | 26 | 360 | 9.7 | 14.5 | 0.00 | 0.03 | 0.03 | 74 | 1010.5 |
| 20260510015228 | 26 | 360 | 9.7 | 14.5 | 0.00 | 0.03 | 0.03 | 74 | 1010.5 |
| 20260510015149 | 26 | 360 | 9.7 | 14.5 | 0.00 | 0.03 | 0.03 | 74 | 1010.4 |
| 20260510015048 | 26 | 360 | 9.7 | 14.5 | 0.00 | 0.03 | 0.03 | 74 | 1010.5 |
| 20260510014948 | 26 | 360 | 8.0 | 14.5 | 0.00 | 0.03 | 0.03 | 74 | 1010.5 |
| 20260510014827 | 27 | 360 | 8.0 | 14.5 | 0.00 | 0.03 | 0.03 | 74 | 1010.5 |
| 20260510014727 | 27 | 360 | 8.0 | 12.9 | 0.00 | 0.03 | 0.03 | 74 | 1010.4 |
| 20260510014627 | 27 | 360 | 6.4 | 9.7 | 0.00 | 0.03 | 0.03 | 74 | 1010.4 |
| 20260510014528 | 27 | 360 | 6.4 | 9.7 | 0.00 | 0.03 | 0.03 | 74 | 1010.4 |
| 20260510014428 | 27 | 360 | 6.4 | 8.0 | 0.00 | 0.03 | 0.03 | 73 | 1010.4 |
| 20260510014352 | 27 | 360 | 6.4 | 8.0 | 0.00 | 0.03 | 0.03 | 73 | 1010.3 |
| 20260510014232 | 27 | 360 | 6.4 | 8.0 | 0.00 | 0.03 | 0.03 | 73 | 1010.4 |
| 20260510014133 | 27 | 360 | 6.4 | 8.0 | 0.00 | 0.03 | 0.03 | 73 | 1010.3 |
| 20260510014054 | 27 | 360 | 4.8 | 8.0 | 0.00 | 0.03 | 0.03 | 73 | 1010.4 |
| 20260510013933 | 27 | 360 | 4.8 | 8.0 | 0.00 | 0.03 | 0.03 | 73 | 1010.4 |
| 20260510013834 | 27 | 360 | 4.8 | 6.4 | 0.00 | 0.03 | 0.03 | 73 | 1010.4 |
| 20260510013735 | 27 | 360 | 4.8 | 6.4 | 0.00 | 0.03 | 0.03 | 72 | 1010.3 |
| 20260510013620 | 27 | 360 | 4.8 | 6.4 | 0.00 | 0.03 | 0.03 | 72 | 1010.4 |
| 20260510013521 | 27 | 360 | 4.8 | 6.4 | 0.00 | 0.03 | 0.03 | 72 | 1010.3 |
| 20260510013422 | 27 | 360 | 4.8 | 6.4 | 0.00 | 0.03 | 0.03 | 72 | 1010.3 |
| 20260510013324 | 27 | 360 | 4.8 | 6.4 | 0.00 | 0.03 | 0.03 | 72 | 1010.2 |
| 20260510013225 | 27 | 360 | 4.8 | 6.4 | 0.00 | 0.03 | 0.03 | 72 | 1010.2 |
| 20260510013125 | 27 | 360 | 4.8 | 6.4 | 0.00 | 0.03 | 0.03 | 73 | 1010.3 |
| 20260510013029 | 27 | 360 | 4.8 | 6.4 | 0.00 | 0.03 | 0.03 | 72 | 1010.3 |
| 20260510012930 | 27 | 360 | 4.8 | 6.4 | 0.00 | 0.03 | 0.03 | 72 | 1010.3 |
| 20260510012850 | 27 | 360 | 4.8 | 8.0 | 0.00 | 0.03 | 0.03 | 72 | 1010.2 |
| 20260510012731 | 27 | 360 | 4.8 | 8.0 | 0.00 | 0.03 | 0.03 | 72 | 1010.2 |
| 20260510012630 | 27 | 360 | 4.8 | 8.0 | 0.00 | 0.03 | 0.03 | 71 | 1010.3 |
| 20260510012531 | 27 | 360 | 4.8 | 8.0 | 0.00 | 0.03 | 0.03 | 71 | 1010.3 |
| 20260510012432 | 27 | 360 | 4.8 | 8.0 | 0.00 | 0.03 | 0.03 | 71 | 1010.3 |
| 20260510012336 | 27 | 360 | 4.8 | 8.0 | 0.00 | 0.03 | 0.03 | 71 | 1010.2 |
| 20260510012216 | 27 | 360 | 4.8 | 8.0 | 0.00 | 0.03 | 0.03 | 71 | 1010.2 |
| 20260510012117 | 27 | 360 | 4.8 | 8.0 | 0.00 | 0.03 | 0.03 | 71 | 1010.2 |
| 20260510012017 | 27 | 360 | 4.8 | 8.0 | 0.00 | 0.03 | 0.03 | 71 | 1010.2 |
| 20260510011919 | 27 | 360 | 4.8 | 8.0 | 0.00 | 0.03 | 0.03 | 71 | 1010.2 |
| 20260510011820 | 27 | 360 | 4.8 | 8.0 | 0.00 | 0.03 | 0.03 | 71 | 1010.2 |
| 20260510011727 | 27 | 360 | 4.8 | 12.9 | 0.00 | 0.03 | 0.03 | 70 | 1010.2 |
| 20260510011626 | 27 | 360 | 4.8 | 12.9 | 0.00 | 0.03 | 0.03 | 70 | 1010.3 |
| 20260510011525 | 27 | 360 | 6.4 | 12.9 | 0.00 | 0.03 | 0.03 | 70 | 1010.2 |
| 20260510011426 | 27 | 360 | 6.4 | 12.9 | 0.00 | 0.03 | 0.03 | 70 | 1010.2 |
| 20260510011327 | 27 | 360 | 6.4 | 12.9 | 0.00 | 0.03 | 0.03 | 70 | 1010.1 |
| 20260510011226 | 27 | 360 | 6.4 | 12.9 | 0.00 | 0.03 | 0.03 | 70 | 1010.2 |
| 20260510011127 | 27 | 360 | 6.4 | 12.9 | 0.00 | 0.03 | 0.03 | 70 | 1010.2 |
| 20260510011031 | 27 | 360 | 6.4 | 12.9 | 0.00 | 0.03 | 0.03 | 69 | 1010.2 |
| 20260510010932 | 27 | 360 | 6.4 | 14.5 | 0.00 | 0.03 | 0.03 | 69 | 1010.2 |
| 20260510010833 | 27 | 360 | 6.4 | 14.5 | 0.00 | 0.03 | 0.03 | 69 | 1010.2 |
| 20260510010733 | 27 | 360 | 6.4 | 14.5 | 0.00 | 0.03 | 0.03 | 69 | 1010.2 |
| 20260510010653 | 27 | 360 | 8.0 | 14.5 | 0.00 | 0.03 | 0.03 | 69 | 1010.1 |
| 20260510010533 | 28 | 360 | 8.0 | 14.5 | 0.00 | 0.03 | 0.03 | 69 | 1010.2 |
| 20260510010419 | 28 | 360 | 8.0 | 14.5 | 0.00 | 0.03 | 0.03 | 69 | 1010.1 |
| 20260510010319 | 28 | 360 | 8.0 | 14.5 | 0.00 | 0.03 | 0.03 | 69 | 1010.1 |
| 20260510010220 | 28 | 360 | 8.0 | 14.5 | 0.00 | 0.03 | 0.03 | 69 | 1010.1 |
| 20260510010119 | 28 | 360 | 8.0 | 16.1 | 0.00 | 0.03 | 0.03 | 69 | 1010.1 |
| 20260510010020 | 28 | 360 | 8.0 | 16.1 | 0.00 | 0.03 | 0.03 | 69 | 1010.0 |
| 20260510005920 | 28 | 360 | 8.0 | 16.1 | 0.00 | 0.03 | 0.03 | 69 | 1010.0 |
| 20260510005822 | 28 | 360 | 8.0 | 16.1 | 0.00 | 0.03 | 0.03 | 69 | 1010.0 |
| 20260510005746 | 28 | 360 | 8.0 | 16.1 | 0.00 | 0.03 | 0.03 | 69 | 1010.1 |
| 20260510005627 | 28 | 360 | 8.0 | 16.1 | 0.00 | 0.03 | 0.03 | 68 | 1010.1 |
| 20260510005526 | 28 | 360 | 9.7 | 16.1 | 0.00 | 0.03 | 0.03 | 68 | 1010.1 |
| 20260510005427 | 28 | 360 | 9.7 | 17.7 | 0.00 | 0.03 | 0.03 | 68 | 1010.0 |
| 20260510005326 | 28 | 360 | 8.0 | 17.7 | 0.00 | 0.03 | 0.03 | 68 | 1010.0 |
| 20260510005227 | 28 | 360 | 8.0 | 17.7 | 0.00 | 0.03 | 0.03 | 68 | 1010.0 |
| 20260510005127 | 28 | 360 | 8.0 | 17.7 | 0.00 | 0.03 | 0.03 | 68 | 1010.0 |
| 20260510005032 | 28 | 360 | 8.0 | 17.7 | 0.00 | 0.03 | 0.03 | 68 | 1010.0 |
| 20260510004932 | 28 | 360 | 8.0 | 17.7 | 0.00 | 0.03 | 0.03 | 68 | 1010.0 |
| 20260510004832 | 28 | 360 | 8.0 | 17.7 | 0.00 | 0.03 | 0.03 | 68 | 1010.0 |
| 20260510004733 | 28 | 360 | 8.0 | 17.7 | 0.00 | 0.03 | 0.03 | 68 | 1010.0 |
| 20260510004634 | 28 | 360 | 9.7 | 17.7 | 0.00 | 0.03 | 0.03 | 68 | 1010.0 |
| 20260510004535 | 28 | 360 | 9.7 | 17.7 | 0.00 | 0.03 | 0.03 | 67 | 1009.9 |
| 20260510004419 | 28 | 360 | 9.7 | 17.7 | 0.00 | 0.03 | 0.03 | 67 | 1010.0 |
| 20260510004320 | 28 | 360 | 9.7 | 17.7 | 0.00 | 0.03 | 0.03 | 67 | 1009.9 |
| 20260510004221 | 28 | 360 | 8.0 | 17.7 | 0.00 | 0.03 | 0.03 | 67 | 1009.9 |
| 20260510004122 | 28 | 360 | 8.0 | 17.7 | 0.00 | 0.03 | 0.03 | 67 | 1009.9 |
| 20260510004024 | 28 | 360 | 6.4 | 16.1 | 0.00 | 0.03 | 0.03 | 67 | 1009.9 |
| 20260510003924 | 28 | 360 | 6.4 | 16.1 | 0.00 | 0.03 | 0.03 | 67 | 1009.9 |
| 20260510003829 | 28 | 360 | 6.4 | 16.1 | 0.00 | 0.03 | 0.03 | 67 | 1009.9 |
| 20260510003729 | 28 | 360 | 8.0 | 16.1 | 0.00 | 0.03 | 0.03 | 67 | 1009.9 |
| 20260510003630 | 28 | 360 | 8.0 | 16.1 | 0.00 | 0.03 | 0.03 | 66 | 1009.9 |
| 20260510003530 | 28 | 360 | 9.7 | 16.1 | 0.00 | 0.03 | 0.03 | 66 | 1009.9 |
| 20260510003431 | 28 | 360 | 11.3 | 16.1 | 0.00 | 0.03 | 0.03 | 66 | 1009.9 |
| 20260510003331 | 28 | 360 | 11.3 | 16.1 | 0.00 | 0.03 | 0.03 | 66 | 1009.9 |
| 20260510003216 | 28 | 360 | 9.7 | 16.1 | 0.00 | 0.03 | 0.03 | 66 | 1009.9 |
| 20260510003116 | 28 | 360 | 9.7 | 16.1 | 0.00 | 0.03 | 0.03 | 66 | 1009.8 |
| 20260510003017 | 28 | 360 | 9.7 | 16.1 | 0.00 | 0.03 | 0.03 | 66 | 1009.8 |
| 20260510002916 | 28 | 360 | 9.7 | 16.1 | 0.00 | 0.03 | 0.03 | 66 | 1009.9 |
| 20260510002817 | 28 | 360 | 9.7 | 16.1 | 0.00 | 0.03 | 0.03 | 65 | 1009.8 |
| 20260510002717 | 28 | 360 | 9.7 | 19.3 | 0.00 | 0.03 | 0.03 | 65 | 1009.8 |
| 20260510002619 | 28 | 360 | 9.7 | 19.3 | 0.00 | 0.03 | 0.03 | 65 | 1009.7 |
| 20260510002523 | 28 | 360 | 11.3 | 19.3 | 0.00 | 0.03 | 0.03 | 65 | 1009.8 |
| 20260510002423 | 29 | 360 | 9.7 | 19.3 | 0.00 | 0.03 | 0.03 | 65 | 1009.8 |
| 20260510002324 | 29 | 360 | 11.3 | 19.3 | 0.00 | 0.03 | 0.03 | 65 | 1009.8 |
| 20260510002244 | 29 | 360 | 11.3 | 19.3 | 0.00 | 0.03 | 0.03 | 65 | 1009.8 |
| 20260510002144 | 29 | 360 | 11.3 | 19.3 | 0.00 | 0.03 | 0.03 | 65 | 1009.8 |
| 20260510002023 | 29 | 360 | 11.3 | 19.3 | 0.00 | 0.03 | 0.03 | 65 | 1009.7 |
| 20260510001924 | 29 | 360 | 11.3 | 19.3 | 0.00 | 0.03 | 0.03 | 64 | 1009.7 |
| 20260510001824 | 29 | 360 | 9.7 | 17.7 | 0.00 | 0.03 | 0.03 | 64 | 1009.7 |
| 20260510001729 | 29 | 360 | 9.7 | 17.7 | 0.00 | 0.03 | 0.03 | 64 | 1009.7 |
| 20260510001629 | 29 | 360 | 8.0 | 16.1 | 0.00 | 0.03 | 0.03 | 64 | 1009.7 |
| 20260510001529 | 29 | 360 | 8.0 | 17.7 | 0.00 | 0.03 | 0.03 | 64 | 1009.7 |
| 20260510001429 | 29 | 360 | 8.0 | 17.7 | 0.00 | 0.03 | 0.03 | 64 | 1009.7 |
| 20260510001330 | 29 | 360 | 8.0 | 17.7 | 0.00 | 0.03 | 0.03 | 64 | 1009.7 |
| 20260510001230 | 29 | 360 | 8.0 | 17.7 | 0.00 | 0.03 | 0.03 | 64 | 1009.6 |
| 20260510001131 | 29 | 360 | 9.7 | 17.7 | 0.00 | 0.03 | 0.03 | 64 | 1009.7 |
| 20260510001036 | 29 | 360 | 11.3 | 17.7 | 0.00 | 0.03 | 0.03 | 64 | 1009.6 |
| 20260510000955 | 29 | 360 | 11.3 | 17.7 | 0.00 | 0.03 | 0.03 | 64 | 1009.7 |
| 20260510000835 | 29 | 360 | 11.3 | 17.7 | 0.00 | 0.03 | 0.03 | 63 | 1009.7 |
| 20260510000735 | 29 | 360 | 9.7 | 16.1 | 0.00 | 0.03 | 0.03 | 63 | 1009.7 |
| 20260510000635 | 29 | 360 | 8.0 | 16.1 | 0.00 | 0.03 | 0.03 | 63 | 1009.6 |
| 20260510000535 | 29 | 360 | 6.4 | 16.1 | 0.00 | 0.03 | 0.03 | 63 | 1009.6 |
| 20260510000435 | 29 | 360 | 4.8 | 16.1 | 0.00 | 0.03 | 0.03 | 63 | 1009.6 |
| 20260510000320 | 29 | 360 | 4.8 | 16.1 | 0.00 | 0.03 | 0.03 | 63 | 1009.6 |
| 20260510000221 | 29 | 360 | 6.4 | 16.1 | 0.00 | 0.03 | 0.03 | 63 | 1009.6 |
| 20260510000142 | 29 | 360 | 8.0 | 16.1 | 0.00 | 0.03 | 0.03 | 63 | 1009.7 |
| 20260510000022 | 29 | 360 | 8.0 | 16.1 | 0.00 | 0.03 | 0.03 | 63 | 1009.6 |
| 20260509235921 | 29 | 360 | 9.7 | 16.1 | 0.00 | 0.03 | 0.03 | 63 | 1009.6 |
| 20260509235824 | 29 | 360 | 11.3 | 16.1 | 0.00 | 0.03 | 0.03 | 62 | 1009.6 |
| 20260509235723 | 29 | 360 | 11.3 | 16.1 | 0.00 | 0.03 | 0.03 | 62 | 1009.6 |
| 20260509235629 | 29 | 360 | 9.7 | 16.1 | 0.00 | 0.03 | 0.03 | 62 | 1009.6 |
| 20260509235549 | 29 | 360 | 9.7 | 17.7 | 0.00 | 0.03 | 0.03 | 62 | 1009.7 |
| 20260509235428 | 29 | 360 | 9.7 | 17.7 | 0.00 | 0.03 | 0.03 | 61 | 1009.6 |
| 20260509235329 | 29 | 360 | 9.7 | 17.7 | 0.00 | 0.03 | 0.03 | 61 | 1009.6 |
| 20260509235229 | 30 | 360 | 9.7 | 17.7 | 0.00 | 0.03 | 0.03 | 61 | 1009.5 |
| 20260509235130 | 30 | 360 | 9.7 | 17.7 | 0.00 | 0.03 | 0.03 | 61 | 1009.6 |
| 20260509235050 | 30 | 360 | 9.7 | 17.7 | 0.00 | 0.03 | 0.03 | 61 | 1009.5 |
| 20260509234934 | 30 | 360 | 9.7 | 17.7 | 0.00 | 0.03 | 0.03 | 61 | 1009.5 |
| 20260509234834 | 30 | 360 | 9.7 | 17.7 | 0.00 | 0.03 | 0.03 | 61 | 1009.5 |
| 20260509234755 | 30 | 360 | 11.3 | 17.7 | 0.00 | 0.03 | 0.03 | 61 | 1009.5 |
| 20260509234653 | 30 | 360 | 9.7 | 17.7 | 0.00 | 0.03 | 0.03 | 60 | 1009.4 |
| 20260509234533 | 30 | 360 | 9.7 | 16.1 | 0.00 | 0.03 | 0.03 | 59 | 1009.4 |
| 20260509234434 | 30 | 360 | 9.7 | 16.1 | 0.00 | 0.03 | 0.03 | 59 | 1009.4 |
| 20260509234334 | 30 | 360 | 8.0 | 17.7 | 0.00 | 0.03 | 0.03 | 59 | 1009.4 |
| 20260509234255 | 30 | 360 | 8.0 | 19.3 | 0.00 | 0.03 | 0.03 | 59 | 1009.4 |
| 20260509234117 | 30 | 360 | 8.0 | 19.3 | 0.00 | 0.03 | 0.03 | 59 | 1009.4 |
| 20260509234038 | 30 | 360 | 8.0 | 19.3 | 0.00 | 0.03 | 0.03 | 59 | 1009.4 |
| 20260509233937 | 30 | 360 | 9.7 | 19.3 | 0.00 | 0.03 | 0.03 | 59 | 1009.4 |
| 20260509233858 | 30 | 360 | 11.3 | 19.3 | 0.00 | 0.03 | 0.03 | 59 | 1009.4 |
| 20260509233757 | 30 | 360 | 11.3 | 19.3 | 0.00 | 0.03 | 0.03 | 59 | 1009.4 |
| 20260509233617 | 30 | 360 | 12.9 | 19.3 | 0.00 | 0.03 | 0.03 | 59 | 1009.4 |
| 20260509233517 | 30 | 360 | 12.9 | 19.3 | 0.00 | 0.03 | 0.03 | 58 | 1009.3 |
| 20260509233417 | 30 | 360 | 12.9 | 19.3 | 0.00 | 0.03 | 0.03 | 59 | 1009.3 |
| 20260509233322 | 30 | 360 | 12.9 | 19.3 | 0.00 | 0.03 | 0.03 | 59 | 1009.4 |
| 20260509233223 | 30 | 360 | 11.3 | 19.3 | 0.00 | 0.03 | 0.03 | 59 | 1009.4 |
| 20260509233123 | 30 | 360 | 11.3 | 19.3 | 0.00 | 0.03 | 0.03 | 58 | 1009.3 |
| 20260509233024 | 30 | 360 | 12.9 | 19.3 | 0.00 | 0.03 | 0.03 | 58 | 1009.4 |
| 20260509232923 | 30 | 360 | 12.9 | 19.3 | 0.00 | 0.03 | 0.03 | 58 | 1009.3 |
| 20260509232825 | 30 | 360 | 12.9 | 19.3 | 0.00 | 0.03 | 0.03 | 59 | 1009.3 |
| 20260509232745 | 30 | 360 | 12.9 | 19.3 | 0.00 | 0.03 | 0.03 | 58 | 1009.2 |
| 20260509232629 | 30 | 360 | 12.9 | 19.3 | 0.00 | 0.03 | 0.03 | 58 | 1009.2 |
| 20260509232529 | 30 | 360 | 12.9 | 19.3 | 0.00 | 0.03 | 0.03 | 58 | 1009.4 |
| 20260509232428 | 30 | 360 | 11.3 | 20.9 | 0.00 | 0.03 | 0.03 | 59 | 1009.4 |
| 20260509232348 | 30 | 360 | 9.7 | 20.9 | 0.00 | 0.03 | 0.03 | 58 | 1009.3 |
| 20260509232227 | 30 | 360 | 9.7 | 20.9 | 0.00 | 0.03 | 0.03 | 58 | 1009.3 |
| 20260509232128 | 30 | 360 | 11.3 | 20.9 | 0.00 | 0.03 | 0.03 | 57 | 1009.3 |
| 20260509232029 | 30 | 360 | 11.3 | 20.9 | 0.00 | 0.03 | 0.03 | 57 | 1009.3 |
| 20260509231928 | 30 | 360 | 11.3 | 20.9 | 0.00 | 0.03 | 0.03 | 57 | 1009.3 |
| 20260509231833 | 30 | 360 | 12.9 | 20.9 | 0.00 | 0.03 | 0.03 | 57 | 1009.3 |
| 20260509231754 | 30 | 360 | 12.9 | 20.9 | 0.00 | 0.03 | 0.03 | 57 | 1009.2 |
| 20260509231634 | 30 | 360 | 11.3 | 20.9 | 0.00 | 0.03 | 0.03 | 57 | 1009.2 |
| 20260509231533 | 30 | 360 | 11.3 | 19.3 | 0.00 | 0.03 | 0.03 | 56 | 1009.2 |
| 20260509231434 | 30 | 360 | 11.3 | 19.3 | 0.00 | 0.03 | 0.03 | 56 | 1009.3 |
| 20260509231335 | 30 | 360 | 11.3 | 19.3 | 0.00 | 0.03 | 0.03 | 56 | 1009.2 |
| 20260509231219 | 30 | 360 | 11.3 | 19.3 | 0.00 | 0.03 | 0.03 | 55 | 1009.3 |
| 20260509231120 | 30 | 360 | 11.3 | 17.7 | 0.00 | 0.03 | 0.03 | 55 | 1009.2 |
| 20260509231040 | 30 | 360 | 9.7 | 17.7 | 0.00 | 0.03 | 0.03 | 54 | 1009.3 |
| 20260509230919 | 30 | 360 | 8.0 | 17.7 | 0.00 | 0.03 | 0.03 | 54 | 1009.3 |
| 20260509230821 | 30 | 360 | 9.7 | 17.7 | 0.00 | 0.03 | 0.03 | 54 | 1009.3 |
| 20260509230721 | 30 | 360 | 9.7 | 17.7 | 0.00 | 0.03 | 0.03 | 53 | 1009.2 |
| 20260509230621 | 30 | 360 | 9.7 | 17.7 | 0.00 | 0.03 | 0.03 | 52 | 1009.3 |
| 20260509230526 | 30 | 360 | 9.7 | 17.7 | 0.00 | 0.03 | 0.03 | 52 | 1009.3 |
| 20260509230427 | 30 | 360 | 9.7 | 17.7 | 0.00 | 0.03 | 0.03 | 52 | 1009.3 |
| 20260509230329 | 30 | 360 | 11.3 | 17.7 | 0.00 | 0.03 | 0.03 | 52 | 1009.2 |
| 20260509230248 | 30 | 360 | 9.7 | 17.7 | 0.00 | 0.03 | 0.03 | 52 | 1009.3 |
| 20260509230148 | 30 | 360 | 11.3 | 17.7 | 0.00 | 0.03 | 0.03 | 51 | 1009.2 |
| 20260509230025 | 30 | 360 | 11.3 | 17.7 | 0.00 | 0.03 | 0.03 | 51 | 1009.3 |
| 20260509225924 | 30 | 360 | 11.3 | 17.7 | 0.00 | 0.03 | 0.03 | 51 | 1009.3 |
| 20260509225825 | 30 | 360 | 9.7 | 17.7 | 0.00 | 0.03 | 0.03 | 51 | 1009.3 |
| 20260509225728 | 30 | 360 | 9.7 | 17.7 | 0.00 | 0.03 | 0.03 | 51 | 1009.2 |
| 20260509225627 | 31 | 360 | 8.0 | 17.7 | 0.00 | 0.03 | 0.03 | 51 | 1009.2 |
| 20260509225528 | 30 | 360 | 8.0 | 17.7 | 0.00 | 0.03 | 0.03 | 51 | 1009.3 |
| 20260509225429 | 30 | 360 | 9.7 | 17.7 | 0.00 | 0.03 | 0.03 | 51 | 1009.2 |
| 20260509225328 | 30 | 360 | 8.0 | 19.3 | 0.00 | 0.03 | 0.03 | 50 | 1009.2 |
| 20260509225229 | 30 | 360 | 8.0 | 19.3 | 0.00 | 0.03 | 0.03 | 49 | 1009.3 |
| 20260509225150 | 31 | 360 | 9.7 | 19.3 | 0.00 | 0.03 | 0.03 | 49 | 1009.3 |
| 20260509225032 | 31 | 360 | 9.7 | 19.3 | 0.00 | 0.03 | 0.03 | 49 | 1009.2 |
| 20260509224953 | 31 | 360 | 9.7 | 19.3 | 0.00 | 0.03 | 0.03 | 48 | 1009.2 |
| 20260509224852 | 31 | 360 | 8.0 | 19.3 | 0.00 | 0.03 | 0.03 | 48 | 1009.3 |
| 20260509224733 | 31 | 360 | 9.7 | 19.3 | 0.00 | 0.03 | 0.03 | 47 | 1009.2 |
| 20260509224633 | 31 | 360 | 9.7 | 19.3 | 0.00 | 0.03 | 0.03 | 47 | 1009.2 |
| 20260509224535 | 31 | 360 | 9.7 | 19.3 | 0.00 | 0.03 | 0.03 | 47 | 1009.2 |
| 20260509224435 | 31 | 360 | 9.7 | 19.3 | 0.00 | 0.03 | 0.03 | 47 | 1009.2 |
| 20260509224322 | 31 | 360 | 9.7 | 19.3 | 0.00 | 0.03 | 0.03 | 46 | 1009.3 |
| 20260509224222 | 31 | 360 | 11.3 | 19.3 | 0.00 | 0.03 | 0.03 | 46 | 1009.2 |
| 20260509224122 | 31 | 360 | 9.7 | 19.3 | 0.00 | 0.03 | 0.03 | 47 | 1009.4 |
| 20260509224043 | 31 | 360 | 8.0 | 20.9 | 0.00 | 0.03 | 0.03 | 47 | 1009.2 |
| 20260509223923 | 31 | 115 | 8.0 | 20.9 | 0.00 | 0.03 | 0.03 | 47 | 1009.2 |
| 20260509223823 | 31 | 360 | 8.0 | 20.9 | 0.00 | 0.03 | 0.03 | 47 | 1009.3 |
| 20260509223724 | 31 | 360 | 8.0 | 20.9 | 0.00 | 0.03 | 0.03 | 47 | 1009.3 |
| 20260509223628 | 31 | 360 | 8.0 | 20.9 | 0.00 | 0.03 | 0.03 | 47 | 1009.3 |
| 20260509223528 | 31 | 360 | 9.7 | 20.9 | 0.00 | 0.03 | 0.03 | 48 | 1009.3 |
| 20260509223430 | 31 | 360 | 9.7 | 17.7 | 0.00 | 0.03 | 0.03 | 47 | 1009.3 |
| 20260509223331 | 31 | 360 | 9.7 | 17.7 | 0.00 | 0.03 | 0.03 | 47 | 1009.3 |
| 20260509223252 | 31 | 360 | 11.3 | 17.7 | 0.00 | 0.03 | 0.03 | 47 | 1009.2 |
| 20260509223152 | 31 | 360 | 9.7 | 17.7 | 0.00 | 0.03 | 0.03 | 48 | 1009.2 |
| 20260509223030 | 31 | 360 | 9.7 | 17.7 | 0.00 | 0.03 | 0.03 | 48 | 1009.2 |
| 20260509222951 | 31 | 360 | 9.7 | 17.7 | 0.00 | 0.03 | 0.03 | 48 | 1009.2 |
| 20260509222834 | 31 | 360 | 9.7 | 17.7 | 0.00 | 0.03 | 0.03 | 48 | 1009.2 |
| 20260509222736 | 31 | 360 | 8.0 | 17.7 | 0.00 | 0.03 | 0.03 | 48 | 1009.2 |
| 20260509222616 | 31 | 360 | 8.0 | 16.1 | 0.00 | 0.03 | 0.03 | 49 | 1009.1 |
| 20260509222517 | 31 | 360 | 9.7 | 16.1 | 0.00 | 0.03 | 0.03 | 50 | 1009.1 |
| 20260509222418 | 31 | 360 | 9.7 | 16.1 | 0.00 | 0.03 | 0.03 | 51 | 1009.1 |
| 20260509222338 | 31 | 360 | 8.0 | 16.1 | 0.00 | 0.03 | 0.03 | 51 | 1009.1 |
| 20260509222218 | 31 | 360 | 8.0 | 16.1 | 0.00 | 0.03 | 0.03 | 51 | 1009.1 |
| 20260509222122 | 31 | 360 | 8.0 | 16.1 | 0.00 | 0.03 | 0.03 | 51 | 1009.2 |
| 20260509222023 | 31 | 360 | 9.7 | 16.1 | 0.00 | 0.03 | 0.03 | 51 | 1009.0 |
| 20260509221923 | 31 | 360 | 8.0 | 16.1 | 0.00 | 0.03 | 0.03 | 51 | 1009.2 |
| 20260509221824 | 31 | 360 | 6.4 | 16.1 | 0.00 | 0.03 | 0.03 | 52 | 1009.1 |
| 20260509221725 | 31 | 360 | 6.4 | 16.1 | 0.00 | 0.03 | 0.03 | 52 | 1009.1 |
| 20260509221625 | 31 | 360 | 8.0 | 16.1 | 0.00 | 0.03 | 0.03 | 52 | 1009.1 |
| 20260509221529 | 30 | 360 | 8.0 | 16.1 | 0.00 | 0.03 | 0.03 | 52 | 1009.1 |
| 20260509221431 | 30 | 360 | 8.0 | 14.5 | 0.00 | 0.03 | 0.03 | 52 | 1009.1 |
| 20260509221332 | 30 | 360 | 8.0 | 14.5 | 0.00 | 0.03 | 0.03 | 52 | 1009.1 |
| 20260509221232 | 30 | 360 | 8.0 | 14.5 | 0.00 | 0.03 | 0.03 | 52 | 1009.1 |
| 20260509221154 | 30 | 360 | 8.0 | 14.5 | 0.00 | 0.03 | 0.03 | 53 | 1009.1 |
| 20260509221034 | 30 | 360 | 8.0 | 14.5 | 0.00 | 0.03 | 0.03 | 52 | 1009.1 |
| 20260509220955 | 30 | 360 | 8.0 | 14.5 | 0.00 | 0.03 | 0.03 | 52 | 1009.1 |
| 20260509220854 | 30 | 360 | 8.0 | 14.5 | 0.00 | 0.03 | 0.03 | 52 | 1009.0 |
| 20260509220718 | 31 | 360 | 6.4 | 12.9 | 0.00 | 0.03 | 0.03 | 53 | 1009.0 |
| 20260509220619 | 31 | 360 | 6.4 | 9.7 | 0.00 | 0.03 | 0.03 | 53 | 1009.0 |
| 20260509220519 | 31 | 360 | 6.4 | 9.7 | 0.00 | 0.03 | 0.03 | 53 | 1009.0 |
| 20260509220420 | 31 | 360 | 6.4 | 9.7 | 0.00 | 0.03 | 0.03 | 53 | 1009.0 |
| 20260509220322 | 31 | 360 | 4.8 | 9.7 | 0.00 | 0.03 | 0.03 | 53 | 1009.0 |
| 20260509220221 | 31 | 360 | 4.8 | 9.7 | 0.00 | 0.03 | 0.03 | 53 | 1009.1 |
| 20260509220126 | 31 | 69 | 4.8 | 9.7 | 0.00 | 0.03 | 0.03 | 53 | 1009.1 |
| 20260509220024 | 31 | 71 | 3.2 | 9.7 | 0.00 | 0.03 | 0.03 | 53 | 1009.2 |
| 20260509215925 | 31 | 360 | 3.2 | 9.7 | 0.00 | 0.03 | 0.03 | 53 | 1009.1 |
| 20260509215826 | 31 | 360 | 3.2 | 12.9 | 0.00 | 0.03 | 0.03 | 53 | 1009.1 |
| 20260509215746 | 31 | 360 | 3.2 | 12.9 | 0.00 | 0.03 | 0.03 | 53 | 1009.1 |
| 20260509215626 | 31 | 360 | 3.2 | 12.9 | 0.00 | 0.03 | 0.03 | 53 | 1009.2 |
| 20260509215526 | 31 | 360 | 3.2 | 12.9 | 0.00 | 0.03 | 0.03 | 53 | 1009.1 |
| 20260509215430 | 31 | 360 | 3.2 | 12.9 | 0.00 | 0.03 | 0.03 | 53 | 1009.1 |
| 20260509215351 | 31 | 360 | 3.2 | 12.9 | 0.00 | 0.03 | 0.03 | 53 | 1009.1 |
| 20260509215231 | 31 | 360 | 4.8 | 12.9 | 0.00 | 0.03 | 0.03 | 54 | 1009.2 |
| 20260509215151 | 31 | 360 | 4.8 | 12.9 | 0.00 | 0.03 | 0.03 | 54 | 1009.1 |
| 20260509215030 | 31 | 360 | 4.8 | 12.9 | 0.00 | 0.03 | 0.03 | 54 | 1009.2 |
| 20260509214931 | 30 | 360 | 3.2 | 16.1 | 0.00 | 0.03 | 0.03 | 54 | 1009.2 |
| 20260509214831 | 30 | 360 | 3.2 | 16.1 | 0.00 | 0.03 | 0.03 | 54 | 1009.2 |
| 20260509214732 | 30 | 360 | 3.2 | 16.1 | 0.00 | 0.03 | 0.03 | 54 | 1009.2 |
| 20260509214635 | 30 | 360 | 3.2 | 16.1 | 0.00 | 0.03 | 0.03 | 54 | 1009.2 |
| 20260509214535 | 30 | 360 | 3.2 | 16.1 | 0.00 | 0.03 | 0.03 | 54 | 1009.2 |
| 20260509214416 | 30 | 360 | 3.2 | 16.1 | 0.00 | 0.03 | 0.03 | 54 | 1009.3 |
| 20260509214317 | 30 | 360 | 4.8 | 16.1 | 0.00 | 0.03 | 0.03 | 55 | 1009.3 |
| 20260509214217 | 30 | 360 | 6.4 | 20.9 | 0.00 | 0.03 | 0.03 | 55 | 1009.2 |
| 20260509214117 | 30 | 360 | 6.4 | 20.9 | 0.00 | 0.03 | 0.03 | 55 | 1009.3 |
| 20260509214040 | 30 | 360 | 6.4 | 20.9 | 0.00 | 0.03 | 0.03 | 55 | 1009.3 |
| 20260509213922 | 30 | 360 | 6.4 | 20.9 | 0.00 | 0.03 | 0.03 | 55 | 1009.4 |
| 20260509213823 | 30 | 360 | 6.4 | 20.9 | 0.00 | 0.03 | 0.03 | 55 | 1009.3 |
| 20260509213744 | 30 | 360 | 8.0 | 20.9 | 0.00 | 0.03 | 0.03 | 55 | 1009.3 |
| 20260509213623 | 30 | 360 | 8.0 | 20.9 | 0.00 | 0.03 | 0.03 | 55 | 1009.3 |
| 20260509213523 | 30 | 360 | 8.0 | 20.9 | 0.00 | 0.03 | 0.03 | 55 | 1009.4 |
| 20260509213425 | 30 | 360 | 9.7 | 20.9 | 0.00 | 0.03 | 0.03 | 55 | 1009.4 |
| 20260509213344 | 29 | 360 | 9.7 | 20.9 | 0.00 | 0.03 | 0.03 | 54 | 1009.5 |
| 20260509213229 | 29 | 360 | 11.3 | 20.9 | 0.00 | 0.03 | 0.03 | 54 | 1009.5 |
| 20260509213130 | 29 | 360 | 11.3 | 24.1 | 0.00 | 0.03 | 0.03 | 52 | 1009.5 |
| 20260509213031 | 29 | 360 | 11.3 | 24.1 | 0.00 | 0.03 | 0.03 | 52 | 1009.4 |
| 20260509212932 | 29 | 360 | 9.7 | 24.1 | 0.00 | 0.03 | 0.03 | 52 | 1009.4 |
| 20260509212832 | 29 | 360 | 11.3 | 24.1 | 0.00 | 0.03 | 0.03 | 52 | 1009.5 |
| 20260509212734 | 29 | 360 | 11.3 | 24.1 | 0.00 | 0.03 | 0.03 | 52 | 1009.6 |
| 20260509212619 | 29 | 360 | 11.3 | 24.1 | 0.00 | 0.03 | 0.03 | 52 | 1009.6 |
| 20260509212519 | 29 | 360 | 12.9 | 24.1 | 0.00 | 0.03 | 0.03 | 53 | 1009.7 |
| 20260509212419 | 28 | 360 | 14.5 | 25.7 | 0.00 | 0.03 | 0.03 | 52 | 1009.7 |
| 20260509212320 | 28 | 360 | 12.9 | 25.7 | 0.00 | 0.03 | 0.03 | 52 | 1009.7 |
| 20260509212220 | 28 | 360 | 12.9 | 25.7 | 0.00 | 0.03 | 0.03 | 52 | 1009.8 |
| 20260509212119 | 28 | 360 | 12.9 | 32.2 | 0.00 | 0.03 | 0.03 | 53 | 1009.7 |
| 20260509212020 | 28 | 360 | 11.3 | 32.2 | 0.00 | 0.03 | 0.03 | 53 | 1009.8 |
| 20260509211940 | 28 | 360 | 12.9 | 32.2 | 0.00 | 0.03 | 0.03 | 54 | 1009.7 |
| 20260509211844 | 28 | 360 | 14.5 | 32.2 | 0.00 | 0.03 | 0.03 | 53 | 1009.8 |
| 20260509211723 | 28 | 360 | 14.5 | 32.2 | 0.00 | 0.03 | 0.03 | 53 | 1009.8 |
| 20260509211624 | 27 | 360 | 14.5 | 32.2 | 0.00 | 0.03 | 0.03 | 54 | 1009.8 |
| 20260509211525 | 27 | 360 | 12.9 | 32.2 | 0.00 | 0.03 | 0.03 | 54 | 1009.8 |
| 20260509211446 | 27 | 360 | 11.3 | 32.2 | 0.00 | 0.03 | 0.03 | 54 | 1009.8 |
| 20260509211324 | 27 | 360 | 12.9 | 35.4 | 0.00 | 0.03 | 0.03 | 54 | 1009.9 |
| 20260509211225 | 27 | 360 | 16.1 | 35.4 | 0.00 | 0.03 | 0.03 | 55 | 1009.9 |
| 20260509211145 | 27 | 360 | 17.7 | 35.4 | 0.00 | 0.03 | 0.03 | 55 | 1009.9 |
| 20260509211029 | 27 | 360 | 20.9 | 35.4 | 0.00 | 0.03 | 0.03 | 55 | 1009.9 |
| 20260509210929 | 27 | 360 | 22.5 | 35.4 | 0.00 | 0.03 | 0.03 | 55 | 1009.9 |
| 20260509210830 | 27 | 360 | 20.9 | 35.4 | 0.00 | 0.03 | 0.03 | 54 | 1010.0 |
| 20260509210732 | 27 | 360 | 19.3 | 35.4 | 0.00 | 0.03 | 0.03 | 55 | 1010.0 |
| 20260509210632 | 27 | 360 | 19.3 | 35.4 | 0.00 | 0.03 | 0.03 | 55 | 1010.1 |
| 20260509210533 | 28 | 360 | 19.3 | 32.2 | 0.00 | 0.03 | 0.03 | 56 | 1010.1 |
| 20260509210418 | 28 | 360 | 17.7 | 32.2 | 0.00 | 0.03 | 0.03 | 55 | 1010.0 |
| 20260509210338 | 28 | 360 | 17.7 | 32.2 | 0.00 | 0.03 | 0.03 | 55 | 1009.9 |
| 20260509210237 | 28 | 360 | 17.7 | 32.2 | 0.00 | 0.03 | 0.03 | 55 | 1009.9 |
| 20260509210158 | 28 | 360 | 17.7 | 32.2 | 0.00 | 0.03 | 0.03 | 56 | 1010.0 |
| 20260509210058 | 28 | 360 | 17.7 | 32.2 | 0.00 | 0.03 | 0.03 | 57 | 1009.9 |
| 20260509205957 | 28 | 360 | 17.7 | 32.2 | 0.00 | 0.03 | 0.03 | 57 | 1009.9 |
| 20260509205818 | 28 | 360 | 17.7 | 37.0 | 0.00 | 0.03 | 0.03 | 56 | 1010.0 |
| 20260509205717 | 28 | 360 | 16.1 | 37.0 | 0.00 | 0.03 | 0.03 | 55 | 1010.0 |
| 20260509205621 | 28 | 360 | 14.5 | 37.0 | 0.00 | 0.03 | 0.03 | 55 | 1010.0 |
| 20260509205522 | 28 | 360 | 14.5 | 37.0 | 0.00 | 0.03 | 0.03 | 55 | 1010.0 |
| 20260509205422 | 28 | 360 | 11.3 | 37.0 | 0.00 | 0.03 | 0.03 | 55 | 1010.0 |
| 20260509205323 | 28 | 360 | 12.9 | 37.0 | 0.00 | 0.03 | 0.03 | 55 | 1010.0 |
| 20260509205223 | 28 | 360 | 16.1 | 37.0 | 0.00 | 0.03 | 0.03 | 55 | 1009.9 |
| 20260509205124 | 28 | 360 | 17.7 | 37.0 | 0.00 | 0.03 | 0.03 | 55 | 1010.0 |
| 20260509205025 | 28 | 360 | 19.3 | 37.0 | 0.00 | 0.03 | 0.03 | 55 | 1010.1 |
| 20260509204929 | 28 | 360 | 17.7 | 37.0 | 0.00 | 0.03 | 0.03 | 54 | 1010.1 |
| 20260509204829 | 28 | 360 | 17.7 | 37.0 | 0.00 | 0.03 | 0.03 | 53 | 1010.1 |
| 20260509204730 | 29 | 360 | 12.9 | 37.0 | 0.00 | 0.03 | 0.03 | 56 | 1010.1 |
| 20260509204630 | 29 | 360 | 9.7 | 32.2 | 0.00 | 0.03 | 0.03 | 60 | 1010.1 |
| 20260509204530 | 29 | 360 | 8.0 | 32.2 | 0.00 | 0.03 | 0.03 | 60 | 1010.1 |
| 20260509204430 | 29 | 360 | 8.0 | 32.2 | 0.00 | 0.03 | 0.03 | 60 | 1010.1 |
| 20260509204351 | 28 | 360 | 9.7 | 32.2 | 0.00 | 0.03 | 0.03 | 61 | 1010.1 |
| 20260509204250 | 28 | 360 | 11.3 | 32.2 | 0.00 | 0.03 | 0.03 | 61 | 1010.1 |
| 20260509204134 | 28 | 360 | 12.9 | 32.2 | 0.00 | 0.03 | 0.03 | 61 | 1010.2 |
| 20260509204054 | 28 | 360 | 14.5 | 32.2 | 0.00 | 0.03 | 0.03 | 61 | 1010.2 |
| 20260509203933 | 28 | 360 | 14.5 | 32.2 | 0.00 | 0.03 | 0.03 | 61 | 1010.2 |
| 20260509203831 | 28 | 360 | 17.7 | 32.2 | 0.00 | 0.03 | 0.03 | 61 | 1010.2 |
| 20260509203731 | 28 | 360 | 19.3 | 32.2 | 0.00 | 0.03 | 0.03 | 62 | 1010.3 |
| 20260509203632 | 28 | 360 | 17.7 | 32.2 | 0.00 | 0.03 | 0.03 | 62 | 1010.3 |
| 20260509203516 | 28 | 360 | 16.1 | 29.0 | 0.00 | 0.03 | 0.03 | 64 | 1010.2 |
| 20260509203418 | 28 | 360 | 12.9 | 22.5 | 0.00 | 0.03 | 0.03 | 66 | 1010.2 |
| 20260509203318 | 28 | 360 | 9.7 | 22.5 | 0.00 | 0.03 | 0.03 | 66 | 1010.3 |
| 20260509203219 | 28 | 360 | 9.7 | 22.5 | 0.00 | 0.03 | 0.03 | 66 | 1010.3 |
| 20260509203119 | 28 | 360 | 9.7 | 19.3 | 0.00 | 0.03 | 0.03 | 66 | 1010.3 |
| 20260509203020 | 28 | 360 | 9.7 | 19.3 | 0.00 | 0.03 | 0.03 | 66 | 1010.2 |
| 20260509202919 | 28 | 360 | 9.7 | 19.3 | 0.00 | 0.03 | 0.03 | 65 | 1010.3 |
| 20260509202824 | 28 | 360 | 9.7 | 19.3 | 0.00 | 0.03 | 0.03 | 66 | 1010.3 |
| 20260509202723 | 28 | 360 | 11.3 | 19.3 | 0.00 | 0.03 | 0.03 | 65 | 1010.3 |
| 20260509202621 | 28 | 360 | 12.9 | 20.9 | 0.00 | 0.03 | 0.03 | 65 | 1010.3 |
| 20260509202521 | 29 | 360 | 11.3 | 25.7 | 0.00 | 0.03 | 0.03 | 65 | 1010.3 |
| 20260509202421 | 29 | 360 | 11.3 | 25.7 | 0.00 | 0.03 | 0.03 | 65 | 1010.4 |
| 20260509202322 | 29 | 360 | 11.3 | 25.7 | 0.00 | 0.03 | 0.03 | 65 | 1010.3 |
| 20260509202223 | 29 | 360 | 11.3 | 25.7 | 0.00 | 0.03 | 0.03 | 65 | 1010.3 |
| 20260509202128 | 29 | 360 | 11.3 | 25.7 | 0.00 | 0.03 | 0.03 | 65 | 1010.3 |
| 20260509202049 | 29 | 360 | 12.9 | 25.7 | 0.00 | 0.03 | 0.03 | 63 | 1010.3 |
| 20260509201928 | 30 | 360 | 14.5 | 25.7 | 0.00 | 0.03 | 0.03 | 63 | 1010.3 |
| 20260509201828 | 30 | 360 | 16.1 | 25.7 | 0.00 | 0.03 | 0.03 | 61 | 1010.3 |
| 20260509201729 | 30 | 360 | 14.5 | 25.7 | 0.00 | 0.03 | 0.03 | 61 | 1010.2 |
| 20260509201629 | 31 | 360 | 12.9 | 25.7 | 0.00 | 0.03 | 0.03 | 60 | 1010.3 |
| 20260509201529 | 31 | 360 | 11.3 | 24.1 | 0.00 | 0.03 | 0.03 | 59 | 1010.3 |
| 20260509201434 | 32 | 360 | 9.7 | 19.3 | 0.00 | 0.03 | 0.03 | 55 | 1010.3 |
| 20260509201336 | 32 | 360 | 9.7 | 19.3 | 0.00 | 0.03 | 0.03 | 55 | 1010.3 |
| 20260509201216 | 32 | 360 | 9.7 | 19.3 | 0.00 | 0.03 | 0.03 | 55 | 1010.3 |
| 20260509201137 | 32 | 360 | 9.7 | 19.3 | 0.00 | 0.03 | 0.03 | 55 | 1010.3 |
| 20260509201058 | 32 | 360 | 9.7 | 19.3 | 0.00 | 0.03 | 0.03 | 55 | 1010.3 |
| 20260509200957 | 32 | 17 | 9.7 | 19.3 | 0.00 | 0.03 | 0.03 | 55 | 1010.3 |
| 20260509200816 | 32 | 360 | 8.0 | 17.7 | 0.00 | 0.03 | 0.03 | 55 | 1010.3 |
| 20260509200721 | 32 | 344 | 8.0 | 17.7 | 0.00 | 0.03 | 0.03 | 55 | 1010.4 |
| 20260509200622 | 32 | 360 | 6.4 | 12.9 | 0.00 | 0.03 | 0.03 | 55 | 1010.4 |
| 20260509200523 | 32 | 360 | 6.4 | 12.9 | 0.00 | 0.03 | 0.03 | 54 | 1010.3 |
| 20260509200424 | 32 | 360 | 6.4 | 12.9 | 0.00 | 0.03 | 0.03 | 54 | 1010.4 |
| 20260509200344 | 32 | 360 | 4.8 | 12.9 | 0.00 | 0.03 | 0.03 | 54 | 1010.4 |
| 20260509200224 | 32 | 360 | 4.8 | 9.7 | 0.00 | 0.03 | 0.03 | 54 | 1010.3 |
| 20260509200123 | 32 | 360 | 4.8 | 8.0 | 0.00 | 0.03 | 0.03 | 53 | 1010.3 |
| 20260509200028 | 32 | 360 | 3.2 | 8.0 | 0.00 | 0.03 | 0.03 | 53 | 1010.3 |
| 20260509195928 | 32 | 360 | 3.2 | 6.4 | 0.00 | 0.03 | 0.03 | 53 | 1010.4 |
| 20260509195828 | 32 | 360 | 3.2 | 6.4 | 0.00 | 0.03 | 0.03 | 53 | 1010.4 |
| 20260509195730 | 32 | 360 | 3.2 | 6.4 | 0.00 | 0.03 | 0.03 | 53 | 1010.4 |
| 20260509195628 | 33 | 360 | 1.6 | 8.0 | 0.00 | 0.03 | 0.03 | 51 | 1010.4 |
| 20260509195528 | 33 | 360 | 3.2 | 8.0 | 0.00 | 0.03 | 0.03 | 51 | 1010.4 |
| 20260509195428 | 33 | 360 | 3.2 | 8.0 | 0.00 | 0.03 | 0.03 | 51 | 1010.4 |
| 20260509195333 | 33 | 360 | 3.2 | 8.0 | 0.00 | 0.03 | 0.03 | 52 | 1010.5 |
| 20260509195233 | 33 | 360 | 1.6 | 8.0 | 0.00 | 0.03 | 0.03 | 52 | 1010.4 |
| 20260509195134 | 33 | 360 | 1.6 | 8.0 | 0.00 | 0.03 | 0.03 | 52 | 1010.5 |
| 20260509195034 | 33 | 360 | 1.6 | 8.0 | 0.00 | 0.03 | 0.03 | 51 | 1010.4 |
| 20260509194954 | 33 | 360 | 1.6 | 8.0 | 0.00 | 0.03 | 0.03 | 52 | 1010.5 |
| 20260509194834 | 33 | 360 | 3.2 | 12.9 | 0.00 | 0.03 | 0.03 | 51 | 1010.4 |
| 20260509194719 | 33 | 360 | 3.2 | 12.9 | 0.00 | 0.03 | 0.03 | 53 | 1010.4 |
| 20260509194620 | 33 | 360 | 4.8 | 12.9 | 0.00 | 0.03 | 0.03 | 53 | 1010.4 |
| 20260509194521 | 33 | 360 | 4.8 | 12.9 | 0.00 | 0.03 | 0.03 | 52 | 1010.4 |
| 20260509194420 | 33 | 360 | 6.4 | 12.9 | 0.00 | 0.03 | 0.03 | 52 | 1010.4 |
| 20260509194341 | 33 | 360 | 6.4 | 12.9 | 0.00 | 0.03 | 0.03 | 52 | 1010.5 |
| 20260509194221 | 33 | 360 | 4.8 | 12.9 | 0.00 | 0.03 | 0.03 | 52 | 1010.4 |
| 20260509194122 | 33 | 360 | 4.8 | 12.9 | 0.00 | 0.03 | 0.03 | 52 | 1010.5 |
| 20260509194025 | 33 | 360 | 4.8 | 12.9 | 0.00 | 0.03 | 0.03 | 53 | 1010.4 |
| 20260509193927 | 33 | 360 | 3.2 | 12.9 | 0.00 | 0.03 | 0.03 | 53 | 1010.4 |
| 20260509193846 | 33 | 360 | 3.2 | 9.7 | 0.00 | 0.03 | 0.03 | 53 | 1010.5 |
| 20260509193746 | 33 | 360 | 4.8 | 9.7 | 0.00 | 0.03 | 0.03 | 53 | 1010.5 |
| 20260509193626 | 33 | 360 | 4.8 | 9.7 | 0.00 | 0.03 | 0.03 | 53 | 1010.5 |
| 20260509193525 | 33 | 360 | 3.2 | 9.7 | 0.00 | 0.03 | 0.03 | 53 | 1010.4 |
| 20260509193428 | 33 | 360 | 3.2 | 9.7 | 0.00 | 0.03 | 0.03 | 53 | 1010.4 |
| 20260509193327 | 33 | 360 | 3.2 | 9.7 | 0.00 | 0.03 | 0.03 | 53 | 1010.4 |
| 20260509193253 | 33 | 360 | 3.2 | 14.5 | 0.00 | 0.03 | 0.03 | 53 | 1010.4 |
| 20260509193132 | 33 | 360 | 3.2 | 14.5 | 0.00 | 0.03 | 0.03 | 53 | 1010.4 |
| 20260509193033 | 33 | 360 | 3.2 | 14.5 | 0.00 | 0.03 | 0.03 | 53 | 1010.5 |
| 20260509192934 | 33 | 360 | 4.8 | 14.5 | 0.00 | 0.03 | 0.03 | 53 | 1010.4 |
| 20260509192835 | 33 | 360 | 4.8 | 14.5 | 0.00 | 0.03 | 0.03 | 53 | 1010.5 |
| 20260509192737 | 33 | 360 | 4.8 | 14.5 | 0.00 | 0.03 | 0.03 | 53 | 1010.5 |
| 20260509192620 | 33 | 360 | 6.4 | 14.5 | 0.00 | 0.03 | 0.03 | 53 | 1010.6 |
| 20260509192520 | 32 | 360 | 6.4 | 14.5 | 0.00 | 0.03 | 0.03 | 53 | 1010.6 |
| 20260509192422 | 32 | 360 | 6.4 | 14.5 | 0.00 | 0.03 | 0.03 | 55 | 1010.6 |
| 20260509192322 | 32 | 360 | 4.8 | 12.9 | 0.00 | 0.03 | 0.03 | 54 | 1010.6 |
| 20260509192223 | 32 | 360 | 4.8 | 12.9 | 0.00 | 0.03 | 0.03 | 50 | 1010.6 |
| 20260509192144 | 33 | 360 | 4.8 | 12.9 | 0.00 | 0.03 | 0.03 | 50 | 1010.6 |
| 20260509192023 | 33 | 360 | 4.8 | 12.9 | 0.00 | 0.03 | 0.03 | 50 | 1010.7 |
| 20260509191946 | 33 | 360 | 4.8 | 12.9 | 0.00 | 0.03 | 0.03 | 50 | 1010.6 |
| 20260509191830 | 33 | 360 | 4.8 | 12.9 | 0.00 | 0.03 | 0.03 | 50 | 1010.6 |
| 20260509191750 | 33 | 360 | 3.2 | 12.9 | 0.00 | 0.03 | 0.03 | 50 | 1010.6 |
| 20260509191630 | 34 | 360 | 3.2 | 12.9 | 0.00 | 0.03 | 0.03 | 51 | 1010.6 |
| 20260509191531 | 34 | 360 | 3.2 | 12.9 | 0.00 | 0.03 | 0.03 | 51 | 1010.7 |
| 20260509191451 | 34 | 360 | 3.2 | 12.9 | 0.00 | 0.03 | 0.03 | 51 | 1010.7 |
| 20260509191331 | 34 | 360 | 3.2 | 12.9 | 0.00 | 0.03 | 0.03 | 51 | 1010.7 |
| 20260509191251 | 34 | 360 | 4.8 | 12.9 | 0.00 | 0.03 | 0.03 | 51 | 1010.6 |
| 20260509191130 | 34 | 360 | 4.8 | 12.9 | 0.00 | 0.03 | 0.03 | 51 | 1010.6 |
| 20260509191051 | 34 | 360 | 3.2 | 12.9 | 0.00 | 0.03 | 0.03 | 53 | 1010.7 |
| 20260509190934 | 34 | 360 | 4.8 | 12.9 | 0.00 | 0.03 | 0.03 | 53 | 1010.7 |
| 20260509190834 | 34 | 360 | 4.8 | 12.9 | 0.00 | 0.03 | 0.03 | 53 | 1010.7 |
| 20260509190755 | 33 | 360 | 4.8 | 12.9 | 0.00 | 0.03 | 0.03 | 53 | 1010.7 |
| 20260509190634 | 33 | 360 | 4.8 | 12.9 | 0.00 | 0.03 | 0.03 | 53 | 1010.7 |
| 20260509190535 | 33 | 360 | 4.8 | 12.9 | 0.00 | 0.03 | 0.03 | 54 | 1010.8 |
| 20260509190435 | 33 | 360 | 4.8 | 12.9 | 0.00 | 0.03 | 0.03 | 53 | 1010.7 |
| 20260509190320 | 33 | 360 | 4.8 | 12.9 | 0.00 | 0.03 | 0.03 | 53 | 1010.8 |
| 20260509190220 | 33 | 360 | 4.8 | 12.9 | 0.00 | 0.03 | 0.03 | 53 | 1010.8 |
| 20260509190120 | 33 | 360 | 4.8 | 12.9 | 0.00 | 0.03 | 0.03 | 52 | 1010.8 |
| 20260509190020 | 33 | 360 | 4.8 | 12.9 | 0.00 | 0.03 | 0.03 | 52 | 1010.8 |
| 20260509185941 | 33 | 360 | 3.2 | 12.9 | 0.00 | 0.03 | 0.03 | 52 | 1010.9 |
| 20260509185709 | 33 | 360 | 3.2 | 9.7 | 0.00 | 0.03 | 0.03 | 54 | 1010.9 |
| 20260509185511 | 33 | 360 | 3.2 | 9.7 | 0.00 | 0.03 | 0.03 | 54 | 1010.9 |
| 20260509185217 | 33 | 360 | 3.2 | 9.7 | 0.00 | 0.03 | 0.03 | 54 | 1010.9 |
| 20260509185117 | 33 | 360 | 3.2 | 9.7 | 0.00 | 0.03 | 0.03 | 54 | 1010.9 |
| 20260509185017 | 33 | 360 | 3.2 | 9.7 | 0.00 | 0.03 | 0.03 | 54 | 1011.0 |
| 20260509184918 | 33 | 360 | 3.2 | 9.7 | 0.00 | 0.03 | 0.03 | 54 | 1011.0 |
| 20260509184819 | 33 | 360 | 3.2 | 16.1 | 0.00 | 0.03 | 0.03 | 54 | 1011.0 |
| 20260509184739 | 33 | 360 | 3.2 | 16.1 | 0.00 | 0.03 | 0.03 | 54 | 1011.0 |
| 20260509184618 | 33 | 360 | 4.8 | 16.1 | 0.00 | 0.03 | 0.03 | 55 | 1011.1 |
| 20260509184523 | 33 | 360 | 4.8 | 16.1 | 0.00 | 0.03 | 0.03 | 55 | 1011.0 |
| 20260509184443 | 33 | 360 | 4.8 | 16.1 | 0.00 | 0.03 | 0.03 | 56 | 1011.1 |
| 20260509184322 | 33 | 360 | 4.8 | 16.1 | 0.00 | 0.03 | 0.03 | 56 | 1011.2 |
| 20260509184223 | 32 | 360 | 4.8 | 16.1 | 0.00 | 0.03 | 0.03 | 56 | 1011.2 |
| 20260509184144 | 32 | 360 | 4.8 | 16.1 | 0.00 | 0.03 | 0.03 | 56 | 1011.2 |
| 20260509184023 | 32 | 360 | 4.8 | 16.1 | 0.00 | 0.03 | 0.03 | 57 | 1011.2 |
| 20260509183923 | 32 | 360 | 4.8 | 16.1 | 0.00 | 0.03 | 0.03 | 57 | 1011.3 |
| 20260509183828 | 32 | 360 | 6.4 | 16.1 | 0.00 | 0.03 | 0.03 | 56 | 1011.3 |
| 20260509183728 | 32 | 360 | 6.4 | 16.1 | 0.00 | 0.03 | 0.03 | 57 | 1011.3 |
| 20260509183630 | 32 | 360 | 6.4 | 16.1 | 0.00 | 0.03 | 0.03 | 57 | 1011.2 |
| 20260509183550 | 32 | 360 | 6.4 | 16.1 | 0.00 | 0.03 | 0.03 | 57 | 1011.2 |
| 20260509183429 | 32 | 360 | 4.8 | 12.9 | 0.00 | 0.03 | 0.03 | 58 | 1011.3 |
| 20260509183330 | 32 | 360 | 3.2 | 12.9 | 0.00 | 0.03 | 0.03 | 58 | 1011.3 |
| 20260509183252 | 32 | 360 | 4.8 | 14.5 | 0.00 | 0.03 | 0.03 | 58 | 1011.3 |
| 20260509183152 | 31 | 360 | 4.8 | 14.5 | 0.00 | 0.03 | 0.03 | 58 | 1011.3 |
| 20260509183035 | 31 | 360 | 4.8 | 14.5 | 0.00 | 0.03 | 0.03 | 58 | 1011.3 |
| 20260509182916 | 31 | 360 | 4.8 | 14.5 | 0.00 | 0.03 | 0.03 | 58 | 1011.2 |
| 20260509182816 | 31 | 360 | 6.4 | 14.5 | 0.00 | 0.03 | 0.03 | 58 | 1011.3 |
| 20260509182737 | 31 | 360 | 6.4 | 14.5 | 0.00 | 0.03 | 0.03 | 58 | 1011.3 |
| 20260509182636 | 31 | 360 | 6.4 | 14.5 | 0.00 | 0.03 | 0.03 | 59 | 1011.3 |
| 20260509182516 | 31 | 360 | 6.4 | 14.5 | 0.00 | 0.03 | 0.03 | 59 | 1011.4 |
| 20260509182417 | 31 | 360 | 6.4 | 14.5 | 0.00 | 0.03 | 0.03 | 58 | 1011.4 |
| 20260509182321 | 31 | 360 | 4.8 | 9.7 | 0.00 | 0.03 | 0.03 | 58 | 1011.4 |
| 20260509182243 | 32 | 360 | 4.8 | 9.7 | 0.00 | 0.03 | 0.03 | 59 | 1011.5 |
| 20260509182143 | 32 | 360 | 4.8 | 9.7 | 0.00 | 0.03 | 0.03 | 58 | 1011.4 |
| 20260509182022 | 32 | 360 | 3.2 | 8.0 | 0.00 | 0.03 | 0.03 | 58 | 1011.5 |
| 20260509181923 | 32 | 360 | 3.2 | 8.0 | 0.00 | 0.03 | 0.03 | 55 | 1011.5 |
| 20260509181823 | 32 | 360 | 3.2 | 8.0 | 0.00 | 0.03 | 0.03 | 55 | 1011.5 |
| 20260509181723 | 33 | 360 | 3.2 | 8.0 | 0.00 | 0.03 | 0.03 | 55 | 1011.6 |
| 20260509181629 | 33 | 360 | 3.2 | 8.0 | 0.00 | 0.03 | 0.03 | 54 | 1011.6 |
| 20260509181549 | 33 | 360 | 3.2 | 8.0 | 0.00 | 0.03 | 0.03 | 54 | 1011.6 |
| 20260509181429 | 33 | 360 | 3.2 | 8.0 | 0.00 | 0.03 | 0.03 | 54 | 1011.6 |
| 20260509181350 | 33 | 360 | 3.2 | 8.0 | 0.00 | 0.03 | 0.03 | 55 | 1011.6 |
| 20260509181248 | 33 | 360 | 3.2 | 9.7 | 0.00 | 0.03 | 0.03 | 56 | 1011.7 |
| 20260509181127 | 33 | 360 | 3.2 | 9.7 | 0.00 | 0.03 | 0.03 | 56 | 1011.7 |
| 20260509181028 | 33 | 360 | 3.2 | 9.7 | 0.00 | 0.03 | 0.03 | 56 | 1011.7 |
| 20260509180928 | 33 | 360 | 3.2 | 9.7 | 0.00 | 0.03 | 0.03 | 56 | 1011.6 |
| 20260509180832 | 33 | 360 | 4.8 | 9.7 | 0.00 | 0.03 | 0.03 | 56 | 1011.6 |
| 20260509180732 | 33 | 360 | 4.8 | 9.7 | 0.00 | 0.03 | 0.03 | 56 | 1011.6 |
| 20260509180633 | 33 | 360 | 4.8 | 9.7 | 0.00 | 0.03 | 0.03 | 55 | 1011.6 |
| 20260509180554 | 33 | 360 | 4.8 | 9.7 | 0.00 | 0.03 | 0.03 | 56 | 1011.6 |
| 20260509180433 | 33 | 360 | 3.2 | 9.7 | 0.00 | 0.03 | 0.03 | 56 | 1011.5 |
| 20260509180333 | 33 | 360 | 3.2 | 9.7 | 0.00 | 0.03 | 0.03 | 57 | 1011.5 |
| 20260509180253 | 33 | 360 | 3.2 | 9.7 | 0.00 | 0.03 | 0.03 | 57 | 1011.6 |
| 20260509180133 | 33 | 360 | 3.2 | 9.7 | 0.00 | 0.03 | 0.03 | 57 | 1011.6 |
| 20260509180018 | 33 | 360 | 3.2 | 9.7 | 0.00 | 0.03 | 0.03 | 57 | 1011.6 |
| 20260509175938 | 33 | 360 | 3.2 | 9.7 | 0.00 | 0.03 | 0.03 | 57 | 1011.6 |
| 20260509175819 | 33 | 360 | 3.2 | 9.7 | 0.00 | 0.03 | 0.03 | 57 | 1011.7 |
| 20260509175719 | 33 | 360 | 3.2 | 9.7 | 0.00 | 0.03 | 0.03 | 57 | 1011.6 |
| 20260509175618 | 33 | 360 | 3.2 | 9.7 | 0.00 | 0.03 | 0.03 | 57 | 1011.7 |
| 20260509175539 | 32 | 360 | 3.2 | 9.7 | 0.00 | 0.03 | 0.03 | 59 | 1011.7 |
| 20260509175418 | 32 | 360 | 3.2 | 9.7 | 0.00 | 0.03 | 0.03 | 59 | 1011.7 |
| 20260509175322 | 32 | 360 | 3.2 | 9.7 | 0.00 | 0.03 | 0.03 | 59 | 1011.8 |
| 20260509175222 | 32 | 360 | 3.2 | 9.7 | 0.00 | 0.03 | 0.03 | 60 | 1011.8 |
| 20260509175123 | 32 | 360 | 3.2 | 9.7 | 0.00 | 0.03 | 0.03 | 60 | 1011.8 |
| 20260509175043 | 32 | 360 | 3.2 | 6.4 | 0.00 | 0.03 | 0.03 | 60 | 1011.9 |